[[{"header":{"parameterUnit":"m.s-1","parameterCategory":1,"la1":31.0,"la2":29.5877,"lo1":-88.7671,"lo2":-86.6584,"dy":0.0162,"dx":0.0185,"nx":115,"ny":88,"refTime":"2024-06-30T12:00:00:Z","depth":0,"parameterNumber":2,"parameterNumberName":"U-component_of_WINDS"},"data":[0.0,0.0,0.0,0.0,0.0,0.0,0.0,0.0,0.0,0.0,0.0,0.0,0.0,0.0,0.0,0.0,0.0,0.0,0.0,0.0,0.0,0.0,0.0,0.0,0.0,0.0,0.0,0.0,0.0,0.0,0.0,0.0,0.0,0.0,0.0,0.0,0.0,0.0,0.0,0.0,0.0,0.0,0.0,0.0,0.0,0.0,0.0,0.0,0.0,0.0,0.0,0.0,0.0,0.0,0.0,0.0,0.0,0.0,0.0,0.0,0.0,0.0,0.0,0.0,0.0,0.0,0.0,0.0,0.0,0.0,0.0,0.0,0.0,0.0,0.0,0.0,0.0,0.0,0.0,0.0,0.0,0.0,0.0,0.0,0.0,0.0,0.0,0.0,0.0,0.0,0.0,0.0,0.0,0.0,0.0,0.0,0.0,0.0,0.0,0.0,0.0,0.0,0.0,0.0,0.0,0.0,0.0,0.0,0.0,0.0,0.0,0.0,0.0,0.0,0.0,0.0,0.0,0.0,0.0,0.0,0.0,0.0,0.0,0.0,0.0,0.0,0.0,0.0,0.0,0.0,0.0,0.0,0.0,0.0,0.0,0.0,0.0,0.0,0.0,0.0,0.0,0.0,0.0,0.0,0.0,0.0,0.0,0.0,0.0,0.0,0.0,0.0,0.0,0.0,0.0,0.0,0.0,0.0,0.0,0.0,0.0,0.0,0.0,0.0,0.0,0.0,0.0,0.0,0.0,0.0,0.0,0.0,0.0,0.0,0.0,0.0,0.0,0.0,0.0,0.0,0.0,0.0,0.0,0.0,0.0,0.0,0.0,0.0,0.0,0.0,0.0,0.0,0.0,0.0,0.0,0.0,0.0,0.0,0.0,0.0,0.0,0.0,0.0,0.0,0.0,0.0,0.0,0.0,0.0,0.0,0.0,0.0,0.0,0.0,0.0,0.0,0.0,0.0,0.0,0.0,0.0,0.0,0.0,0.0,0.0,0.0,0.0,0.0,0.0,0.0,0.0,0.0,0.0,0.0,0.0,0.0,0.0,0.0,0.0,0.0,0.0,0.0,0.0,0.0,0.0,0.0,0.0,0.0,0.0,0.0,0.0,0.0,0.0,0.0,0.0,0.0,0.0,0.0,0.0,0.0,0.0,0.0,0.0,0.0,0.0,0.0,0.0,0.0,0.0,0.0,0.0,0.0,0.0,0.0,0.0,0.0,0.0,0.0,0.0,0.0,0.0,0.0,0.0,0.0,0.0,0.0,0.0,0.0,0.0,0.0,0.0,0.0,0.0,0.0,0.0,0.0,0.0,0.0,0.0,0.0,0.0,0.0,0.0,0.0,0.0,0.0,0.0,0.0,0.0,0.0,0.0,0.0,0.0,0.0,0.0,0.0,0.0,0.0,0.0,0.0,0.0,0.0,0.0,0.0,0.0,0.0,0.0,0.0,0.0,0.0,0.0,0.0,0.0,0.0,0.0,0.0,0.0,0.0,0.0,0.0,0.0,0.0,0.0,0.0,0.0,0.0,0.0,0.0,0.0,0.0,0.0,0.0,0.0,0.0,0.0,0.0,0.0,0.0,0.0,0.0,0.0,0.0,0.0,0.0,0.0,0.0,0.0,0.0,0.0,0.0,0.0,0.0,0.0,0.0,0.0,0.0,0.0,0.0,0.0,0.0,0.0,0.0,0.0,0.0,0.0,0.0,0.0,0.0,0.0,0.0,0.0,0.0,0.0,0.0,0.0,0.0,0.0,0.0,0.0,0.0,0.0,0.0,0.0,0.0,0.0,0.0,0.0,0.0,0.0,0.0,0.0,0.0,0.0,0.0,0.0,0.0,0.0,0.0,0.0,0.0,0.0,0.0,0.0,0.0,0.0,0.0,0.0,0.0,0.0,0.0,0.0,0.0,0.0,0.0,0.0,0.0,0.0,0.0,0.0,0.0,0.0,0.0,0.0,0.0,0.0,0.0,0.0,0.0,0.0,0.0,0.0,0.0,0.0,0.0,0.0,0.0,0.0,0.0,0.0,0.0,0.0,0.0,0.0,0.0,0.0,0.0,0.0,0.0,0.0,0.0,0.0,0.0,0.0,0.0,0.0,0.0,0.0,0.0,0.0,0.0,0.0,0.0,0.0,0.0,0.0,0.0,0.0,0.0,0.0,0.0,0.0,0.0,0.0,0.0,0.0,0.0,0.0,0.0,0.0,0.0,0.0,0.0,0.0,0.0,0.0,0.0,0.0,0.0,0.0,0.0,0.0,0.0,0.0,0.0,0.0,0.0,0.0,0.0,0.0,0.0,0.0,0.0,0.0,0.0,0.0,0.0,0.0,0.0,0.0,0.0,0.0,0.0,0.0,0.0,0.0,0.0,0.0,0.0,0.0,0.0,0.0,0.0,0.0,0.0,0.0,0.0,0.0,0.0,0.0,0.0,0.0,0.0,0.0,0.0,0.0,0.0,0.0,0.0,0.0,0.0,0.0,0.0,0.0,0.0,0.0,0.0,0.0,0.0,0.0,0.0,0.0,0.0,0.0,0.0,0.0,0.0,0.0,0.0,0.0,0.0,0.0,0.0,0.0,0.0,0.0,0.0,0.0,0.0,0.0,0.0,0.0,0.0,0.0,0.0,0.0,0.0,0.0,0.0,0.0,0.0,0.0,0.0,0.0,0.0,0.0,0.0,0.0,0.0,0.0,0.0,0.0,0.0,0.0,0.0,0.0,0.0,0.0,0.0,0.0,0.0,0.0,0.0,0.0,0.0,0.0,0.0,0.0,0.0,0.0,0.0,0.0,0.0,0.0,0.0,0.0,0.0,0.0,0.0,0.0,0.0,0.0,0.0,0.0,0.0,0.0,0.0,0.0,0.0,0.0,0.0,0.0,0.0,0.0,0.0,0.0,0.0,0.0,0.0,0.0,0.0,0.0,0.0,0.0,0.0,0.0,0.0,0.0,0.0,0.0,0.0,0.0,0.0,0.0,0.0,0.0,0.0,0.0,0.0,0.0,0.0,0.0,0.0,0.0,0.0,0.0,0.0,0.0,0.0,0.0,0.0,0.0,0.0,0.0,0.0,0.0,0.0,0.0,0.0,0.0,0.0,0.0,0.0,0.0,0.0,0.0,0.0,0.0,0.0,0.0,0.0,0.0,0.0,0.0,0.0,0.0,0.0,0.0,0.0,0.0,0.0,0.0,0.0,0.0,0.0,0.0,0.0,0.0,0.0,0.0,0.0,0.0,0.0,0.0,0.0,0.0,0.0,0.0,0.0,0.0,0.0,0.0,0.0,0.0,0.0,0.0,0.0,0.0,0.0,0.0,0.0,0.0,0.0,0.0,0.0,0.0,0.0,0.0,0.0,0.0,0.0,0.0,0.0,0.0,0.0,0.0,0.0,0.0,0.0,0.0,0.0,0.0,0.0,0.0,0.0,0.0,0.0,0.0,0.0,0.0,0.0,0.0,0.0,0.0,0.0,0.0,0.0,0.0,0.0,0.0,0.0,0.0,0.0,0.0,0.0,0.0,0.0,0.0,0.0,0.0,0.0,0.0,0.0,0.0,0.0,0.0,0.0,0.0,0.0,0.0,0.0,0.0,0.0,0.0,0.0,0.0,0.0,0.0,0.0,0.0,0.0,0.0,0.0,0.0,0.0,0.0,0.0,0.0,0.0,0.0,0.0,0.0,0.0,0.0,0.0,0.0,0.0,0.0,0.0,0.0,0.0,0.0,0.0,0.0,0.0,0.0,0.0,0.0,0.0,0.0,0.0,0.0,0.0,0.0,0.0,0.0,0.0,0.0,0.0,0.0,0.0,0.0,0.0,0.0,0.0,0.0,0.0,0.0,0.0,0.0,0.0,0.0,0.0,0.0,0.0,0.0,0.0,0.0,0.0,0.0,0.0,0.0,0.0,0.0,0.0,0.0,0.0,0.0,0.0,0.0,0.0,0.0,0.0,0.0,0.0,0.0,0.0,0.0,0.0,0.0,0.0,0.0,0.0,0.0,0.0,0.0,0.0,0.0,0.0,0.0,0.0,0.0,0.0,0.0,0.0,0.0,0.0,0.0,0.0,0.0,0.0,0.0,0.0,0.0,0.0,0.0,0.0,0.0,0.0,0.0,0.0,0.0,0.0,0.0,0.0,0.0,0.0,0.0,0.0,0.0,0.0,0.0,0.0,0.0,0.0,0.0,0.0,0.0,0.0,0.0,0.0,0.0,0.0,0.0,0.0,0.0,0.0,0.0,0.0,0.0,0.0,0.0,0.0,0.0,0.0,0.0,0.0,-2.8983,0.0,0.0,0.0,0.0,0.0,0.0,0.0,0.0,0.0,0.0,0.0,0.0,0.0,0.0,0.0,0.0,0.0,0.0,0.0,0.0,0.0,0.0,0.0,0.0,0.0,0.0,0.0,0.0,0.0,0.0,0.0,0.0,0.0,0.0,0.0,0.0,0.0,0.0,0.0,0.0,0.0,0.0,0.0,0.0,0.0,0.0,0.0,0.0,0.0,0.0,0.0,0.0,0.0,0.0,0.0,0.0,0.0,0.0,0.0,0.0,0.0,0.0,0.0,0.0,0.0,0.0,0.0,0.0,0.0,0.0,0.0,0.0,0.0,0.0,0.0,0.0,0.0,0.0,0.0,0.0,0.0,0.0,0.0,0.0,0.0,0.0,0.0,0.0,0.0,0.0,0.0,0.0,0.0,0.0,0.0,0.0,0.0,0.0,0.0,0.0,0.0,0.0,0.0,0.0,0.0,0.0,0.0,0.0,0.0,0.0,-3.2867,-3.2305,-3.1911,-3.1058,-2.9743,0.0,0.0,0.0,0.0,0.0,0.0,0.0,0.0,0.0,0.0,0.0,0.0,0.0,0.0,0.0,0.0,0.0,0.0,0.0,0.0,0.0,0.0,0.0,0.0,0.0,0.0,0.0,0.0,0.0,0.0,0.0,0.0,0.0,0.0,0.0,0.0,0.0,0.0,0.0,0.0,0.0,0.0,0.0,0.0,0.0,0.0,0.0,0.0,0.0,0.0,0.0,0.0,0.0,0.0,0.0,0.0,0.0,0.0,0.0,0.0,0.0,0.0,0.0,0.0,0.0,0.0,0.0,0.0,0.0,0.0,0.0,0.0,0.0,0.0,0.0,0.0,0.0,0.0,0.0,0.0,0.0,0.0,0.0,0.0,0.0,0.0,0.0,0.0,0.0,0.0,0.0,0.0,0.0,0.0,0.0,0.0,0.0,0.0,0.0,0.0,0.0,0.0,0.0,0.0,0.0,0.0,0.0,0.0,0.0,0.0,0.0,0.0,-3.2948,-3.2095,-3.0246,0.0,0.0,0.0,0.0,0.0,0.0,0.0,0.0,0.0,0.0,0.0,0.0,0.0,0.0,0.0,0.0,0.0,0.0,0.0,0.0,0.0,0.0,0.0,0.0,0.0,0.0,0.0,0.0,0.0,0.0,0.0,0.0,0.0,0.0,0.0,0.0,0.0,0.0,0.0,0.0,0.0,0.0,0.0,0.0,0.0,0.0,0.0,0.0,0.0,0.0,0.0,0.0,0.0,0.0,0.0,0.0,0.0,0.0,0.0,0.0,0.0,0.0,0.0,0.0,0.0,0.0,0.0,0.0,0.0,0.0,0.0,0.0,0.0,0.0,0.0,0.0,0.0,0.0,0.0,0.0,0.0,0.0,0.0,0.0,0.0,0.0,0.0,0.0,0.0,0.0,0.0,0.0,0.0,0.0,0.0,0.0,0.0,0.0,0.0,0.0,0.0,0.0,0.0,0.0,0.0,0.0,0.0,0.0,0.0,0.0,-3.4631,-3.3821,-3.3718,0.0,-3.032,0.0,0.0,0.0,0.0,0.0,0.0,0.0,0.0,0.0,0.0,0.0,0.0,0.0,0.0,0.0,0.0,0.0,0.0,0.0,0.0,0.0,0.0,0.0,0.0,0.0,0.0,0.0,0.0,0.0,0.0,0.0,0.0,0.0,0.0,0.0,0.0,0.0,0.0,0.0,0.0,0.0,0.0,0.0,0.0,0.0,0.0,0.0,0.0,0.0,0.0,0.0,0.0,0.0,0.0,0.0,0.0,0.0,0.0,0.0,0.0,0.0,0.0,0.0,0.0,0.0,0.0,0.0,0.0,0.0,0.0,0.0,0.0,0.0,0.0,0.0,0.0,0.0,0.0,0.0,0.0,0.0,0.0,0.0,0.0,0.0,0.0,0.0,0.0,0.0,0.0,0.0,0.0,0.0,0.0,0.0,0.0,0.0,0.0,0.0,0.0,0.0,0.0,0.0,0.0,0.0,0.0,0.0,0.0,0.0,0.0,-3.5211,-3.5317,-3.4334,-3.2889,0.0,0.0,0.0,0.0,0.0,0.0,0.0,0.0,0.0,0.0,0.0,0.0,0.0,0.0,0.0,0.0,0.0,0.0,0.0,0.0,0.0,0.0,0.0,0.0,0.0,0.0,0.0,0.0,0.0,0.0,0.0,0.0,0.0,0.0,0.0,0.0,0.0,0.0,0.0,0.0,0.0,0.0,0.0,0.0,0.0,0.0,0.0,0.0,0.0,0.0,0.0,0.0,0.0,0.0,0.0,0.0,0.0,0.0,0.0,0.0,0.0,0.0,0.0,0.0,0.0,0.0,0.0,0.0,0.0,0.0,0.0,0.0,0.0,0.0,0.0,0.0,0.0,0.0,0.0,0.0,0.0,0.0,0.0,0.0,0.0,0.0,0.0,0.0,0.0,0.0,0.0,0.0,0.0,0.0,0.0,0.0,0.0,0.0,0.0,0.0,0.0,0.0,0.0,0.0,0.0,0.0,0.0,0.0,0.0,0.0,-3.5381,0.0,-3.6207,-3.489,-3.3256,-3.147,0.0,0.0,0.0,0.0,0.0,0.0,0.0,0.0,0.0,0.0,0.0,0.0,0.0,0.0,0.0,0.0,0.0,0.0,0.0,0.0,0.0,0.0,0.0,0.0,0.0,0.0,0.0,0.0,0.0,0.0,0.0,0.0,0.0,0.0,0.0,0.0,0.0,0.0,0.0,0.0,0.0,0.0,0.0,0.0,0.0,0.0,0.0,0.0,0.0,0.0,0.0,0.0,0.0,0.0,0.0,0.0,0.0,0.0,0.0,0.0,0.0,0.0,0.0,0.0,0.0,0.0,0.0,0.0,0.0,0.0,0.0,0.0,0.0,0.0,0.0,0.0,0.0,0.0,0.0,0.0,0.0,0.0,0.0,0.0,0.0,0.0,0.0,0.0,0.0,0.0,0.0,0.0,0.0,0.0,0.0,0.0,0.0,0.0,0.0,0.0,0.0,0.0,0.0,0.0,0.0,0.0,0.0,0.0,0.0,-3.5826,-3.6266,-3.6285,-3.5408,-3.383,0.0,0.0,0.0,0.0,0.0,0.0,0.0,0.0,0.0,0.0,0.0,0.0,0.0,0.0,0.0,0.0,0.0,0.0,0.0,0.0,0.0,0.0,0.0,0.0,0.0,0.0,0.0,0.0,0.0,0.0,0.0,0.0,0.0,0.0,0.0,0.0,0.0,0.0,0.0,0.0,0.0,0.0,0.0,0.0,0.0,0.0,0.0,0.0,0.0,0.0,0.0,0.0,0.0,0.0,0.0,0.0,0.0,0.0,0.0,0.0,0.0,0.0,0.0,0.0,0.0,0.0,0.0,0.0,0.0,0.0,0.0,0.0,0.0,0.0,0.0,0.0,0.0,0.0,0.0,0.0,0.0,0.0,0.0,0.0,0.0,0.0,0.0,0.0,0.0,0.0,0.0,0.0,0.0,0.0,0.0,0.0,0.0,0.0,0.0,0.0,0.0,0.0,0.0,0.0,0.0,0.0,0.0,0.0,0.0,-3.5826,-3.7165,-3.7349,-3.634,-3.5991,-3.4449,0.0,0.0,0.0,0.0,0.0,0.0,0.0,0.0,0.0,0.0,0.0,0.0,0.0,0.0,0.0,0.0,0.0,0.0,0.0,0.0,0.0,0.0,0.0,0.0,0.0,0.0,0.0,0.0,0.0,0.0,0.0,0.0,0.0,0.0,0.0,0.0,0.0,0.0,0.0,0.0,0.0,0.0,0.0,0.0,0.0,0.0,0.0,0.0,0.0,0.0,0.0,0.0,0.0,0.0,0.0,0.0,0.0,0.0,0.0,0.0,0.0,0.0,0.0,0.0,0.0,0.0,0.0,0.0,0.0,0.0,0.0,0.0,0.0,0.0,0.0,0.0,0.0,0.0,0.0,0.0,0.0,0.0,0.0,0.0,0.0,0.0,0.0,0.0,0.0,0.0,0.0,0.0,0.0,0.0,0.0,0.0,0.0,0.0,0.0,0.0,0.0,0.0,0.0,0.0,0.0,0.0,0.0,0.0,0.0,-3.6281,0.0,-3.7936,0.0,-3.6285,-3.4743,0.0,0.0,0.0,0.0,0.0,0.0,0.0,0.0,0.0,0.0,0.0,0.0,0.0,0.0,0.0,0.0,0.0,0.0,0.0,0.0,0.0,0.0,0.0,0.0,0.0,0.0,0.0,0.0,0.0,0.0,0.0,0.0,0.0,0.0,0.0,0.0,0.0,0.0,0.0,0.0,0.0,0.0,0.0,0.0,0.0,0.0,0.0,0.0,0.0,0.0,0.0,0.0,0.0,0.0,0.0,0.0,0.0,0.0,0.0,0.0,0.0,0.0,0.0,0.0,0.0,0.0,0.0,0.0,0.0,0.0,0.0,0.0,0.0,0.0,0.0,0.0,0.0,0.0,0.0,0.0,0.0,0.0,0.0,0.0,0.0,0.0,0.0,0.0,0.0,0.0,0.0,0.0,0.0,0.0,0.0,0.0,0.0,0.0,0.0,0.0,0.0,0.0,0.0,0.0,0.0,0.0,0.0,0.0,-3.4651,-3.6285,-3.7881,-3.7955,-3.6376,-3.6303,-3.4761,0.0,0.0,0.0,0.0,0.0,0.0,0.0,0.0,0.0,0.0,0.0,0.0,0.0,0.0,0.0,0.0,0.0,0.0,0.0,0.0,0.0,0.0,0.0,0.0,0.0,0.0,0.0,0.0,0.0,0.0,0.0,0.0,0.0,0.0,0.0,0.0,0.0,0.0,0.0,0.0,0.0,0.0,0.0,0.0,0.0,0.0,0.0,0.0,0.0,0.0,0.0,0.0,0.0,0.0,0.0,0.0,0.0,0.0,0.0,0.0,0.0,0.0,0.0,0.0,0.0,0.0,0.0,0.0,0.0,0.0,0.0,0.0,0.0,0.0,0.0,0.0,0.0,0.0,0.0,0.0,0.0,0.0,0.0,0.0,0.0,0.0,0.0,0.0,0.0,0.0,0.0,0.0,0.0,0.0,0.0,0.0,0.0,0.0,0.0,0.0,0.0,0.0,0.0,0.0,0.0,0.0,0.0,0.0,0.0,-3.7107,-3.8157,-3.8193,-3.718,-3.6578,-3.5037,0.0,0.0,0.0,0.0,0.0,0.0,0.0,0.0,0.0,0.0,0.0,0.0,0.0,0.0,0.0,0.0,0.0,0.0,0.0,0.0,0.0,0.0,0.0,0.0,0.0,0.0,0.0,0.0,0.0,0.0,0.0,0.0,0.0,0.0,0.0,0.0,0.0,0.0,0.0,0.0,0.0,0.0,0.0,0.0,0.0,0.0,0.0,0.0,0.0,0.0,0.0,0.0,0.0,0.0,0.0,0.0,0.0,0.0,0.0,0.0,0.0,0.0,0.0,0.0,0.0,0.0,0.0,0.0,0.0,0.0,0.0,0.0,0.0,0.0,0.0,0.0,0.0,0.0,0.0,0.0,0.0,0.0,0.0,0.0,0.0,0.0,0.0,0.0,0.0,0.0,0.0,0.0,0.0,0.0,0.0,0.0,0.0,0.0,0.0,0.0,0.0,0.0,0.0,0.0,0.0,0.0,0.0,0.0,0.0,-3.8355,-3.8872,-3.8762,-3.7988,-3.7162,-3.5569,-3.3151,0.0,0.0,0.0,0.0,0.0,0.0,0.0,0.0,0.0,0.0,0.0,0.0,0.0,0.0,0.0,0.0,0.0,0.0,0.0,0.0,0.0,0.0,0.0,0.0,0.0,0.0,0.0,0.0,0.0,0.0,0.0,0.0,0.0,0.0,0.0,0.0,0.0,0.0,0.0,0.0,0.0,0.0,0.0,0.0,0.0,0.0,0.0,0.0,0.0,0.0,0.0,0.0,0.0,0.0,0.0,0.0,0.0,0.0,0.0,0.0,0.0,0.0,0.0,0.0,0.0,0.0,0.0,0.0,0.0,0.0,0.0,0.0,0.0,0.0,0.0,0.0,0.0,0.0,0.0,0.0,0.0,0.0,0.0,0.0,0.0,0.0,0.0,0.0,0.0,0.0,0.0,0.0,0.0,0.0,0.0,0.0,0.0,0.0,0.0,0.0,0.0,0.0,0.0,0.0,0.0,0.0,0.0,0.0,-3.9918,-4.001,-3.9625,-3.8799,-3.7936,-3.6354,0.0,0.0,0.0,0.0,0.0,0.0,0.0,0.0,0.0,0.0,0.0,0.0,0.0,0.0,0.0,0.0,0.0,0.0,0.0,0.0,0.0,0.0,0.0,0.0,0.0,0.0,0.0,0.0,0.0,0.0,0.0,0.0,0.0,0.0,0.0,0.0,0.0,0.0,0.0,0.0,0.0,0.0,0.0,0.0,0.0,0.0,0.0,0.0,0.0,0.0,0.0,0.0,0.0,0.0,0.0,0.0,0.0,0.0,0.0,0.0,0.0,0.0,0.0,0.0,0.0,0.0,0.0,0.0,0.0,0.0,0.0,0.0,0.0,0.0,0.0,0.0,0.0,0.0,0.0,0.0,0.0,0.0,0.0,0.0,0.0,0.0,0.0,0.0,0.0,0.0,0.0,0.0,0.0,0.0,0.0,0.0,0.0,0.0,0.0,0.0,0.0,0.0,0.0,0.0,0.0,0.0,0.0,0.0,0.0,-4.0689,-4.1368,-4.1001,-3.9606,-3.8227,-3.6629,0.0,0.0,0.0,0.0,0.0,0.0,0.0,0.0,0.0,0.0,0.0,0.0,0.0,0.0,0.0,0.0,0.0,0.0,0.0,0.0,0.0,0.0,0.0,0.0,0.0,0.0,0.0,0.0,0.0,0.0,0.0,0.0,0.0,0.0,0.0,0.0,0.0,0.0,0.0,0.0,0.0,0.0,0.0,0.0,0.0,0.0,0.0,0.0,0.0,0.0,0.0,0.0,0.0,0.0,0.0,0.0,0.0,0.0,0.0,0.0,0.0,0.0,0.0,0.0,0.0,0.0,0.0,0.0,0.0,0.0,0.0,0.0,0.0,0.0,0.0,0.0,0.0,0.0,0.0,0.0,0.0,0.0,0.0,0.0,0.0,0.0,0.0,0.0,0.0,0.0,0.0,0.0,0.0,0.0,0.0,0.0,0.0,0.0,0.0,0.0,0.0,0.0,0.0,0.0,0.0,0.0,0.0,0.0,-3.9019,-4.1058,-4.1866,-4.1699,-4.0432,-3.9166,-3.7569,0.0,0.0,0.0,0.0,0.0,0.0,0.0,0.0,0.0,0.0,0.0,0.0,0.0,0.0,0.0,0.0,0.0,0.0,0.0,0.0,0.0,0.0,0.0,0.0,0.0,0.0,0.0,0.0,0.0,0.0,0.0,0.0,0.0,0.0,0.0,0.0,0.0,0.0,0.0,0.0,0.0,0.0,0.0,0.0,0.0,0.0,0.0,0.0,0.0,0.0,0.0,0.0,0.0,0.0,0.0,0.0,0.0,0.0,0.0,0.0,0.0,0.0,0.0,0.0,0.0,0.0,0.0,0.0,0.0,0.0,0.0,0.0,0.0,0.0,0.0,0.0,0.0,0.0,0.0,0.0,0.0,0.0,0.0,0.0,0.0,0.0,0.0,0.0,0.0,0.0,0.0,0.0,0.0,0.0,0.0,0.0,0.0,0.0,0.0,0.0,0.0,0.0,0.0,0.0,0.0,0.0,0.0,0.0,-3.9554,-4.1058,-4.1974,-4.2011,-4.1113,-4.0322,-3.8762,0.0,0.0,0.0,0.0,0.0,0.0,0.0,0.0,0.0,0.0,0.0,0.0,0.0,0.0,0.0,0.0,0.0,0.0,0.0,0.0,0.0,0.0,0.0,0.0,0.0,0.0,0.0,0.0,0.0,0.0,0.0,0.0,0.0,0.0,0.0,0.0,0.0,0.0,0.0,0.0,0.0,0.0,0.0,0.0,0.0,0.0,0.0,0.0,0.0,0.0,0.0,0.0,0.0,0.0,0.0,0.0,0.0,0.0,0.0,0.0,0.0,0.0,0.0,0.0,0.0,0.0,0.0,0.0,0.0,0.0,0.0,0.0,0.0,0.0,0.0,0.0,0.0,0.0,0.0,0.0,0.0,0.0,0.0,0.0,0.0,0.0,0.0,0.0,0.0,0.0,0.0,0.0,0.0,0.0,0.0,0.0,0.0,0.0,0.0,0.0,0.0,0.0,0.0,0.0,0.0,0.0,0.0,0.0,-4.0102,-4.1095,-4.2506,-4.2561,-4.1132,-4.0322,-3.8744,0.0,0.0,0.0,0.0,0.0,0.0,0.0,0.0,0.0,0.0,0.0,0.0,0.0,0.0,0.0,0.0,0.0,0.0,0.0,0.0,0.0,0.0,0.0,0.0,0.0,0.0,0.0,0.0,0.0,0.0,0.0,0.0,0.0,0.0,0.0,0.0,0.0,0.0,0.0,0.0,0.0,0.0,0.0,0.0,0.0,0.0,0.0,0.0,-3.3673,0.0,0.0,0.0,0.0,0.0,0.0,0.0,0.0,0.0,0.0,0.0,0.0,0.0,0.0,0.0,0.0,0.0,0.0,0.0,0.0,0.0,0.0,0.0,0.0,0.0,0.0,0.0,0.0,0.0,0.0,0.0,0.0,0.0,0.0,0.0,0.0,0.0,0.0,0.0,0.0,0.0,0.0,0.0,0.0,0.0,0.0,0.0,0.0,0.0,0.0,0.0,0.0,0.0,0.0,0.0,0.0,0.0,0.0,0.0,-4.0689,-4.1132,-4.2671,-4.2745,-4.1168,-4.0689,-3.9166,0.0,0.0,0.0,0.0,0.0,0.0,0.0,0.0,0.0,0.0,0.0,0.0,0.0,0.0,0.0,0.0,0.0,0.0,0.0,0.0,0.0,0.0,0.0,0.0,0.0,0.0,0.0,0.0,0.0,0.0,0.0,0.0,0.0,0.0,0.0,0.0,0.0,0.0,0.0,0.0,0.0,0.0,0.0,0.0,0.0,0.0,0.0,0.0,0.0,0.0,0.0,0.0,0.0,0.0,0.0,0.0,0.0,0.0,0.0,0.0,0.0,0.0,0.0,0.0,0.0,0.0,0.0,0.0,0.0,0.0,0.0,0.0,0.0,0.0,0.0,0.0,0.0,0.0,0.0,0.0,0.0,0.0,0.0,0.0,0.0,0.0,0.0,0.0,0.0,0.0,0.0,0.0,0.0,0.0,0.0,0.0,0.0,0.0,0.0,0.0,0.0,0.0,0.0,0.0,0.0,0.0,0.0,-3.9462,-4.1113,-4.1168,-4.2653,-4.2727,-4.1168,-4.1113,-3.9591,-3.6431,0.0,0.0,0.0,0.0,0.0,0.0,0.0,0.0,0.0,0.0,0.0,0.0,0.0,0.0,0.0,0.0,0.0,0.0,0.0,0.0,0.0,0.0,0.0,0.0,0.0,0.0,0.0,0.0,0.0,0.0,0.0,0.0,0.0,0.0,0.0,0.0,0.0,0.0,-2.9058,-3.1751,0.0,0.0,0.0,0.0,0.0,0.0,0.0,0.0,-3.5102,0.0,0.0,0.0,0.0,0.0,0.0,0.0,0.0,0.0,0.0,0.0,0.0,0.0,0.0,0.0,0.0,0.0,0.0,0.0,0.0,0.0,0.0,0.0,0.0,0.0,0.0,0.0,0.0,0.0,0.0,0.0,0.0,0.0,0.0,0.0,0.0,0.0,0.0,0.0,0.0,0.0,0.0,0.0,0.0,0.0,0.0,0.0,0.0,0.0,0.0,0.0,0.0,0.0,0.0,0.0,0.0,-3.6303,-3.9462,-4.1113,-4.1132,-4.2671,-4.2727,-4.1187,-4.1113,-3.9606,-3.6468,0.0,0.0,0.0,0.0,0.0,0.0,0.0,0.0,0.0,0.0,0.0,0.0,0.0,0.0,0.0,0.0,0.0,0.0,0.0,0.0,0.0,0.0,0.0,0.0,0.0,0.0,0.0,0.0,0.0,0.0,0.0,0.0,0.0,0.0,0.0,0.0,0.0,0.0,0.0,-3.2501,-3.3718,0.0,0.0,0.0,0.0,0.0,0.0,0.0,0.0,-3.4788,0.0,0.0,0.0,0.0,0.0,0.0,0.0,0.0,0.0,0.0,0.0,0.0,0.0,0.0,0.0,0.0,0.0,0.0,0.0,0.0,0.0,0.0,0.0,0.0,0.0,0.0,0.0,0.0,0.0,0.0,0.0,0.0,0.0,0.0,0.0,0.0,0.0,0.0,0.0,0.0,0.0,0.0,0.0,0.0,0.0,0.0,0.0,0.0,0.0,0.0,0.0,0.0,0.0,0.0,0.0,-3.6358,-3.9478,-4.1113,-4.115,-4.2671,-4.2727,-4.115,-4.0708,-3.9184,0.0,0.0,0.0,0.0,0.0,0.0,0.0,0.0,0.0,0.0,0.0,0.0,0.0,0.0,0.0,0.0,0.0,0.0,0.0,0.0,0.0,0.0,0.0,0.0,0.0,0.0,0.0,0.0,0.0,0.0,0.0,0.0,0.0,0.0,0.0,0.0,0.0,0.0,0.0,0.0,-3.344,-3.4574,-3.5668,0.0,0.0,0.0,0.0,0.0,0.0,-3.5799,-3.5512,0.0,0.0,0.0,0.0,0.0,0.0,0.0,0.0,0.0,0.0,0.0,0.0,0.0,0.0,0.0,0.0,0.0,0.0,0.0,0.0,0.0,0.0,0.0,0.0,0.0,0.0,0.0,0.0,0.0,0.0,0.0,0.0,0.0,0.0,0.0,0.0,0.0,0.0,0.0,0.0,0.0,0.0,0.0,0.0,0.0,0.0,0.0,0.0,0.0,0.0,0.0,0.0,0.0,0.0,0.0,-3.634,-3.946,-4.1113,-4.115,-4.2506,-4.258,-4.1132,-4.0157,-3.8597,0.0,0.0,0.0,0.0,0.0,0.0,0.0,0.0,0.0,0.0,0.0,0.0,0.0,0.0,0.0,0.0,0.0,0.0,0.0,0.0,0.0,0.0,0.0,0.0,0.0,0.0,0.0,0.0,0.0,0.0,0.0,0.0,0.0,0.0,0.0,0.0,0.0,0.0,0.0,0.0,0.0,-3.5599,-3.6371,-3.7164,0.0,0.0,0.0,0.0,-3.696,-3.6642,0.0,0.0,0.0,0.0,0.0,0.0,0.0,0.0,0.0,0.0,0.0,0.0,0.0,0.0,0.0,0.0,0.0,0.0,0.0,0.0,0.0,0.0,0.0,0.0,0.0,0.0,0.0,0.0,0.0,0.0,0.0,0.0,0.0,0.0,0.0,0.0,0.0,0.0,0.0,0.0,0.0,0.0,0.0,0.0,0.0,0.0,0.0,0.0,0.0,0.0,0.0,0.0,0.0,0.0,0.0,0.0,-3.634,-3.9478,-4.1113,-4.115,-4.1974,-4.2011,-4.1113,-3.9643,-3.8028,0.0,0.0,0.0,0.0,0.0,0.0,0.0,0.0,0.0,0.0,0.0,0.0,0.0,0.0,0.0,0.0,0.0,0.0,0.0,0.0,0.0,0.0,0.0,0.0,0.0,0.0,0.0,0.0,0.0,0.0,0.0,0.0,0.0,0.0,0.0,0.0,0.0,0.0,0.0,0.0,0.0,-3.6234,-3.7586,-3.8423,-3.8793,0.0,0.0,-3.8331,-3.8184,-3.7518,0.0,0.0,0.0,0.0,0.0,0.0,0.0,0.0,0.0,0.0,0.0,0.0,0.0,0.0,0.0,0.0,0.0,0.0,0.0,0.0,0.0,0.0,0.0,0.0,0.0,0.0,0.0,0.0,0.0,0.0,0.0,0.0,0.0,0.0,0.0,0.0,0.0,0.0,0.0,0.0,0.0,0.0,0.0,0.0,0.0,0.0,0.0,0.0,0.0,0.0,0.0,0.0,0.0,0.0,0.0,-3.4174,-3.6303,-3.9019,-4.0634,-4.1095,-4.1866,-4.1919,-4.1132,-3.9111,-3.7492,0.0,0.0,0.0,0.0,0.0,0.0,0.0,0.0,0.0,0.0,0.0,0.0,0.0,0.0,0.0,0.0,0.0,0.0,0.0,0.0,0.0,0.0,0.0,0.0,0.0,0.0,0.0,0.0,0.0,0.0,0.0,0.0,0.0,0.0,0.0,0.0,0.0,0.0,0.0,0.0,0.0,0.0,-3.7482,-3.8217,0.0,0.0,0.0,-3.8236,-3.8184,0.0,0.0,0.0,0.0,0.0,0.0,0.0,0.0,0.0,0.0,0.0,0.0,0.0,0.0,0.0,0.0,0.0,0.0,0.0,0.0,0.0,0.0,0.0,0.0,0.0,0.0,0.0,0.0,0.0,0.0,0.0,0.0,0.0,0.0,0.0,0.0,0.0,0.0,0.0,0.0,0.0,0.0,0.0,0.0,0.0,0.0,0.0,0.0,0.0,0.0,0.0,0.0,0.0,0.0,0.0,0.0,0.0,-3.6285,-3.8469,-3.9992,-4.0765,-4.1405,-4.1405,-4.0765,-3.845,0.0,0.0,0.0,0.0,0.0,0.0,0.0,0.0,0.0,0.0,0.0,0.0,0.0,0.0,0.0,0.0,0.0,0.0,0.0,0.0,0.0,0.0,0.0,0.0,0.0,0.0,0.0,-2.5076,0.0,0.0,0.0,0.0,0.0,0.0,0.0,0.0,0.0,0.0,0.0,0.0,0.0,0.0,-3.6753,-3.7442,-3.8328,-3.8888,0.0,0.0,-3.8547,-3.8533,-3.7875,-3.7303,0.0,0.0,0.0,0.0,0.0,0.0,0.0,0.0,0.0,0.0,0.0,0.0,0.0,0.0,0.0,0.0,0.0,0.0,0.0,0.0,0.0,0.0,0.0,0.0,0.0,0.0,0.0,0.0,0.0,0.0,0.0,0.0,0.0,0.0,0.0,0.0,0.0,0.0,0.0,0.0,0.0,0.0,0.0,0.0,0.0,0.0,0.0,0.0,0.0,0.0,0.0,0.0,0.0,0.0,0.0,-3.6248,-3.7936,-3.9184,-3.9937,-4.0044,-4.0029,-3.9937,-3.7624,-3.6358,0.0,0.0,0.0,0.0,0.0,0.0,0.0,0.0,0.0,0.0,0.0,0.0,0.0,0.0,0.0,0.0,0.0,0.0,0.0,0.0,0.0,0.0,0.0,0.0,0.0,0.0,0.0,0.0,0.0,0.0,0.0,0.0,0.0,0.0,0.0,0.0,0.0,0.0,0.0,0.0,0.0,-3.7325,-3.8042,-3.9416,-4.0307,0.0,0.0,-4.0127,-3.9968,-3.9334,-3.8616,-3.7939,0.0,0.0,0.0,0.0,0.0,0.0,0.0,0.0,0.0,0.0,0.0,0.0,0.0,0.0,0.0,0.0,0.0,0.0,0.0,0.0,0.0,0.0,0.0,0.0,0.0,0.0,0.0,0.0,0.0,0.0,0.0,0.0,0.0,0.0,0.0,0.0,0.0,0.0,0.0,0.0,0.0,0.0,0.0,0.0,0.0,0.0,0.0,0.0,0.0,0.0,0.0,0.0,0.0,-3.333,-3.6248,-3.7386,-3.8597,-3.9843,-3.9882,-3.9882,-3.9882,-3.7551,-3.6285,0.0,0.0,0.0,0.0,0.0,0.0,0.0,0.0,0.0,0.0,0.0,0.0,0.0,0.0,0.0,0.0,0.0,0.0,0.0,0.0,0.0,0.0,0.0,0.0,0.0,0.0,0.0,0.0,-2.6703,-2.6838,-2.6906,0.0,0.0,0.0,0.0,0.0,0.0,0.0,0.0,0.0,0.0,-3.7861,-3.8591,-3.9583,0.0,0.0,-4.0188,-4.0146,-4.0096,-3.9503,-3.8928,-3.8633,-3.7956,0.0,0.0,0.0,0.0,0.0,0.0,0.0,0.0,0.0,0.0,0.0,0.0,0.0,0.0,0.0,0.0,0.0,0.0,0.0,0.0,0.0,0.0,0.0,0.0,0.0,0.0,0.0,0.0,0.0,0.0,0.0,0.0,0.0,0.0,0.0,0.0,0.0,0.0,0.0,0.0,0.0,0.0,0.0,0.0,0.0,0.0,0.0,0.0,0.0,0.0,0.0,0.0,-3.3256,-3.6248,-3.6868,-3.7915,-3.9515,-3.9533,-3.9533,-3.9478,-3.7422,-3.6285,0.0,0.0,0.0,0.0,0.0,0.0,0.0,0.0,0.0,0.0,0.0,0.0,0.0,0.0,0.0,0.0,0.0,0.0,0.0,0.0,0.0,0.0,0.0,0.0,0.0,0.0,0.0,0.0,-2.6919,-2.7058,-2.7029,0.0,0.0,0.0,0.0,0.0,0.0,0.0,0.0,0.0,0.0,-3.8413,-3.8937,-3.9639,-4.0113,-4.0113,-4.0113,-4.0113,-4.0113,-3.969,-3.9259,-3.9022,0.0,0.0,0.0,0.0,0.0,0.0,0.0,0.0,0.0,0.0,0.0,0.0,0.0,0.0,0.0,0.0,0.0,0.0,0.0,0.0,0.0,0.0,0.0,0.0,0.0,0.0,0.0,0.0,0.0,0.0,0.0,0.0,0.0,0.0,0.0,0.0,0.0,0.0,0.0,0.0,0.0,0.0,0.0,0.0,0.0,0.0,0.0,0.0,0.0,0.0,0.0,0.0,0.0,-3.3807,-3.6248,-3.6358,-3.7147,-3.8689,-3.8726,-3.8744,-3.8707,-3.7147,-3.6285,-3.6211,0.0,0.0,0.0,0.0,0.0,0.0,0.0,0.0,0.0,0.0,0.0,0.0,0.0,0.0,0.0,0.0,0.0,0.0,0.0,0.0,0.0,0.0,0.0,0.0,0.0,0.0,-2.7567,-2.7231,-2.7232,0.0,0.0,0.0,0.0,0.0,0.0,0.0,0.0,0.0,0.0,-3.755,-3.8971,-3.9005,-3.9639,-4.0113,-4.013,-4.013,-4.0113,-4.013,-4.0096,-3.9842,0.0,0.0,0.0,0.0,0.0,0.0,0.0,0.0,0.0,0.0,0.0,0.0,0.0,0.0,0.0,0.0,0.0,0.0,0.0,0.0,0.0,0.0,0.0,0.0,0.0,0.0,0.0,-3.4295,-3.3795,0.0,0.0,0.0,0.0,0.0,0.0,0.0,0.0,0.0,0.0,0.0,-3.6387,-3.6201,0.0,0.0,0.0,0.0,0.0,0.0,0.0,0.0,0.0,0.0,0.0,0.0,-3.4357,-3.6211,-3.6831,-3.7606,-3.867,-3.8707,-3.8707,-3.8673,-3.7129,-3.5532,-3.3899,0.0,0.0,0.0,0.0,0.0,0.0,0.0,0.0,0.0,0.0,0.0,0.0,0.0,0.0,0.0,0.0,0.0,0.0,0.0,0.0,0.0,0.0,0.0,0.0,0.0,-2.7914,0.0,0.0,0.0,0.0,0.0,0.0,0.0,0.0,0.0,0.0,0.0,-3.6157,-3.7669,-3.8514,-3.9174,-3.9673,-3.9943,-4.0265,0.0,0.0,0.0,0.0,0.0,0.0,0.0,0.0,0.0,0.0,0.0,0.0,0.0,0.0,-3.706,-3.6806,-3.6592,-3.6319,-3.5959,0.0,0.0,0.0,0.0,0.0,0.0,0.0,0.0,0.0,0.0,0.0,0.0,0.0,0.0,0.0,0.0,-3.5975,0.0,0.0,0.0,0.0,0.0,0.0,0.0,0.0,-3.8204,-3.8635,-3.9022,-3.8836,-3.849,0.0,-3.7622,-3.6085,0.0,0.0,0.0,0.0,0.0,0.0,0.0,0.0,-3.4908,-3.6266,-3.7107,-3.7896,-3.8652,-3.8707,-3.8707,-3.867,-3.7129,-3.5275,-3.3096,-3.1971,-3.0779,0.0,0.0,0.0,0.0,0.0,0.0,0.0,0.0,0.0,0.0,0.0,0.0,0.0,0.0,0.0,0.0,0.0,0.0,0.0,0.0,0.0,0.0,0.0,-2.8115,0.0,0.0,0.0,0.0,0.0,0.0,0.0,0.0,0.0,-3.5616,-3.6276,-3.7347,-3.8802,-3.9208,-3.9571,-4.0028,0.0,0.0,0.0,0.0,0.0,0.0,0.0,-4.0663,-4.018,-4.0113,-4.0113,-4.0113,-3.9706,-3.9208,-3.8734,0.0,0.0,-3.799,-3.7672,-3.746,-3.7378,-3.7077,-3.6701,-3.6275,-3.5926,-3.5542,0.0,0.0,0.0,0.0,0.0,0.0,0.0,0.0,-4.0554,-4.0092,0.0,-3.9304,0.0,0.0,0.0,0.0,0.0,0.0,0.0,0.0,-4.0205,-4.0935,-4.2179,-4.2002,-4.1451,-4.0514,-3.9667,-3.8683,-3.7495,-3.5152,0.0,0.0,0.0,0.0,0.0,0.0,-3.5463,-3.6358,-3.7162,-3.7915,-3.867,-3.8707,-3.867,-3.856,-3.711,-3.5514,-3.3844,-3.2284,-3.1072,-3.0265,-2.876,0.0,0.0,0.0,0.0,0.0,0.0,0.0,0.0,0.0,0.0,0.0,0.0,0.0,0.0,0.0,0.0,0.0,0.0,0.0,0.0,-2.8606,0.0,0.0,0.0,0.0,0.0,0.0,0.0,0.0,0.0,0.0,-3.5802,-3.7618,-3.9005,-3.9039,0.0,0.0,0.0,0.0,-4.0113,-4.0163,-4.0146,-4.0146,-4.0163,-4.0163,-4.0146,-4.0113,0.0,0.0,-4.0113,-4.0096,-4.0079,-4.0096,-4.0028,-3.9648,-3.8253,-3.7823,-3.7635,-3.7593,-3.7226,-3.6705,-3.6313,-3.5856,-3.5237,-4.4028,0.0,0.0,0.0,0.0,-4.2027,-4.2143,-4.2354,-4.2335,-4.1873,-4.1085,-4.1085,0.0,0.0,0.0,0.0,0.0,0.0,-4.0613,-4.2096,-4.2059,-4.2176,-4.2428,-4.23,-4.1996,-4.1563,-4.1176,-4.0202,-3.8753,-3.7815,-3.654,-3.4922,0.0,0.0,0.0,0.0,-3.634,-3.7144,-3.7955,-3.8469,-3.8689,-3.8707,-3.8157,-3.7019,-3.6541,-3.5514,-3.3862,-3.2784,-3.188,-3.1072,-3.0063,0.0,0.0,0.0,0.0,0.0,0.0,0.0,0.0,0.0,0.0,0.0,0.0,0.0,0.0,0.0,0.0,0.0,0.0,0.0,-2.9779,-2.97,-2.9895,0.0,0.0,0.0,0.0,0.0,0.0,0.0,0.0,0.0,-3.8024,-3.8582,-3.9191,0.0,0.0,-4.0113,-4.0113,-4.0113,-4.0299,-4.0815,0.0,0.0,0.0,-4.0882,-4.0713,-4.018,-4.0113,-4.0113,-4.0113,-4.0113,-4.0113,-4.0113,-4.0113,-3.9935,-3.9472,-3.9185,-3.9041,-3.892,-3.852,-3.8074,-3.7644,-3.7135,-3.6566,-4.6797,-4.4989,-4.3989,-4.3566,-4.3585,-4.3585,-4.3778,-4.4085,-4.4085,-4.3605,-4.2797,-4.2777,-4.2047,-4.0804,-4.0823,0.0,0.0,0.0,-4.2211,-4.3453,-4.336,-4.3423,-4.3591,-4.3414,-4.3258,-4.3107,-4.2575,-4.1768,-4.0696,-4.0166,-3.9206,-3.7808,0.0,0.0,-3.6303,-3.6629,-3.7015,-3.7511,-3.8285,-3.8707,-3.8707,-3.8707,-3.8083,-3.6831,-3.6468,-3.5661,-3.4307,-3.2889,-3.1898,-3.1415,-3.0338,-2.9133,0.0,0.0,0.0,0.0,0.0,0.0,0.0,0.0,0.0,0.0,0.0,-2.6898,-2.8172,0.0,0.0,0.0,-3.0054,-3.0426,-3.0846,-3.0901,0.0,0.0,0.0,0.0,0.0,0.0,0.0,-3.6891,-3.8142,-3.9106,-3.9377,-3.9453,-3.9605,-4.0045,-4.0113,-4.0113,-4.0113,0.0,-4.0265,-4.0679,-4.0764,-4.0764,-4.0764,-4.0764,-4.0595,-4.018,-4.0113,-4.0113,-4.0113,-4.0113,-4.0113,-4.0113,-4.0113,-4.0045,-3.9926,-3.9798,-3.9668,-3.9458,-3.9094,-3.865,-3.8201,-3.7711,-3.7148,-4.899,-4.8009,-4.5682,-4.4643,-4.4509,-4.4432,-4.4855,-4.5575,-4.5594,-4.5152,-4.4432,-4.4393,-4.3951,-4.3181,-4.3124,0.0,0.0,-4.3201,-4.3618,-4.4381,-4.4279,-4.4593,-4.5277,-4.5038,-4.4902,-4.4777,-4.3847,-4.3291,-4.2964,-4.212,-4.1241,-4.0292,-3.7841,-3.657,-3.6538,-3.718,-3.7529,-3.7603,-3.834,-3.8707,-3.8707,-3.8707,-3.8285,-3.7419,-3.6703,-3.5862,-3.488,-3.2706,-3.147,-3.136,-2.9934,-2.873,-2.7952,0.0,0.0,0.0,0.0,0.0,0.0,0.0,0.0,0.0,0.0,0.0,0.0,0.0,0.0,0.0,-3.1056,0.0,-3.186,-3.233,0.0,0.0,0.0,-3.5322,-3.5919,-3.6576,-3.7506,-3.8819,0.0,0.0,0.0,0.0,-4.0113,-4.0113,-4.0113,-4.0113,-4.0113,-4.0113,-4.0113,-4.0163,-4.0113,-4.0113,-4.018,-4.0163,-4.0163,-4.0113,-4.0113,-4.0113,-4.0113,-4.0113,-4.0113,-4.0113,-4.0113,-4.0062,-3.991,-3.9781,-3.9599,-3.9325,-3.9013,-3.865,-3.8185,-3.7653,-3.7134,-4.9875,-4.9048,-4.8452,-4.7451,-4.624,-4.5566,-4.5421,-4.5594,-4.5594,-4.5479,-4.5287,-4.5306,-4.4816,-4.397,-4.3374,-4.3431,-4.4008,-4.4008,-4.4453,-4.5196,-4.5188,-4.5208,-4.5288,-4.5243,-4.5091,-4.4852,-4.4581,-4.405,-4.3316,-4.2866,-4.2244,-4.1376,-3.9991,-3.8929,-3.8206,-3.7742,-3.7804,-3.8414,-3.8615,-3.8707,-3.8707,-3.8707,-3.8028,-3.6629,-3.6409,-3.5605,-3.4137,-3.2963,-3.2027,-3.1415,-3.0448,-2.9537,-2.8767,-2.8136,0.0,0.0,0.0,0.0,0.0,0.0,0.0,0.0,0.0,-2.906,-2.9861,0.0,-3.1151,0.0,-3.2018,-3.3091,-3.4358,-3.4871,0.0,0.0,-3.6416,-3.7053,-3.7495,-3.819,-3.8737,-3.8979,-3.9503,-3.991,-4.0096,-4.0113,-4.0113,-4.0113,-4.0113,-4.0113,-4.0113,-4.0113,-4.0113,-4.0113,-4.0113,-4.0113,-4.0113,-4.0113,-4.0113,-4.0113,-4.0113,-4.0113,-4.0113,-4.0113,-4.0113,-4.0113,-4.0113,-4.0011,-3.9807,-3.9703,-3.952,-3.905,-3.886,-3.865,-3.8185,-3.7711,-3.7208,-5.0423,-4.9933,-4.9567,-4.8856,-4.7913,-4.6701,-4.5951,-4.5594,-4.5594,-4.5594,-4.5594,-4.5594,-4.5344,-4.4863,-4.4421,-4.447,-4.4863,-4.4874,-4.5115,-4.5531,-4.5513,-4.5457,-4.539,-4.5319,-4.5213,-4.508,-4.4962,-4.4619,-4.4128,-4.3877,-4.3337,-4.253,-4.1474,-4.0457,-3.9563,-3.856,-3.8309,-3.875,-3.8723,-3.8707,-3.8707,-3.8707,-3.7918,-3.6358,-3.6285,-3.5514,-3.3862,-3.2687,-3.2027,-3.1898,-3.0473,-2.9629,-2.9537,-2.9108,-2.8851,0.0,0.0,0.0,0.0,0.0,0.0,0.0,0.0,0.0,0.0,0.0,-3.2727,0.0,-3.4259,0.0,-3.6323,-3.6824,-3.7263,-3.7676,-3.8166,-3.8556,-3.8732,-3.9306,-3.9668,-3.9595,-3.9884,-4.0113,-4.0113,-4.0113,-4.0113,-4.0113,-4.0113,-4.0113,-4.0113,-4.0113,-4.0113,-4.0113,-4.0113,-4.0113,-4.0113,-4.0113,-4.0113,-4.0113,-4.0113,-4.0113,-4.0113,-4.0113,-4.0113,-4.0113,-4.0113,-4.0037,-3.9755,-3.9703,-3.952,-3.8996,-3.8805,-3.8611,-3.8103,-3.7682,-3.7268,-5.0683,-5.0616,-4.9894,-4.951,-4.926,-4.7721,-4.6567,-4.5748,-4.5652,-4.5594,-4.5594,-4.5594,-4.5594,-4.5594,-4.5594,-4.5594,-4.5594,-4.5594,-4.5594,-4.5594,-4.5531,-4.5504,-4.5495,-4.538,-4.5328,-4.5307,-4.5136,-4.5057,-4.5014,-4.4833,-4.4392,-4.3662,-4.2549,-4.1548,-4.0682,-3.9567,-3.8947,-3.8788,-3.8735,-3.8707,-3.8707,-3.8707,-3.7936,-3.6395,-3.6285,-3.5514,-3.3862,-3.2357,-3.188,-3.2472,-3.0491,-2.961,-3.032,-3.0356,-3.0356,0.0,-3.1029,0.0,0.0,0.0,0.0,0.0,0.0,0.0,0.0,-3.4082,-3.482,-3.6191,-3.6928,-3.7494,-3.7972,-3.8464,-3.8881,-3.9234,-3.9658,-3.9853,-3.9725,-4.0092,-4.033,-4.0305,-4.0188,-4.0096,-4.0113,-4.0113,-4.0113,-4.0113,-4.0113,-4.0113,-4.0113,-4.0113,-4.0113,-4.0113,-4.0113,-4.0113,-4.0113,-4.0113,-4.0113,-4.0113,-4.0113,-4.0113,-4.0113,-4.0113,-4.0113,-4.0113,-4.0113,-3.9995,-3.9755,-3.9703,-3.9504,-3.8952,-3.8832,-3.8611,-3.8046,-3.7639,-3.7314,-5.0683,-5.0683,-5.0539,-5.0048,-4.9317,-4.8298,-4.7413,-4.6605,-4.5922,-4.5594,-4.5594,-4.5594,-4.5594,-4.5594,-4.5594,-4.5594,-4.5594,-4.5594,-4.5594,-4.5594,-4.5605,-4.5559,-4.5504,-4.5476,-4.5429,-4.5369,-4.5357,-4.5275,-4.5159,-4.5061,-4.4891,-4.4612,-4.3585,-4.2645,0.0,0.0,0.0,0.0,-3.8719,-3.8707,-3.8707,-3.8707,-3.7918,-3.6358,-3.6285,0.0,-3.3862,-3.2889,-3.2436,-3.2546,-3.1549,0.0,0.0,0.0,0.0,0.0,0.0,0.0,0.0,0.0,0.0,0.0,-3.394,-3.416,-3.388,-3.5581,-3.7083,-3.7872,-3.8546,-3.9137,-3.9696,-4.0259,-4.0517,-4.0363,-4.0771,-4.0972,-4.067,-4.0635,-4.0551,-4.0313,-4.0305,-4.0213,-4.0138,-4.0113,-4.0113,-4.0113,-4.0113,-4.0113,-4.0113,-4.0113,-4.0113,-4.0113,-4.0113,-4.0113,-4.0113,-4.0113,-4.0113,-4.0113,-4.0113,-4.0113,-4.0113,-4.0113,-4.0113,-4.0113,-4.0113,-3.9995,-3.9772,-3.9703,-3.953,-3.9077,-3.8903,-3.8611,-3.8004,-3.7639,-3.7314,-5.0683,0.0,-5.0683,-5.0442,0.0,-4.9106,-4.8259,-4.7404,-4.6163,-4.5594,-4.5594,-4.5594,-4.5594,-4.5594,-4.5594,-4.5594,-4.5594,-4.5594,-4.5594,-4.5594,-4.5594,-4.5605,-4.554,-4.5513,-4.5476,-4.5448,-4.5419,-4.5361,-4.53,-4.5235,-4.5159,-4.5084,-4.4056,-4.3064,-4.2077,-4.0541,-3.9443,-3.8848,-3.8795,-3.875,-3.875,-3.8723,-3.812,-3.6942,0.0,0.0,0.0,0.0,0.0,0.0,0.0,0.0,0.0,0.0,0.0,-3.2008,-3.2375,-3.2761,-3.3151,-3.3555,-3.416,-3.4963,-3.6156,-3.6655,-3.6229,-3.8071,-3.9347,-3.9686,-4.0284,-4.0745,-4.0925,-4.1416,-4.1619,-4.1287,-4.1402,-4.1358,-4.1053,-4.0888,-4.0721,-4.051,-4.0436,-4.0355,-4.0213,-4.0205,-4.0163,-4.0113,-4.0113,-4.0113,-4.0113,-4.0113,-4.0113,-4.0113,-4.0113,-4.0113,-4.0113,-4.0113,-4.0113,-4.0113,-4.0113,-4.0113,-4.0113,-4.0113,-4.0113,-4.0113,-4.0113,-4.002,-3.9858,-3.9772,-3.9582,-3.9228,-3.8958,-3.8667,-3.8205,-3.7831,-3.7464,-5.0827,-5.0683,-5.0683,-5.0683,-5.0635,-4.976,-4.8817,-4.7778,0.0,0.0,0.0,-4.5594,-4.5594,-4.5594,-4.5594,-4.5594,-4.5594,-4.5594,-4.5594,-4.5594,-4.5594,-4.5594,-4.5594,-4.5531,-4.5532,-4.5513,-4.5448,-4.5429,-4.5419,-4.537,-4.5309,-4.521,-4.4406,-4.3379,-4.2139,-4.0186,-3.9115,-3.8993,-3.8862,-3.8822,-3.8822,-3.8765,-3.8349,-3.754,-3.6883,-3.606,-3.5009,-3.3738,-3.3261,-3.3733,-3.254,-3.2173,-3.2949,-3.3023,-3.3096,-3.3275,-3.388,-3.4523,-3.5169,-3.5224,-3.5591,-3.645,-3.8138,-3.9056,-3.8927,-4.0396,-4.1264,-4.1216,-4.1827,-4.2141,-4.194,-4.2235,-4.231,-4.198,-4.1762,-4.1533,-4.1233,-4.1053,-4.0894,-4.0769,-4.0631,-4.051,-4.0362,-4.0305,-4.0238,-4.0163,-4.0121,-4.0113,-4.0113,-4.0113,-4.0113,-4.0113,-4.0113,-4.0113,-4.0113,-4.0113,-4.0113,-4.0113,-4.0113,-4.0113,-4.0113,-4.0113,-4.0113,-4.0113,-4.0113,-4.0037,-3.9926,-3.9798,-3.9625,-3.9379,-3.905,-3.875,-3.846,-3.8062,-3.7626,-5.1318,-5.0683,-5.0683,-5.0683,-5.0635,-4.976,-4.8529,-4.7009,-4.6009,-4.5594,-4.5594,-4.5594,-4.5594,-4.5594,-4.5594,-4.5594,-4.5594,-4.5594,-4.5594,0.0,-4.5594,-4.5594,-4.5594,-4.5605,-4.5605,-4.5586,-4.5577,-4.5531,-4.5495,-4.5476,-4.5429,-4.5288,-4.5088,-4.4034,-4.2208,-4.0365,-3.9395,-3.933,-3.9031,-3.8877,-3.8877,-3.8881,-3.8464,-3.765,-3.747,-3.6636,-3.5078,-3.4784,-3.438,-3.3825,-3.3568,-3.3825,-3.4601,-3.4637,-3.4986,-3.5697,-3.5881,-3.6009,-3.6101,-3.6119,-3.6468,-3.7364,-3.946,-4.0487,-3.9845,-4.1203,-4.2107,-4.2059,-4.2611,-4.2941,-4.2756,-4.2637,-4.2472,-4.2267,-4.1973,-4.1692,-4.1538,-4.1318,-4.1088,-4.0894,-4.0847,-4.0728,-4.051,-4.0387,-4.0305,-4.028,-4.0188,-4.0113,-4.0113,-4.0113,-4.0113,-4.0113,-4.0113,-4.0113,-4.0113,-4.0113,-4.0113,-4.0113,-4.0113,-4.0113,-4.0113,-4.0113,-4.0113,-4.0113,-4.0113,-4.0062,-3.9935,-3.9781,-3.9668,-3.9501,-3.9202,-3.8887,-3.8611,-3.8274,-3.7828,-5.1481,-5.0731,-5.0683,-5.0693,-5.0616,-4.9279,-4.8279,-4.7432,-4.6152,-4.5594,-4.5594,-4.5594,-4.5594,-4.5594,-4.5594,-4.5594,-4.5594,-4.5594,-4.5594,-4.5594,-4.5594,-4.5594,-4.5594,-4.5594,-4.5594,-4.5594,-4.5594,-4.5596,-4.5559,-4.5532,-4.5467,-4.5371,-4.48,-4.3778,-4.237,-4.0995,-4.007,-3.9563,-3.9237,-3.9064,-3.9003,-3.8964,-3.874,-3.8313,-3.7874,-3.7292,-3.6434,-3.5974,-3.5574,-3.5165,-3.5165,-3.533,-3.5679,-3.5683,-3.5881,-3.6248,-3.6285,-3.6486,-3.6942,-3.7349,-3.7753,-3.8175,-3.9974,-4.0948,-4.0598,-4.2011,-4.2948,-4.2914,-4.3175,-4.3251,-4.3068,-4.2881,-4.265,-4.2371,-4.2184,-4.1973,-4.1754,-4.156,-4.134,-4.1198,-4.1059,-4.0935,-4.0728,-4.06,-4.0478,-4.0412,-4.0288,-4.0188,-4.0096,-4.0096,-4.0096,-4.0113,-4.0113,-4.0113,-4.0113,-4.0113,-4.0113,-4.0113,-4.0113,-4.0113,-4.0113,-4.0113,-4.0113,-4.0113,-4.0113,-4.0087,-4.0011,-3.991,-3.9755,-3.9616,-3.9379,-3.9067,-3.875,-3.8303,-3.7743,-5.172,-5.072,-5.072,-5.073,-5.0529,-4.8855,-4.8115,-4.7932,-4.6297,-4.5594,-4.5594,-4.5594,-4.5594,-4.5594,-4.5594,-4.5594,-4.5594,-4.5594,-4.5594,-4.5594,-4.5594,-4.5594,-4.5594,-4.5594,-4.5594,-4.5594,-4.5594,-4.5594,-4.5586,-4.554,-4.5513,-4.5389,-4.4449,-4.3454,-4.2569,-4.1567,-4.0632,-3.9785,-3.9477,-3.9272,-3.9183,-3.912,-3.9054,-3.8913,-3.8344,-3.7909,-3.7606,-3.6988,-3.6573,-3.6332,-3.6317,-3.6391,-3.6541,-3.6574,-3.6633,-3.6798,-3.6835,-3.711,-3.7731,-3.834,-3.8781,-3.9001,-4.027,-4.1168,-4.1444,-4.2671,-4.3479,-4.3497,-4.341,-4.334,-4.3196,-4.2995,-4.2787,-4.2512,-4.2371,-4.2225,-4.1952,-4.1784,-4.1648,-4.1471,-4.1307,-4.1169,-4.0989,-4.084,-4.0673,-4.051,-4.0412,-4.0288,-4.0171,-4.0146,-4.0121,-4.0096,-4.0113,-4.0113,-4.0113,-4.0113,-4.0113,-4.0113,-4.0113,-4.0113,-4.0113,-4.0113,-4.0113,-4.0113,-4.0113,-4.0113,-4.007,-3.9986,-3.9833,-3.972,-3.9484,-3.9218,-3.8805,-3.8274,-3.7655,-5.2248,-5.0908,-5.0793,-5.0747,-5.0519,-4.891,-4.817,-4.7875,-4.6326,-4.5594,-4.5594,-4.5594,-4.5594,-4.5594,-4.5594,-4.5594,-4.5594,-4.5594,-4.5594,-4.5594,-4.5594,-4.5594,-4.5594,-4.5594,-4.5594,-4.5594,-4.5594,-4.5594,-4.5594,-4.5586,-4.5559,-4.5399,-4.4479,-4.3615,-4.2764,-4.18,-4.0846,-3.9927,-3.9792,-3.9611,-3.9395,-3.9367,-3.9275,-3.9087,-3.9013,-3.8554,-3.7784,-3.755,-3.7153,-3.6476,-3.6383,-3.6652,-3.7272,-3.7401,-3.7731,-3.8377,-3.845,-3.8542,-3.8579,-3.8655,-3.9001,-3.9753,-4.0561,-4.1407,-4.2103,-4.2965,-4.3479,-4.3497,-4.3446,-4.3359,-4.3196,-4.3013,-4.2881,-4.2746,-4.2552,-4.2369,-4.2267,-4.2124,-4.1934,-4.1604,-4.1577,-4.1453,-4.1203,-4.0995,-4.0776,-4.0583,-4.051,-4.0436,-4.0313,-4.0288,-4.0255,-4.0138,-4.0113,-4.0096,-4.0096,-4.0113,-4.0113,-4.0113,-4.0113,-4.0113,-4.0113,-4.0113,-4.0113,-4.0113,-4.0113,-4.0113,-4.007,-3.9986,-3.9858,-3.9729,-3.9563,-3.9299,-3.8777,-3.8315,-3.7873,-5.2448,-5.0869,-5.0844,-5.081,-5.0535,-4.8981,-4.8223,-4.8006,-4.638,-4.564,-4.5594,-4.5594,-4.5594,-4.5594,-4.5594,-4.5594,-4.5594,-4.5594,-4.5594,-4.5594,-4.5594,-4.5594,-4.5594,-4.5594,-4.5594,-4.5594,-4.5594,-4.5594,-4.5594,-4.5594,-4.5568,-4.5485,-4.5055,-4.4461,-4.357,-4.2639,-4.171,-4.0819,-4.0222,-3.9837,-3.9701,-3.9533,-3.9395,-3.929,-3.921,-3.8985,-3.8591,-3.8469,-3.8245,-3.7925,-3.7816,-3.7934,-3.8232,-3.8242,-3.8358,-3.867,-3.8707,-3.8707,-3.8707,-3.8707,-3.9038,-3.9827,-4.0653,-4.1425,-4.2249,-4.3039,-4.3479,-4.3479,-4.3462,-4.341,-4.3323,-4.3233,-4.3123,-4.2918,-4.2767,-4.265,-4.249,-4.231,-4.2163,-4.2016,-4.178,-4.1565,-4.1408,-4.1198,-4.0959,-4.0769,-4.068,-4.0558,-4.0453,-4.0429,-4.0362,-4.0238,-4.0213,-4.0188,-4.0138,-4.0113,-4.0113,-4.0113,-4.0113,-4.0113,-4.0113,-4.0113,-4.0113,-4.0113,-4.0113,-4.0113,-4.0113,-4.0062,-3.9961,-3.9807,-3.9537,-3.9245,-3.8821,-3.8488,-3.8091,-5.2569,-5.1072,-5.0937,-5.0753,-5.0372,-4.8927,-4.813,-4.7703,-4.6315,-4.5654,-4.5612,-4.5631,-4.5622,-4.5594,-4.5594,-4.5594,-4.5594,-4.5594,-4.5594,-4.5594,-4.5594,-4.5594,-4.5594,-4.5594,-4.5594,-4.5594,-4.5594,-4.5594,-4.5594,-4.5594,-4.5577,-4.5541,-4.5504,-4.5064,-4.4164,-4.3293,-4.2374,-4.1417,-4.0517,-4.0027,-3.9933,-3.9717,-3.9551,-3.9427,-3.9343,-3.9251,-3.9188,-3.9078,-3.9007,-3.895,-3.8862,-3.8822,-3.8788,-3.875,-3.8738,-3.8707,-3.8707,-3.8707,-3.8707,-3.8891,-3.9368,-4.0175,-4.0948,-4.1772,-4.2525,-4.3167,-4.3461,-4.3479,-4.3479,-4.3463,-4.3394,-4.3394,-4.3269,-4.3031,-4.2957,-4.2862,-4.2689,-4.2512,-4.2389,-4.2287,-4.2016,-4.1719,-4.1587,-4.138,-4.1192,-4.1012,-4.0877,-4.0776,-4.0655,-4.0607,-4.0558,-4.0404,-4.0337,-4.0288,-4.0138,-4.0113,-4.0113,-4.0113,-4.0113,-4.0113,-4.0113,-4.0113,-4.0113,-4.0113,-4.0113,-4.0113,-4.0113,-4.0087,-4.0037,-3.9849,-3.959,-3.9272,-3.8914,-3.8655,-3.8363,-5.2621,-5.1184,-5.1012,-5.0538,-4.968,-4.874,-4.7843,-4.7089,-4.6105,-4.5703,-4.5701,-4.5682,-4.5657,-4.5594,-4.5622,-4.5594,-4.5594,-4.5594,-4.5594,-4.5594,-4.5594,-4.5594,-4.5594,-4.5594,-4.5594,-4.5594,-4.5594,-4.5594,-4.5594,-4.5594,-4.5594,-4.5586,-4.5531,-4.5091,-4.4324,-4.3386,-4.2459,-4.1609,-4.0673,-4.0167,-4.0077,-3.9962,-3.9758,-3.9539,-3.9502,-3.9446,-3.9386,-3.9202,-3.9101,-3.9101,-3.8979,-3.8881,-3.8822,-3.8792,-3.8765,-3.8723,-3.8707,-3.8707,-3.8799,-3.9368,-4.0139,-4.0948,-4.1699,-4.2543,-4.3204,-4.3406,-4.3479,-4.3479,-4.3479,-4.3463,-4.3429,-4.3429,-4.334,-4.3214,-4.3123,-4.3049,-4.29,-4.2785,-4.2629,-4.2409,-4.2249,-4.204,-4.1675,-4.1582,-4.1448,-4.1255,-4.1186,-4.1094,-4.0901,-4.0871,-4.0769,-4.0583,-4.0485,-4.0395,-4.0171,-4.0138,-4.0138,-4.0113,-4.0113,-4.0113,-4.0113,-4.0113,-4.0113,-4.0113,-4.0113,-4.0113,-4.0113,-4.0045,-3.9969,-3.9833,-3.9668,-3.9379,-3.9077,-3.8805,-3.85,-5.266,-5.1115,-5.1063,-5.0551,-4.9683,-4.8817,-4.7903,-4.7001,-4.6131,-4.5746,-4.5692,-4.5684,-4.5679,-4.5657,-4.5676,-4.564,-4.5594,-4.5594,-4.5594,-4.5594,-4.5594,-4.5594,-4.5594,-4.5594,-4.5594,-4.5594,-4.5594,-4.5594,-4.5594,-4.5594,-4.5594,-4.5594,-4.5577,-4.5377,-4.4889,-4.3661,-4.2753,-4.2287,-4.1006,-4.0243,-4.0167,-4.0109,-3.9986,-3.977,-3.9642,-3.9545,-3.9458,-3.9337,-3.9245,-3.917,-3.9073,-3.8989,-3.8939,-3.8833,-3.8762,-3.8723,-3.8707,-3.8707,-3.8799,-3.946,-4.0249,-4.104,-4.1846,-4.2635,-4.3314,-4.3479,-4.3479,-4.3479,-4.3479,-4.3462,-4.3444,-4.3463,-4.341,-4.3322,-4.3287,-4.3233,-4.3068,-4.2937,-4.2804,-4.2629,-4.245,-4.2184,-4.1977,-4.1823,-4.1648,-4.1475,-4.1386,-4.1272,-4.1134,-4.1059,-4.0959,-4.0817,-4.068,-4.0558,-4.0412,-4.0288,-4.0213,-4.0138,-4.0113,-4.0113,-4.0113,-4.0113,-4.0113,-4.0113,-4.0113,-4.0113,-4.0113,-4.0087,-3.9995,-3.9884,-3.972,-3.9537,-3.9255,-3.8996,-3.8738,-5.2239,-5.1202,-5.1132,-5.0448,-4.9388,-4.8774,-4.7824,-4.6712,-4.6093,-4.58,-4.5734,-4.5727,-4.5735,-4.5687,-4.5679,-4.5673,-4.562,-4.5622,-4.5594,-4.5594,-4.5594,-4.5594,-4.5594,-4.5594,-4.5594,-4.5594,-4.5594,-4.5594,-4.5594,-4.5594,-4.5594,-4.5594,-4.5594,-4.5577,-4.53,-4.4109,-4.3295,-4.2733,-4.148,-4.0612,-4.031,-4.0225,-4.0147,-3.9996,-3.9856,-3.9682,-3.9575,-3.9477,-3.9389,-3.9304,-3.9197,-3.9106,-3.8993,-3.891,-3.8807,-3.8735,-3.8735,-3.8866,-3.9129,-3.9827,-4.0653,-4.1442,-4.2231,-4.2947,-4.3424,-4.3479,-4.3479,-4.3479,-4.3479,-4.3479,-4.3479,-4.3479,-4.348,-4.3429,-4.3394,-4.3359,-4.3215,-4.3105,-4.2957,-4.2804,-4.2589,-4.2351,-4.2225,-4.204,-4.1931,-4.1801,-4.1648,-4.1538,-4.1363,-4.129,-4.1192,-4.1053,-4.0894,-4.0793,-4.0673,-4.0534,-4.0337,-4.0263,-4.0138,-4.0113,-4.0113,-4.0113,-4.0113,-4.0113,-4.0113,-4.0113,-4.0113,-4.0113,-4.0037,-3.991,-3.9807,-3.9677,-3.9441,-3.9228,-3.8958,-5.1312,-5.1206,-5.1205,-5.0226,-4.8799,-4.8577,-4.7513,-4.6125,-4.5931,-4.5874,-4.5807,-4.5787,-4.5764,-4.5704,-4.5708,-4.5703,-4.5682,-4.564,-4.5614,-4.5594,-4.5594,-4.5594,-4.5594,-4.5594,-4.5594,-4.5594,-4.5594,-4.5594,-4.5594,-4.5594,-4.5594,-4.5594,-4.5594,-4.5586,-4.5586,-4.4635,-4.3818,-4.2977,-4.2038,-4.1189,-4.0431,-4.0262,-4.0206,-4.0186,-4.0108,-3.9954,-3.9724,-3.9587,-3.9514,-3.9458,-3.9311,-3.9142,-3.9021,-3.8935,-3.8881,-3.8822,-3.8807,-3.9148,-3.9822,-4.0577,-4.1348,-4.2119,-4.2982,-4.3387,-4.3478,-4.3479,-4.3479,-4.3479,-4.3479,-4.3479,-4.3479,-4.3479,-4.3479,-4.3479,-4.3428,-4.3394,-4.3358,-4.3269,-4.3123,-4.2919,-4.2728,-4.2552,-4.2432,-4.2331,-4.2225,-4.21,-4.2012,-4.1902,-4.1653,-4.1582,-4.1453,-4.1272,-4.1129,-4.1029,-4.0912,-4.0793,-4.0576,-4.0379,-4.023,-4.0138,-4.0113,-4.0113,-4.0113,-4.0113,-4.0113,-4.0113,-4.0113,-4.0113,-4.0062,-3.9977,-3.9884,-3.9807,-3.9625,-3.9415,-3.9228,-5.1323,-5.1281,-5.1261,-5.0265,-4.8759,-4.8638,-4.763,-4.6033,-4.5975,-4.5935,-4.588,-4.5874,-4.5833,-4.5791,-4.5781,-4.575,-4.5703,-4.5682,-4.5648,-4.5603,-4.5594,-4.5594,-4.5594,-4.5594,-4.5594,-4.5594,-4.5594,-4.5594,-4.5594,-4.5594,-4.5594,-4.5594,-4.5594,-4.5594,-4.5556,-4.4739,-4.3904,-4.3069,-4.2151,-4.1281,-4.0518,-4.037,-4.0308,-4.0215,-4.0187,-4.0109,-3.9994,-3.9856,-3.9682,-3.9508,-3.9421,-3.9298,-3.9115,-3.9064,-3.8974,-3.8896,-3.8881,-3.9213,-3.9998,-4.0762,-4.1542,-4.2314,-4.309,-4.3441,-4.3479,-4.3479,-4.3479,-4.3479,-4.3479,-4.3479,-4.3479,-4.3479,-4.3479,-4.3479,-4.348,-4.3428,-4.3394,-4.3286,-4.3178,-4.3031,-4.2881,-4.2767,-4.2688,-4.2607,-4.247,-4.2331,-4.2246,-4.2139,-4.1973,-4.1823,-4.167,-4.1498,-4.1398,-4.1256,-4.1123,-4.0959,-4.0776,-4.0551,-4.0379,-4.0213,-4.0163,-4.0138,-4.0138,-4.0113,-4.0113,-4.0113,-4.0113,-4.0087,-4.0062,-4.0028,-3.9961,-3.9858,-3.9772,-3.9616,-3.9432,-5.138,-5.134,-5.1326,-5.0318,-4.8799,-4.8716,-4.7693,-4.6183,-4.6032,-4.6002,-4.5947,-4.5943,-4.5906,-4.5848,-4.5826,-4.5791,-4.5746,-4.5727,-4.5706,-4.5637,-4.5603,-4.5594,-4.5594,-4.5594,-4.5594,-4.5594,-4.5594,-4.5594,-4.5594,-4.5594,-4.5594,-4.5594,-4.5594,-4.5594,-4.5556,-4.5047,-4.4278,-4.3201,-4.2522,-4.166,-4.0732,-4.0449,-4.0398,-4.0289,-4.0243,-4.0215,-4.0147,-4.0067,-3.99,-3.967,-3.9563,-3.9414,-3.9237,-3.9215,-3.9133,-3.9063,-3.933,-3.9797,-4.0532,-4.1338,-4.2062,-4.282,-4.3306,-4.3531,-4.3531,-4.3532,-4.3479,-4.3479,-4.3479,-4.3479,-4.3479,-4.3479,-4.3479,-4.3479,-4.3479,-4.348,-4.341,-4.334,-4.3269,-4.3196,-4.3105,-4.2975,-4.2918,-4.2803,-4.2688,-4.257,-4.247,-4.2369,-4.2228,-4.2082,-4.1934,-4.178,-4.1582,-4.1466,-4.1307,-4.1146,-4.0965,-4.0752,-4.0551,-4.0362,-4.0238,-4.0213,-4.0188,-4.0138,-4.0113,-4.0113,-4.0113,-4.0113,-4.0087,-4.0062,-4.0011,-3.9961,-3.9858,-3.9798,-3.9616,-5.1403,-5.14,-5.1339,-5.0316,-4.8854,-4.8642,-4.763,-4.6248,-4.6091,-4.6075,-4.6017,-4.5997,-4.5969,-4.5917,-4.5899,-4.586,-4.5807,-4.5783,-4.5765,-4.5711,-4.5654,-4.5612,-4.5594,-4.5594,-4.5594,-4.5594,-4.5594,-4.5594,-4.5594,-4.5594,-4.5594,-4.5594,-4.5594,-4.5594,-4.5575,-4.5575,-4.4748,-4.347,-4.3104,-4.2214,-4.074,-4.051,-4.0485,-4.0388,-4.0353,-4.0289,-4.0205,-4.0177,-4.0087,-3.9889,-3.9665,-3.9489,-3.9401,-3.9406,-3.9315,-3.9184,-3.9928,-4.0585,-4.1314,-4.2004,-4.2839,-4.3564,-4.361,-4.3617,-4.3617,-4.3583,-4.3549,-4.3513,-4.3496,-4.3496,-4.3515,-4.3479,-4.3479,-4.3479,-4.3479,-4.3497,-4.3497,-4.341,-4.3376,-4.3358,-4.3269,-4.3178,-4.3104,-4.2975,-4.2899,-4.2804,-4.2688,-4.2571,-4.2452,-4.2348,-4.2267,-4.2061,-4.1827,-4.1648,-4.1515,-4.138,-4.1198,-4.0989,-4.0752,-4.0558,-4.0362,-4.0288,-4.0213,-4.0163,-4.0113,-4.0096,-4.0113,-4.0113,-4.0113,-4.0087,-4.0062,-4.0011,-3.9961,-3.9901,-3.9798,-5.1389,-5.132,-5.0707,-4.9799,-4.8772,-4.8112,-4.7219,-4.6248,-4.6173,-4.6131,-4.6083,-4.6066,-4.6037,-4.6,-4.5966,-4.5925,-4.5874,-4.5826,-4.581,-4.5765,-4.5719,-4.5654,-4.5603,-4.5594,-4.5594,-4.5594,-4.5594,-4.5594,-4.5594,-4.5594,-4.5594,-4.5594,-4.5594,-4.5594,-4.5594,-4.5594,-4.5056,-4.4028,-4.3335,-4.2604,-4.155,-4.0781,-4.0495,-4.0485,-4.0449,-4.0388,-4.0289,-4.0225,-4.0098,-3.9911,-3.9735,-3.9606,-3.9502,-3.9483,-3.9439,-3.9472,-4.0103,-4.0864,-4.1564,-4.234,-4.3076,-4.3754,-4.3802,-4.3736,-4.3754,-4.3719,-4.3667,-4.3599,-4.3565,-4.3548,-4.3513,-4.3515,-4.3496,-4.3479,-4.3479,-4.3479,-4.3479,-4.3497,-4.3464,-4.3412,-4.3376,-4.3305,-4.3215,-4.3142,-4.3087,-4.3012,-4.2899,-4.2786,-4.2688,-4.2589,-4.249,-4.231,-4.2103,-4.1892,-4.1697,-4.1582,-4.1408,-4.1203,-4.1012,-4.0817,-4.0558,-4.0362,-4.0263,-4.0121,-4.0121,-4.0121,-4.0096,-4.0113,-4.0113,-4.0113,-4.0087,-4.0062,-4.0037,-3.9977,-3.9901,-5.1399,-5.1316,-5.0471,-4.9627,-4.8781,-4.7869,-4.7018,-4.6345,-4.6209,-4.617,-4.615,-4.6142,-4.6113,-4.6047,-4.6016,-4.5997,-4.5923,-4.5874,-4.5854,-4.5831,-4.5761,-4.5703,-4.5657,-4.5603,-4.5594,-4.5594,-4.5594,-4.5594,-4.5594,-4.5594,-4.5594,-4.5594,-4.5594,-4.5594,-4.5594,-4.5575,-4.5171,-4.4316,-4.3508,-4.2681,-4.1816,-4.095,-4.0558,-4.0487,-4.0491,-4.0449,-4.0334,-4.0243,-4.0118,-3.9986,-3.9848,-3.9747,-3.967,-3.9599,-3.9557,-3.9552,-4.0525,-4.1407,-4.188,-4.2779,-4.3595,-4.3943,-4.3963,-4.3881,-4.3867,-4.3835,-4.3753,-4.3684,-4.3684,-4.3669,-4.3635,-4.3583,-4.3532,-4.3496,-4.3479,-4.3479,-4.3479,-4.3479,-4.348,-4.3464,-4.3428,-4.3411,-4.3286,-4.3287,-4.3233,-4.316,-4.3068,-4.2994,-4.2918,-4.2804,-4.2688,-4.255,-4.2351,-4.2124,-4.1973,-4.1845,-4.1626,-4.1408,-4.1203,-4.1035,-4.0752,-4.051,-4.0362,-4.0221,-4.0196,-4.0146,-4.0138,-4.0113,-4.0113,-4.0113,-4.0113,-4.0113,-4.0062,-4.0037,-4.0003,-5.1384,-5.1321,-5.0383,-4.9563,-4.8778,-4.7811,-4.6926,-4.6376,-4.624,-4.6223,-4.6209,-4.6213,-4.6169,-4.6107,-4.6075,-4.6012,-4.5997,-4.5927,-4.5893,-4.5886,-4.5824,-4.575,-4.5706,-4.5648,-4.5612,-4.5603,-4.5594,-4.5594,-4.5594,-4.5594,-4.5594,-4.5594,-4.5594,-4.5594,-4.5594,-4.5594,-4.5171,-4.4489,-4.3566,-4.2816,-4.2008,-4.1104,-4.0527,-4.05,-4.0499,-4.0485,-4.0407,-4.0308,-4.0196,-4.0118,-4.0005,-3.9911,-3.9889,-3.9781,-3.9814,-4.0063,-4.1111,-4.1967,-4.2294,-4.346,-4.4258,-4.427,-4.4113,-4.4036,-4.4023,-4.3929,-4.3869,-4.3818,-4.382,-4.3804,-4.3771,-4.3667,-4.3617,-4.3566,-4.3549,-4.3496,-4.3515,-4.3515,-4.3479,-4.3479,-4.3479,-4.3463,-4.3429,-4.3394,-4.3358,-4.3269,-4.3196,-4.3142,-4.3068,-4.2956,-4.2861,-4.2765,-4.257,-4.2351,-4.2246,-4.2139,-4.1884,-4.1604,-4.1408,-4.1203,-4.0942,-4.0704,-4.051,-4.0387,-4.0313,-4.0238,-4.0188,-4.0163,-4.0138,-4.0113,-4.0113,-4.0113,-4.0113,-4.0087,-4.0037,-5.1386,-5.1267,-4.9782,-4.9058,-4.8663,-4.7236,-4.6471,-4.6309,-4.628,-4.6269,-4.6258,-4.6223,-4.6203,-4.6173,-4.6154,-4.613,-4.6056,-4.5997,-4.5941,-4.59,-4.5833,-4.5791,-4.577,-4.5714,-4.5693,-4.5676,-4.5631,-4.5594,-4.5594,-4.5594,-4.5594,-4.5594,-4.5594,-4.5594,-4.5594,-4.5594,-4.5537,-4.5066,-4.3874,-4.3047,-4.2527,-4.1258,-4.0496,-4.0489,-4.0495,-4.0502,-4.0477,-4.0407,-4.0335,-4.0234,-4.0128,-4.0046,-3.9994,-3.9968,-4.0185,-4.0802,-4.1599,-4.2461,-4.3079,-4.3839,-4.4444,-4.4383,-4.4296,-4.4222,-4.4222,-4.415,-4.4058,-4.3976,-4.3913,-4.3883,-4.382,-4.3788,-4.3736,-4.3703,-4.3634,-4.36,-4.3565,-4.3513,-4.3496,-4.3479,-4.3479,-4.3497,-4.3498,-4.3463,-4.3428,-4.3358,-4.3304,-4.3286,-4.3196,-4.3105,-4.3012,-4.2955,-4.2765,-4.2552,-4.2432,-4.2308,-4.2058,-4.1823,-4.1631,-4.1431,-4.1157,-4.0965,-4.0799,-4.0583,-4.0379,-4.033,-4.0288,-4.0163,-4.0138,-4.0138,-4.0113,-4.0113,-4.0113,-4.0113,-4.0113,-5.1386,-5.123,-4.9609,-4.8886,-4.8611,-4.7086,-4.6303,-4.6301,-4.6295,-4.6288,-4.63,-4.6249,-4.6233,-4.6231,-4.6209,-4.6177,-4.6122,-4.6047,-4.5975,-4.5943,-4.5861,-4.586,-4.5819,-4.5781,-4.5754,-4.5695,-4.5651,-4.5654,-4.5648,-4.564,-4.5631,-4.5594,-4.5594,-4.5594,-4.5594,-4.5594,-4.5594,-4.5267,-4.397,-4.3085,-4.2835,-4.1439,-4.0496,-4.0496,-4.0492,-4.0495,-4.0495,-4.0466,-4.0432,-4.037,-4.029,-4.0206,-4.0231,-4.0427,-4.0829,-4.1282,-4.2382,-4.3011,-4.363,-4.4176,-4.46,-4.4551,-4.4482,-4.4444,-4.4387,-4.4329,-4.4255,-4.418,-4.4101,-4.4039,-4.3897,-4.3851,-4.3835,-4.3769,-4.3736,-4.3684,-4.3667,-4.3583,-4.3479,-4.3479,-4.3479,-4.3479,-4.3479,-4.3479,-4.3479,-4.3428,-4.3428,-4.3393,-4.334,-4.3251,-4.3196,-4.3105,-4.2937,-4.2767,-4.2632,-4.2452,-4.2225,-4.2037,-4.1888,-4.1675,-4.1448,-4.1267,-4.1129,-4.0847,-4.0583,-4.0461,-4.0412,-4.0313,-4.0213,-4.0188,-4.0188,-4.0138,-4.0113,-4.0113,-4.0113,-5.1328,-5.1094,-4.9551,-4.8828,-4.8457,-4.6991,-4.6288,-4.6306,-4.6304,-4.63,-4.6294,-4.6306,-4.6277,-4.6282,-4.6231,-4.6209,-4.6162,-4.6098,-4.6047,-4.6016,-4.5947,-4.5931,-4.5893,-4.5854,-4.5812,-4.5727,-4.5708,-4.5703,-4.5679,-4.569,-4.5673,-4.562,-4.562,-4.5629,-4.562,-4.5603,-4.5631,-4.5419,-4.419,-4.3239,-4.2931,-4.1593,-4.0823,-4.0496,-4.0496,-4.0489,-4.05,-4.0495,-4.0491,-4.0502,-4.0556,-4.0535,-4.0645,-4.0958,-4.1651,-4.1785,-4.3099,-4.3715,-4.4066,-4.4498,-4.4783,-4.4738,-4.4672,-4.4592,-4.4542,-4.4487,-4.4401,-4.4344,-4.4285,-4.4211,-4.4051,-4.4023,-4.3947,-4.3883,-4.3853,-4.3837,-4.3769,-4.3634,-4.3566,-4.3532,-4.3513,-4.3531,-4.3496,-4.3479,-4.3479,-4.3479,-4.3479,-4.348,-4.3429,-4.3394,-4.3305,-4.3251,-4.3087,-4.2919,-4.2768,-4.265,-4.243,-4.2228,-4.2121,-4.1931,-4.1714,-4.1515,-4.1312,-4.1059,-4.0823,-4.0704,-4.0558,-4.0461,-4.0362,-4.033,-4.0288,-4.0263,-4.0213,-4.0138,-4.0104,-5.1016,-5.0312,-4.9316,-4.8496,-4.7734,-4.6719,-4.6289,-4.6288,-4.6306,-4.6305,-4.6301,-4.6294,-4.6288,-4.6296,-4.6284,-4.6259,-4.6206,-4.6154,-4.6126,-4.6085,-4.6026,-4.5994,-4.598,-4.5931,-4.5886,-4.5848,-4.5778,-4.5723,-4.57,-4.5692,-4.5711,-4.5684,-4.5676,-4.5676,-4.5668,-4.5671,-4.5673,-4.5549,-4.4562,-4.3775,-4.2967,-4.1978,-4.1054,-4.0573,-4.0496,-4.0496,-4.0516,-4.0508,-4.0503,-4.0559,-4.1135,-4.1419,-4.1549,-4.1619,-4.2249,-4.3155,-4.373,-4.4246,-4.4688,-4.4858,-4.4931,-4.487,-4.4808,-4.4732,-4.4685,-4.4587,-4.4537,-4.4473,-4.4387,-4.43,-4.427,-4.4207,-4.4195,-4.4119,-4.4042,-4.3961,-4.3899,-4.3818,-4.3719,-4.3632,-4.3615,-4.3565,-4.3548,-4.3531,-4.3513,-4.3513,-4.3496,-4.3496,-4.3463,-4.3429,-4.3394,-4.3323,-4.3251,-4.3068,-4.2919,-4.2804,-4.2647,-4.2452,-4.231,-4.2205,-4.1956,-4.1736,-4.1493,-4.1312,-4.1082,-4.0871,-4.0752,-4.0607,-4.051,-4.0461,-4.0436,-4.0336,-4.0167,-3.9974,-4.0001,-5.0918,-5.0117,-4.9277,-4.8398,-4.7539,-4.666,-4.6289,-4.6289,-4.6289,-4.6288,-4.6305,-4.6302,-4.6299,-4.6291,-4.63,-4.6258,-4.6212,-4.6213,-4.6192,-4.6134,-4.6069,-4.6042,-4.6046,-4.6025,-4.5997,-4.5949,-4.5867,-4.58,-4.5757,-4.5749,-4.5727,-4.5688,-4.5688,-4.5688,-4.568,-4.5684,-4.5695,-4.5514,-4.4842,-4.4005,-4.3092,-4.1959,-4.0954,-4.065,-4.0516,-4.0496,-4.0593,-4.1027,-4.1154,-4.1349,-4.1975,-4.2563,-4.2855,-4.306,-4.3283,-4.4029,-4.4447,-4.4758,-4.5115,-4.5148,-4.508,-4.5003,-4.4967,-4.4919,-4.4877,-4.4802,-4.4712,-4.4619,-4.4524,-4.4426,-4.4397,-4.4368,-4.4314,-4.4255,-4.4195,-4.4131,-4.4085,-4.4026,-4.3929,-4.3798,-4.3767,-4.3718,-4.3651,-4.3634,-4.3565,-4.3531,-4.3532,-4.3496,-4.3496,-4.3463,-4.3429,-4.3411,-4.334,-4.3233,-4.305,-4.2956,-4.286,-4.2688,-4.2532,-4.2391,-4.2267,-4.2019,-4.1866,-4.1692,-4.1426,-4.1013,-4.0924,-4.0806,-4.071,-4.0487,-4.0148,-3.987,-3.9839,-3.9783,-3.9734,-5.0683,-4.9863,-4.9004,-4.8144,-4.7305,-4.6601,-4.6289,-4.6289,-4.6289,-4.6289,-4.6288,-4.6287,-4.6305,-4.6301,-4.6291,-4.6275,-4.6216,-4.622,-4.6225,-4.6187,-4.6146,-4.6119,-4.6113,-4.611,-4.6071,-4.6016,-4.6,-4.5935,-4.5848,-4.5808,-4.5793,-4.5771,-4.5742,-4.5734,-4.5769,-4.5734,-4.5739,-4.5511,-4.511,-4.428,-4.3049,-4.1735,-4.0723,-4.0616,-4.0685,-4.0839,-4.0974,-4.1651,-4.2008,-4.2288,-4.2854,-4.3605,-4.4201,-4.4455,-4.4534,-4.4585,-4.5093,-4.5302,-4.5338,-4.5288,-4.5205,-4.5148,-4.5136,-4.5084,-4.5014,-4.4931,-4.4858,-4.4789,-4.4685,-4.4619,-4.4565,-4.4528,-4.444,-4.4368,-4.4358,-4.4329,-4.4285,-4.4226,-4.415,-4.4039,-4.3947,-4.3851,-4.3802,-4.3738,-4.3686,-4.3634,-4.36,-4.3548,-4.3531,-4.3496,-4.3463,-4.3463,-4.341,-4.3358,-4.3214,-4.3105,-4.2994,-4.2899,-4.2747,-4.2611,-4.2472,-4.231,-4.2145,-4.1924,-4.137,-4.1003,-4.0988,-4.0782,-4.0372,-4.0002,-3.9604,-3.9356,-3.9305,-3.92,-3.9112,-4.9844,-4.8984,-4.8125,-4.7246,-4.6523,-4.6348,-4.6289,-4.6289,-4.6289,-4.6289,-4.6289,-4.6288,-4.6287,-4.6305,-4.6297,-4.6287,-4.6277,-4.6267,-4.6255,-4.622,-4.6206,-4.6187,-4.6165,-4.6111,-4.6115,-4.6089,-4.6084,-4.6007,-4.5916,-4.5892,-4.5893,-4.588,-4.5874,-4.5861,-4.5861,-4.5814,-4.5773,-4.5759,-4.5592,-4.4751,-4.3373,-4.2293,-4.1429,-4.1106,-4.1316,-4.1724,-4.1832,-4.2483,-4.292,-4.3036,-4.372,-4.4182,-4.4393,-4.5047,-4.5355,-4.5416,-4.5447,-4.5419,-4.54,-4.5361,-4.5321,-4.5277,-4.5267,-4.5222,-4.5125,-4.5026,-4.4998,-4.4967,-4.4865,-4.4789,-4.4745,-4.4693,-4.4627,-4.4565,-4.451,-4.4454,-4.4411,-4.4401,-4.431,-4.4266,-4.4177,-4.4026,-4.3899,-4.3853,-4.3771,-4.3738,-4.3686,-4.3634,-4.3565,-4.3548,-4.3513,-4.3515,-4.348,-4.3411,-4.3358,-4.3233,-4.316,-4.3105,-4.2975,-4.2824,-4.2689,-4.2514,-4.2302,-4.2014,-4.1416,-4.0732,-4.0362,-4.008,-3.9817,-3.951,-3.9138,-3.8893,-3.8722,-3.8614,-3.8505,-4.8495,-4.8144,-4.7754,-4.7109,-4.6328,-4.6289,-4.6289,-4.6289,-4.6289,-4.6289,-4.6289,-4.6289,-4.6288,-4.6306,-4.6303,-4.6301,-4.6294,-4.6305,-4.6277,-4.6247,-4.6255,-4.6242,-4.6209,-4.618,-4.6167,-4.6153,-4.6146,-4.6103,-4.6027,-4.6002,-4.6,-4.5978,-4.5966,-4.5949,-4.596,-4.5893,-4.5848,-4.5693,-4.5311,-4.4715,-4.394,-4.3127,-4.2449,-4.208,-4.2452,-4.2591,-4.2815,-4.3381,-4.38,-4.3965,-4.4592,-4.5028,-4.5086,-4.5383,-4.5575,-4.5566,-4.554,-4.5504,-4.5467,-4.5419,-4.5381,-4.538,-4.537,-4.531,-4.5205,-4.5159,-4.5103,-4.5038,-4.5003,-4.4955,-4.4919,-4.4883,-4.4827,-4.4751,-4.4667,-4.4627,-4.4578,-4.451,-4.4468,-4.444,-4.4397,-4.4237,-4.4085,-4.4008,-4.3947,-4.3867,-4.3802,-4.3736,-4.3667,-4.3634,-4.36,-4.3565,-4.3515,-4.3481,-4.3428,-4.3358,-4.3323,-4.3251,-4.3178,-4.3013,-4.2881,-4.2711,-4.2467,-4.2006,-4.1381,-4.0648,-3.9866,-3.9556,-3.9448,-3.9058,-3.8659,-3.8395,-3.817,-3.8044,-3.8055,-4.7496,-4.7265,-4.7285,-4.6894,-4.6328,-4.6289,-4.6289,-4.6289,-4.6289,-4.6289,-4.6289,-4.6289,-4.6289,-4.6288,-4.6287,-4.6305,-4.6303,-4.6299,-4.6293,-4.6306,-4.63,-4.6271,-4.624,-4.6236,-4.6226,-4.6212,-4.6186,-4.6154,-4.613,-4.6099,-4.6089,-4.6042,-4.6026,-4.6016,-4.6025,-4.5983,-4.5941,-4.5872,-4.5408,-4.4951,-4.4479,-4.395,-4.3497,-4.3327,-4.3402,-4.355,-4.3651,-4.4288,-4.4715,-4.4861,-4.5192,-4.5503,-4.5563,-4.5582,-4.5622,-4.5603,-4.5577,-4.5568,-4.5541,-4.5495,-4.5457,-4.5429,-4.54,-4.5361,-4.532,-4.5277,-4.5235,-4.5173,-4.514,-4.5114,-4.5068,-4.5026,-4.4986,-4.4926,-4.4846,-4.4808,-4.4757,-4.468,-4.4646,-4.4619,-4.4565,-4.4496,-4.435,-4.4218,-4.4113,-4.4026,-4.3931,-4.3869,-4.3786,-4.3736,-4.3703,-4.3651,-4.3583,-4.3532,-4.3497,-4.3463,-4.3446,-4.3376,-4.3305,-4.3196,-4.3031,-4.2811,-4.2571,-4.2024,-4.1278,-4.0426,-3.9539,-3.9323,-3.9047,-3.8453,-3.7965,-3.7793,-3.762,-3.7516,-3.7611,-4.7122,-4.638,-4.6403,-4.6385,-4.6288,-4.6289,-4.6289,-4.6289,-4.6289,-4.6289,-4.6289,-4.6289,-4.6289,-4.6289,-4.6288,-4.6287,-4.6306,-4.6303,-4.6301,-4.6301,-4.63,-4.6291,-4.6284,-4.6277,-4.6271,-4.6214,-4.6216,-4.6211,-4.6203,-4.6195,-4.6157,-4.6102,-4.6093,-4.6089,-4.608,-4.6061,-4.6021,-4.5994,-4.5759,-4.5411,-4.5019,-4.4594,-4.4285,-4.3847,-4.4124,-4.4476,-4.446,-4.5106,-4.5449,-4.5468,-4.5587,-4.5668,-4.5662,-4.5654,-4.5646,-4.5629,-4.562,-4.5612,-4.5586,-4.5587,-4.5559,-4.5495,-4.5457,-4.541,-4.54,-4.539,-4.538,-4.5339,-4.5288,-4.5246,-4.5192,-4.5136,-4.5114,-4.5068,-4.5033,-4.4974,-4.4907,-4.4846,-4.4796,-4.477,-4.4719,-4.4667,-4.4587,-4.4458,-4.4306,-4.4226,-4.4089,-4.4011,-4.3899,-4.3835,-4.3802,-4.3753,-4.3667,-4.3617,-4.3565,-4.3531,-4.348,-4.3446,-4.3394,-4.3304,-4.3196,-4.2941,-4.2523,-4.1705,-4.089,-4.0058,-3.9301,-3.8954,-3.8463,-3.7705,-3.7306,-3.7439,-3.7334,-3.7193,-3.7293,-4.6571,-4.6303,-4.6291,-4.6299,-4.6305,-4.6288,-4.6288,-4.6289,-4.6289,-4.6289,-4.6289,-4.6289,-4.6289,-4.6289,-4.6289,-4.6289,-4.6289,-4.6307,-4.6306,-4.6305,-4.6302,-4.63,-4.6295,-4.6294,-4.6293,-4.6267,-4.6246,-4.6261,-4.6271,-4.6269,-4.6211,-4.6183,-4.6164,-4.6176,-4.6165,-4.6123,-4.6089,-4.6081,-4.6056,-4.5827,-4.5719,-4.5506,-4.5328,-4.5128,-4.5111,-4.5389,-4.5407,-4.5585,-4.5711,-4.5746,-4.5731,-4.5708,-4.5692,-4.5684,-4.5695,-4.5671,-4.5651,-4.5635,-4.5629,-4.5631,-4.5586,-4.5568,-4.5504,-4.5467,-4.5467,-4.5429,-4.5419,-4.539,-4.539,-4.5341,-4.533,-4.5279,-4.5267,-4.5224,-4.517,-4.5125,-4.5061,-4.5003,-4.4967,-4.4955,-4.4907,-4.4858,-4.4783,-4.4719,-4.4551,-4.4401,-4.4266,-4.4147,-4.4058,-4.3963,-4.3931,-4.3867,-4.3783,-4.3684,-4.3649,-4.3582,-4.3531,-4.3497,-4.3481,-4.3393,-4.3267,-4.2647,-4.2157,-4.134,-4.0507,-3.9658,-3.8974,-3.8509,-3.8062,-3.7648,-3.7429,-3.7389,-3.72,-3.7007,-3.7093,-4.6228,-4.626,-4.6269,-4.6285,-4.63,-4.6304,-4.6306,-4.6306,-4.6288,-4.6289,-4.6289,-4.6289,-4.6289,-4.6289,-4.6289,-4.6289,-4.6289,-4.6289,-4.6288,-4.6288,-4.6306,-4.6305,-4.6304,-4.6303,-4.6301,-4.6302,-4.6301,-4.6296,-4.6288,-4.6288,-4.6262,-4.6251,-4.624,-4.6233,-4.6186,-4.6151,-4.6126,-4.6127,-4.6126,-4.6128,-4.606,-4.6003,-4.5991,-4.5908,-4.5856,-4.5826,-4.5815,-4.5835,-4.5808,-4.5807,-4.5786,-4.5749,-4.5734,-4.5719,-4.5712,-4.5696,-4.568,-4.5692,-4.5679,-4.5629,-4.5594,-4.5586,-4.5568,-4.5541,-4.5513,-4.5466,-4.5476,-4.5429,-4.5429,-4.5419,-4.5429,-4.537,-4.5351,-4.531,-4.529,-4.5258,-4.5216,-4.5154,-4.5151,-4.5148,-4.5061,-4.4979,-4.4931,-4.4846,-4.4693,-4.4537,-4.443,-4.431,-4.424,-4.4165,-4.407,-4.4026,-4.3931,-4.3816,-4.3718,-4.3684,-4.3651,-4.3548,-4.3532,-4.348,-4.3226,-4.2604,-4.1912,-4.117,-4.03,-3.9319,-3.8761,-3.8407,-3.8128,-3.781,-3.7667,-3.7522,-3.7411,-3.7222,-3.7068,-4.6212,-4.6206,-4.6206,-4.6249,-4.6291,-4.63,-4.6301,-4.6301,-4.6306,-4.6288,-4.6289,-4.6289,-4.6289,-4.6289,-4.6289,-4.6289,-4.6289,-4.6289,-4.6289,-4.6289,-4.6289,-4.6289,-4.6288,-4.6306,-4.6306,-4.6302,-4.6303,-4.6303,-4.6301,-4.63,-4.6299,-4.6297,-4.6273,-4.6264,-4.6211,-4.6206,-4.6198,-4.6203,-4.6183,-4.6146,-4.6111,-4.6106,-4.6108,-4.6085,-4.6042,-4.5997,-4.5978,-4.5955,-4.5911,-4.5886,-4.5886,-4.5854,-4.5807,-4.578,-4.5778,-4.5739,-4.5723,-4.5715,-4.57,-4.5646,-4.5631,-4.5603,-4.5594,-4.5594,-4.5586,-4.5577,-4.554,-4.5504,-4.5504,-4.5476,-4.5448,-4.541,-4.54,-4.539,-4.5371,-4.5351,-4.5311,-4.5281,-4.5269,-4.5267,-4.5181,-4.5091,-4.5038,-4.4967,-4.4821,-4.4685,-4.457,-4.4487,-4.4416,-4.4329,-4.4237,-4.4162,-4.407,-4.3961,-4.3881,-4.3818,-4.3769,-4.3667,-4.3582,-4.3566,-4.3166,-4.2509,-4.1799,-4.1052,-4.0087,-3.9069,-3.8688,-3.8401,-3.8186,-3.8001,-3.7827,-3.7703,-3.7595,-3.7466,-3.7317,-4.6142,-4.6141,-4.619,-4.6212,-4.6236,-4.63,-4.629,-4.6291,-4.6301,-4.6306,-4.6288,-4.6288,-4.6289,-4.6289,-4.6289,-4.6289,-4.6289,-4.6289,-4.6289,-4.6289,-4.6289,-4.6289,-4.6289,-4.6289,-4.6289,-4.6289,-4.6289,-4.6287,-4.6305,-4.6305,-4.6304,-4.6302,-4.6302,-4.6294,-4.6278,-4.6269,-4.6243,-4.6203,-4.6195,-4.6189,-4.6183,-4.6187,-4.6169,-4.6146,-4.6087,-4.6056,-4.6061,-4.6021,-4.6,-4.5972,-4.5966,-4.5943,-4.5886,-4.5861,-4.5841,-4.5834,-4.5821,-4.5817,-4.5773,-4.5711,-4.5671,-4.5673,-4.5657,-4.5648,-4.5622,-4.5594,-4.5586,-4.5577,-4.5559,-4.5531,-4.555,-4.5495,-4.5457,-4.5448,-4.5429,-4.54,-4.5371,-4.5371,-4.5351,-4.5361,-4.53,-4.5235,-4.5162,-4.5106,-4.4979,-4.4889,-4.4776,-4.4632,-4.4551,-4.4487,-4.4397,-4.4325,-4.4237,-4.4131,-4.4023,-4.3995,-4.3883,-4.3767,-4.3701,-4.3686,-4.3157,-4.2483,-4.177,-4.1058,-3.9946,-3.8873,-3.8658,-3.8446,-3.8366,-3.8219,-3.8052,-3.7898,-3.7793,-3.7685,-3.7522,-4.608,-4.6106,-4.6142,-4.6162,-4.6167,-4.6233,-4.6275,-4.6302,-4.6295,-4.6301,-4.6305,-4.6306,-4.6288,-4.6289,-4.6289,-4.6289,-4.6289,-4.6289,-4.6289,-4.6289,-4.6289,-4.6289,-4.6289,-4.6289,-4.6289,-4.6289,-4.6289,-4.6289,-4.6288,-4.6288,-4.6288,-4.6306,-4.6289,-4.6303,-4.6296,-4.629,-4.6285,-4.6255,-4.6249,-4.626,-4.6233,-4.6223,-4.6206,-4.6174,-4.6157,-4.6135,-4.6126,-4.6104,-4.6085,-4.6056,-4.6035,-4.6005,-4.5989,-4.5978,-4.5947,-4.5949,-4.5912,-4.5893,-4.5833,-4.5817,-4.5781,-4.5723,-4.573,-4.5682,-4.5648,-4.564,-4.5622,-4.5614,-4.5594,-4.5594,-4.5586,-4.5531,-4.5522,-4.5513,-4.5504,-4.5476,-4.5476,-4.5467,-4.5448,-4.5458,-4.54,-4.533,-4.5269,-4.5235,-4.5159,-4.508,-4.4998,-4.4865,-4.4725,-4.4632,-4.4551,-4.4482,-4.4411,-4.431,-4.4222,-4.4147,-4.4039,-4.3881,-4.3832,-4.3816,-4.3201,-4.2527,-4.1811,-4.0988,-3.9819,-3.8927,-3.8685,-3.8512,-3.8446,-3.8382,-3.8269,-3.8138,-3.8003,-3.7863,-3.7721,-4.603,-4.609,-4.6076,-4.6095,-4.6106,-4.6161,-4.6219,-4.63,-4.6288,-4.6296,-4.6301,-4.6305,-4.6306,-4.6288,-4.6289,-4.6289,-4.6289,-4.6289,-4.6289,-4.6289,-4.6289,-4.6289,-4.6289,-4.6289,-4.6289,-4.6289,-4.6289,-4.6289,-4.6289,-4.6289,-4.6289,-4.6289,-4.6289,-4.6289,-4.6306,-4.6303,-4.6301,-4.6274,-4.6287,-4.6282,-4.6278,-4.6225,-4.6236,-4.6206,-4.6212,-4.6196,-4.616,-4.6123,-4.6103,-4.6106,-4.6098,-4.6104,-4.611,-4.61,-4.607,-4.6008,-4.5955,-4.5943,-4.5918,-4.5906,-4.586,-4.58,-4.5749,-4.5708,-4.5679,-4.5662,-4.5665,-4.564,-4.5612,-4.5603,-4.5586,-4.5586,-4.5586,-4.5577,-4.5577,-4.5568,-4.5568,-4.555,-4.5532,-4.5505,-4.5448,-4.54,-4.5351,-4.532,-4.5277,-4.5246,-4.5151,-4.508,-4.4931,-4.4815,-4.4738,-4.4646,-4.4565,-4.4501,-4.4416,-4.4325,-4.4237,-4.4085,-4.4005,-4.3899,-4.3267,-4.249,-4.1628,-4.0692,-3.9666,-3.8979,-3.8723,-3.8606,-3.8541,-3.8462,-3.8417,-3.8302,-3.8171,-3.8018,-3.7897,-4.5935,-4.5972,-4.6014,-4.6016,-4.6037,-4.6107,-4.618,-4.6219,-4.6271,-4.63,-4.6288,-4.6296,-4.6301,-4.6304,-4.6287,-4.6288,-4.6289,-4.6289,-4.6289,-4.6289,-4.6289,-4.6289,-4.6289,-4.6289,-4.6289,-4.6289,-4.6289,-4.6289,-4.6289,-4.6289,-4.6289,-4.6289,-4.6289,-4.6289,-4.6289,-4.6289,-4.6306,-4.6303,-4.6299,-4.6297,-4.6295,-4.6267,-4.6259,-4.6271,-4.6262,-4.625,-4.6198,-4.617,-4.6157,-4.6164,-4.618,-4.6169,-4.6115,-4.6111,-4.6093,-4.6066,-4.6046,-4.603,-4.5972,-4.5955,-4.5937,-4.5893,-4.5835,-4.5778,-4.5739,-4.5692,-4.5695,-4.5662,-4.5646,-4.5637,-4.5631,-4.5622,-4.5603,-4.5594,-4.5594,-4.5594,-4.5586,-4.5577,-4.5559,-4.555,-4.5495,-4.5476,-4.5429,-4.539,-4.5361,-4.5351,-4.532,-4.5237,-4.5148,-4.4991,-4.4883,-4.4815,-4.4712,-4.4632,-4.457,-4.4482,-4.4397,-4.4292,-4.4218,-4.3901,-4.311,-4.231,-4.1396,-4.0448,-3.9479,-3.9032,-3.8795,-3.8713,-3.8649,-3.8606,-3.8562,-3.8449,-3.8334,-3.8185,-3.8086,-4.588,-4.5874,-4.5925,-4.5986,-4.6011,-4.6047,-4.6099,-4.6164,-4.6237,-4.6258,-4.6271,-4.6303,-4.6291,-4.6295,-4.6302,-4.6305,-4.6305,-4.6306,-4.6289,-4.6289,-4.6289,-4.6289,-4.6289,-4.6289,-4.6289,-4.6289,-4.6289,-4.6289,-4.6289,-4.6289,-4.6289,-4.6289,-4.6289,-4.6289,-4.6289,-4.6289,-4.6289,-4.6287,-4.6305,-4.6305,-4.6302,-4.63,-4.6295,-4.6291,-4.6305,-4.6277,-4.6245,-4.6223,-4.6214,-4.6217,-4.6215,-4.6186,-4.6141,-4.6137,-4.6142,-4.6126,-4.6089,-4.609,-4.6056,-4.6041,-4.6,-4.5953,-4.5935,-4.588,-4.5821,-4.5783,-4.5731,-4.5703,-4.5687,-4.5671,-4.5665,-4.5659,-4.5622,-4.5594,-4.5594,-4.5594,-4.5594,-4.5594,-4.5586,-4.5586,-4.5568,-4.5541,-4.5495,-4.5476,-4.5448,-4.5429,-4.541,-4.5331,-4.5258,-4.5151,-4.5049,-4.4986,-4.4858,-4.4757,-4.4699,-4.4632,-4.4551,-4.4482,-4.4397,-4.3936,-4.305,-4.2106,-4.1173,-4.0265,-3.9345,-3.9065,-3.8881,-3.8833,-3.8788,-3.8747,-3.8686,-3.8624,-3.8512,-3.8366,-3.8252,-4.5783,-4.58,-4.588,-4.5932,-4.5986,-4.6,-4.6037,-4.6085,-4.6162,-4.6186,-4.6206,-4.6269,-4.6278,-4.6282,-4.6294,-4.6299,-4.6301,-4.6302,-4.6305,-4.6306,-4.6306,-4.6288,-4.6289,-4.6289,-4.6289,-4.6289,-4.6289,-4.6289,-4.6289,-4.6289,-4.6289,-4.6289,-4.6289,-4.6289,-4.6289,-4.6289,-4.6289,-4.6289,-4.6288,-4.6288,-4.6306,-4.6305,-4.6302,-4.6302,-4.63,-4.6296,-4.6287,-4.628,-4.6275,-4.6223,-4.6214,-4.6214,-4.6203,-4.6192,-4.6177,-4.6167,-4.615,-4.6131,-4.6106,-4.6108,-4.6081,-4.6037,-4.6025,-4.5972,-4.5905,-4.5834,-4.5791,-4.5739,-4.5723,-4.5711,-4.5698,-4.5682,-4.5654,-4.5629,-4.562,-4.5603,-4.5594,-4.5594,-4.5594,-4.5594,-4.5586,-4.5568,-4.5559,-4.5513,-4.5504,-4.5495,-4.5467,-4.541,-4.5361,-4.5279,-4.5213,-4.5136,-4.5003,-4.4907,-4.487,-4.4796,-4.4712,-4.4632,-4.4508,-4.3825,-4.281,-4.1866,-4.0961,-4.0109,-3.9282,-3.9142,-3.8979,-3.895,-3.8906,-3.8837,-3.8792,-3.878,-3.867,-3.8544,-3.8415,-4.5723,-4.5727,-4.5793,-4.5867,-4.5925,-4.5937,-4.5964,-4.6012,-4.6032,-4.6095,-4.619,-4.622,-4.6236,-4.624,-4.6278,-4.6306,-4.6288,-4.6295,-4.6301,-4.6302,-4.6303,-4.6305,-4.6288,-4.6288,-4.6289,-4.6289,-4.6289,-4.6289,-4.6289,-4.6289,-4.6289,-4.6289,-4.6289,-4.6289,-4.6289,-4.6289,-4.6289,-4.6289,-4.6289,-4.6289,-4.6289,-4.6288,-4.6306,-4.6305,-4.6304,-4.6301,-4.6297,-4.6297,-4.6296,-4.6273,-4.6287,-4.6278,-4.6262,-4.6211,-4.6184,-4.6195,-4.6036,-4.5907,-4.5887,-4.585,-4.5811,-4.5946,-4.5963,-4.6008,-4.5975,-4.5918,-4.5854,-4.5812,-4.5769,-4.5758,-4.5727,-4.5711,-4.5695,-4.5671,-4.5665,-4.562,-4.5603,-4.5594,-4.5594,-4.5594,-4.5594,-4.5594,-4.5586,-4.5586,-4.5577,-4.554,-4.5504,-4.5476,-4.5448,-4.54,-4.533,-4.5237,-4.5136,-4.5057,-4.5014,-4.4955,-4.4858,-4.4537,-4.4304,-4.3491,-4.2521,-4.134,-4.0237,-3.9834,-3.9307,-3.9202,-3.9133,-3.9092,-3.9021,-3.8935,-3.8896,-3.8881,-3.8837,-3.8713,-3.8621,-4.5676,-4.5703,-4.5727,-4.5798,-4.5852,-4.5848,-4.5893,-4.596,-4.5969,-4.6042,-4.6111,-4.616,-4.6206,-4.6212,-4.6258,-4.6267,-4.6271,-4.6303,-4.6288,-4.6293,-4.6297,-4.6301,-4.6304,-4.6305,-4.6306,-4.6289,-4.6289,-4.6289,-4.6289,-4.6289,-4.6289,-4.6289,-4.6289,-4.6289,-4.6289,-4.6289,-4.6289,-4.6289,-4.6289,-4.6289,-4.6289,-4.6289,-4.6289,-4.6288,-4.6289,-4.6289,-4.6305,-4.6305,-4.6303,-4.6301,-4.6297,-4.6295,-4.615,-4.5833,-4.5687,-4.5503,-4.5304,-4.5102,-4.5125,-4.5172,-4.518,-4.5199,-4.5511,-4.5382,-4.5546,-4.5525,-4.5923,-4.5899,-4.5866,-4.5831,-4.5788,-4.5754,-4.5715,-4.5703,-4.5687,-4.5651,-4.5646,-4.5648,-4.5631,-4.5594,-4.5594,-4.5594,-4.5594,-4.5594,-4.5586,-4.5586,-4.554,-4.5531,-4.5513,-4.5495,-4.5429,-4.5361,-4.5277,-4.5203,-4.5189,-4.5103,-4.4991,-4.4609,-4.4106,-4.3037,-4.1957,-4.0597,-3.9533,-3.9489,-3.9439,-3.9375,-3.9304,-3.9237,-3.9129,-3.9031,-3.9007,-3.8997,-3.8935,-3.8892,-3.8788,-4.5682,-4.5682,-4.5703,-4.5743,-4.5781,-4.5798,-4.5814,-4.588,-4.5931,-4.5978,-4.6002,-4.6126,-4.6177,-4.6203,-4.6203,-4.6195,-4.6226,-4.6258,-4.6267,-4.6277,-4.6264,-4.6272,-4.6296,-4.63,-4.6301,-4.6303,-4.6305,-4.6288,-4.6289,-4.6289,-4.6289,-4.6289,-4.6289,-4.6289,-4.6289,-4.6289,-4.6289,-4.6289,-4.6289,-4.6289,-4.6289,-4.6289,-4.6289,-4.6289,-4.6289,-4.6289,-4.6288,-4.6287,-4.6306,-4.6305,-4.6264,-4.6125,-4.587,-4.5457,-4.5043,-4.4821,-4.4389,-4.4106,-4.3958,-4.4048,-4.3921,-4.3947,-4.4436,-4.4766,-4.492,-4.5272,-4.5662,-4.5828,-4.5782,-4.588,-4.5847,-4.5824,-4.5769,-4.5731,-4.5715,-4.57,-4.5695,-4.569,-4.5646,-4.562,-4.5612,-4.5612,-4.5603,-4.5603,-4.5603,-4.5603,-4.5594,-4.5594,-4.5586,-4.554,-4.5495,-4.5448,-4.538,-4.535,-4.5328,-4.5224,-4.5106,-4.4406,-4.376,-4.2599,-4.1457,-4.0344,-3.9689,-3.9611,-3.9563,-3.9502,-3.9458,-3.9395,-3.9277,-3.917,-3.9147,-3.9152,-3.9096,-3.904,-3.8964,-4.5648,-4.5682,-4.569,-4.5722,-4.5715,-4.5704,-4.5769,-4.5814,-4.5847,-4.5867,-4.5929,-4.5994,-4.6071,-4.6111,-4.6135,-4.6153,-4.619,-4.6206,-4.622,-4.6214,-4.6221,-4.6253,-4.6262,-4.6287,-4.6294,-4.6299,-4.6301,-4.6303,-4.6306,-4.6305,-4.6306,-4.6288,-4.6288,-4.6289,-4.6289,-4.6289,-4.6289,-4.6289,-4.6289,-4.6289,-4.6289,-4.6289,-4.6289,-4.6289,-4.6289,-4.6289,-4.6289,-4.6289,-4.6289,-4.6289,-4.6249,-4.5934,-4.5484,-4.5034,-4.4582,-4.3955,-4.3524,-4.3402,-4.3277,-4.3271,-4.3205,-4.3312,-4.3746,-4.3888,-4.4163,-4.463,-4.5001,-4.5302,-4.541,-4.5805,-4.586,-4.588,-4.5866,-4.5778,-4.5757,-4.5719,-4.5708,-4.57,-4.5692,-4.5676,-4.5668,-4.5651,-4.5654,-4.5646,-4.5629,-4.5629,-4.5612,-4.5612,-4.562,-4.5594,-4.5558,-4.555,-4.5505,-4.5448,-4.5381,-4.531,-4.5093,-4.4336,-4.3368,-4.2131,-4.1087,-4.0328,-3.9837,-3.9792,-3.9705,-3.9635,-3.9575,-3.9545,-3.9439,-3.935,-3.9354,-3.9333,-3.9248,-3.9193,-3.9124]},{"header":{"parameterUnit":"m.s-1","parameterCategory":1,"la1":31.0,"la2":29.5877,"lo1":-88.7671,"lo2":-86.6584,"dy":0.0162,"dx":0.0185,"nx":115,"ny":88,"refTime":"2024-06-30T12:00:00:Z","depth":0,"parameterNumber":3,"parameterNumberName":"V-component_of_WINDS"},"data":[0.0,0.0,0.0,0.0,0.0,0.0,0.0,0.0,0.0,0.0,0.0,0.0,0.0,0.0,0.0,0.0,0.0,0.0,0.0,0.0,0.0,0.0,0.0,0.0,0.0,0.0,0.0,0.0,0.0,0.0,0.0,0.0,0.0,0.0,0.0,0.0,0.0,0.0,0.0,0.0,0.0,0.0,0.0,0.0,0.0,0.0,0.0,0.0,0.0,0.0,0.0,0.0,0.0,0.0,0.0,0.0,0.0,0.0,0.0,0.0,0.0,0.0,0.0,0.0,0.0,0.0,0.0,0.0,0.0,0.0,0.0,0.0,0.0,0.0,0.0,0.0,0.0,0.0,0.0,0.0,0.0,0.0,0.0,0.0,0.0,0.0,0.0,0.0,0.0,0.0,0.0,0.0,0.0,0.0,0.0,0.0,0.0,0.0,0.0,0.0,0.0,0.0,0.0,0.0,0.0,0.0,0.0,0.0,0.0,0.0,0.0,0.0,0.0,0.0,0.0,0.0,0.0,0.0,0.0,0.0,0.0,0.0,0.0,0.0,0.0,0.0,0.0,0.0,0.0,0.0,0.0,0.0,0.0,0.0,0.0,0.0,0.0,0.0,0.0,0.0,0.0,0.0,0.0,0.0,0.0,0.0,0.0,0.0,0.0,0.0,0.0,0.0,0.0,0.0,0.0,0.0,0.0,0.0,0.0,0.0,0.0,0.0,0.0,0.0,0.0,0.0,0.0,0.0,0.0,0.0,0.0,0.0,0.0,0.0,0.0,0.0,0.0,0.0,0.0,0.0,0.0,0.0,0.0,0.0,0.0,0.0,0.0,0.0,0.0,0.0,0.0,0.0,0.0,0.0,0.0,0.0,0.0,0.0,0.0,0.0,0.0,0.0,0.0,0.0,0.0,0.0,0.0,0.0,0.0,0.0,0.0,0.0,0.0,0.0,0.0,0.0,0.0,0.0,0.0,0.0,0.0,0.0,0.0,0.0,0.0,0.0,0.0,0.0,0.0,0.0,0.0,0.0,0.0,0.0,0.0,0.0,0.0,0.0,0.0,0.0,0.0,0.0,0.0,0.0,0.0,0.0,0.0,0.0,0.0,0.0,0.0,0.0,0.0,0.0,0.0,0.0,0.0,0.0,0.0,0.0,0.0,0.0,0.0,0.0,0.0,0.0,0.0,0.0,0.0,0.0,0.0,0.0,0.0,0.0,0.0,0.0,0.0,0.0,0.0,0.0,0.0,0.0,0.0,0.0,0.0,0.0,0.0,0.0,0.0,0.0,0.0,0.0,0.0,0.0,0.0,0.0,0.0,0.0,0.0,0.0,0.0,0.0,0.0,0.0,0.0,0.0,0.0,0.0,0.0,0.0,0.0,0.0,0.0,0.0,0.0,0.0,0.0,0.0,0.0,0.0,0.0,0.0,0.0,0.0,0.0,0.0,0.0,0.0,0.0,0.0,0.0,0.0,0.0,0.0,0.0,0.0,0.0,0.0,0.0,0.0,0.0,0.0,0.0,0.0,0.0,0.0,0.0,0.0,0.0,0.0,0.0,0.0,0.0,0.0,0.0,0.0,0.0,0.0,0.0,0.0,0.0,0.0,0.0,0.0,0.0,0.0,0.0,0.0,0.0,0.0,0.0,0.0,0.0,0.0,0.0,0.0,0.0,0.0,0.0,0.0,0.0,0.0,0.0,0.0,0.0,0.0,0.0,0.0,0.0,0.0,0.0,0.0,0.0,0.0,0.0,0.0,0.0,0.0,0.0,0.0,0.0,0.0,0.0,0.0,0.0,0.0,0.0,0.0,0.0,0.0,0.0,0.0,0.0,0.0,0.0,0.0,0.0,0.0,0.0,0.0,0.0,0.0,0.0,0.0,0.0,0.0,0.0,0.0,0.0,0.0,0.0,0.0,0.0,0.0,0.0,0.0,0.0,0.0,0.0,0.0,0.0,0.0,0.0,0.0,0.0,0.0,0.0,0.0,0.0,0.0,0.0,0.0,0.0,0.0,0.0,0.0,0.0,0.0,0.0,0.0,0.0,0.0,0.0,0.0,0.0,0.0,0.0,0.0,0.0,0.0,0.0,0.0,0.0,0.0,0.0,0.0,0.0,0.0,0.0,0.0,0.0,0.0,0.0,0.0,0.0,0.0,0.0,0.0,0.0,0.0,0.0,0.0,0.0,0.0,0.0,0.0,0.0,0.0,0.0,0.0,0.0,0.0,0.0,0.0,0.0,0.0,0.0,0.0,0.0,0.0,0.0,0.0,0.0,0.0,0.0,0.0,0.0,0.0,0.0,0.0,0.0,0.0,0.0,0.0,0.0,0.0,0.0,0.0,0.0,0.0,0.0,0.0,0.0,0.0,0.0,0.0,0.0,0.0,0.0,0.0,0.0,0.0,0.0,0.0,0.0,0.0,0.0,0.0,0.0,0.0,0.0,0.0,0.0,0.0,0.0,0.0,0.0,0.0,0.0,0.0,0.0,0.0,0.0,0.0,0.0,0.0,0.0,0.0,0.0,0.0,0.0,0.0,0.0,0.0,0.0,0.0,0.0,0.0,0.0,0.0,0.0,0.0,0.0,0.0,0.0,0.0,0.0,0.0,0.0,0.0,0.0,0.0,0.0,0.0,0.0,0.0,0.0,0.0,0.0,0.0,0.0,0.0,0.0,0.0,0.0,0.0,0.0,0.0,0.0,0.0,0.0,0.0,0.0,0.0,0.0,0.0,0.0,0.0,0.0,0.0,0.0,0.0,0.0,0.0,0.0,0.0,0.0,0.0,0.0,0.0,0.0,0.0,0.0,0.0,0.0,0.0,0.0,0.0,0.0,0.0,0.0,0.0,0.0,0.0,0.0,0.0,0.0,0.0,0.0,0.0,0.0,0.0,0.0,0.0,0.0,0.0,0.0,0.0,0.0,0.0,0.0,0.0,0.0,0.0,0.0,0.0,0.0,0.0,0.0,0.0,0.0,0.0,0.0,0.0,0.0,0.0,0.0,0.0,0.0,0.0,0.0,0.0,0.0,0.0,0.0,0.0,0.0,0.0,0.0,0.0,0.0,0.0,0.0,0.0,0.0,0.0,0.0,0.0,0.0,0.0,0.0,0.0,0.0,0.0,0.0,0.0,0.0,0.0,0.0,0.0,0.0,0.0,0.0,0.0,0.0,0.0,0.0,0.0,0.0,0.0,0.0,0.0,0.0,0.0,0.0,0.0,0.0,0.0,0.0,0.0,0.0,0.0,0.0,0.0,0.0,0.0,0.0,0.0,0.0,0.0,0.0,0.0,0.0,0.0,0.0,0.0,0.0,0.0,0.0,0.0,0.0,0.0,0.0,0.0,0.0,0.0,0.0,0.0,0.0,0.0,0.0,0.0,0.0,0.0,0.0,0.0,0.0,0.0,0.0,0.0,0.0,0.0,0.0,0.0,0.0,0.0,0.0,0.0,0.0,0.0,0.0,0.0,0.0,0.0,0.0,0.0,0.0,0.0,0.0,0.0,0.0,0.0,0.0,0.0,0.0,0.0,0.0,0.0,0.0,0.0,0.0,0.0,0.0,0.0,0.0,0.0,0.0,0.0,0.0,0.0,0.0,0.0,0.0,0.0,0.0,0.0,0.0,0.0,0.0,0.0,0.0,0.0,0.0,0.0,0.0,0.0,0.0,0.0,0.0,0.0,0.0,0.0,0.0,0.0,0.0,0.0,0.0,0.0,0.0,0.0,0.0,0.0,0.0,0.0,0.0,0.0,0.0,0.0,0.0,0.0,0.0,0.0,0.0,0.0,0.0,0.0,0.0,0.0,0.0,0.0,0.0,0.0,0.0,0.0,0.0,0.0,0.0,0.0,0.0,0.0,0.0,0.0,0.0,0.0,0.0,0.0,0.0,0.0,0.0,0.0,0.0,0.0,0.0,0.0,0.0,0.0,0.0,0.0,0.0,0.0,0.0,0.0,0.0,0.0,0.0,0.0,0.0,0.0,0.0,0.0,0.0,0.0,0.0,0.0,0.0,0.0,0.0,0.0,0.0,0.0,0.0,0.0,0.0,0.0,0.0,0.0,0.0,0.0,0.0,0.0,0.0,0.0,0.0,0.0,0.0,0.0,0.0,0.0,0.0,0.0,0.0,0.0,0.0,0.0,0.0,0.0,0.0,0.0,0.0,0.0,0.0,0.0,0.0,0.0,0.0,0.0,0.0,0.0,0.0,0.0,0.0,0.0,0.0,0.0,0.0,0.0,0.0,0.0,0.0,0.0,0.0,0.0,0.0,0.0,0.0,0.0,-1.0192,0.0,0.0,0.0,0.0,0.0,0.0,0.0,0.0,0.0,0.0,0.0,0.0,0.0,0.0,0.0,0.0,0.0,0.0,0.0,0.0,0.0,0.0,0.0,0.0,0.0,0.0,0.0,0.0,0.0,0.0,0.0,0.0,0.0,0.0,0.0,0.0,0.0,0.0,0.0,0.0,0.0,0.0,0.0,0.0,0.0,0.0,0.0,0.0,0.0,0.0,0.0,0.0,0.0,0.0,0.0,0.0,0.0,0.0,0.0,0.0,0.0,0.0,0.0,0.0,0.0,0.0,0.0,0.0,0.0,0.0,0.0,0.0,0.0,0.0,0.0,0.0,0.0,0.0,0.0,0.0,0.0,0.0,0.0,0.0,0.0,0.0,0.0,0.0,0.0,0.0,0.0,0.0,0.0,0.0,0.0,0.0,0.0,0.0,0.0,0.0,0.0,0.0,0.0,0.0,0.0,0.0,0.0,0.0,0.0,0.0,-1.0719,-1.1045,-1.0988,-1.0884,-1.0679,0.0,0.0,0.0,0.0,0.0,0.0,0.0,0.0,0.0,0.0,0.0,0.0,0.0,0.0,0.0,0.0,0.0,0.0,0.0,0.0,0.0,0.0,0.0,0.0,0.0,0.0,0.0,0.0,0.0,0.0,0.0,0.0,0.0,0.0,0.0,0.0,0.0,0.0,0.0,0.0,0.0,0.0,0.0,0.0,0.0,0.0,0.0,0.0,0.0,0.0,0.0,0.0,0.0,0.0,0.0,0.0,0.0,0.0,0.0,0.0,0.0,0.0,0.0,0.0,0.0,0.0,0.0,0.0,0.0,0.0,0.0,0.0,0.0,0.0,0.0,0.0,0.0,0.0,0.0,0.0,0.0,0.0,0.0,0.0,0.0,0.0,0.0,0.0,0.0,0.0,0.0,0.0,0.0,0.0,0.0,0.0,0.0,0.0,0.0,0.0,0.0,0.0,0.0,0.0,0.0,0.0,0.0,0.0,0.0,0.0,0.0,0.0,-1.1749,-1.1523,-1.1009,0.0,0.0,0.0,0.0,0.0,0.0,0.0,0.0,0.0,0.0,0.0,0.0,0.0,0.0,0.0,0.0,0.0,0.0,0.0,0.0,0.0,0.0,0.0,0.0,0.0,0.0,0.0,0.0,0.0,0.0,0.0,0.0,0.0,0.0,0.0,0.0,0.0,0.0,0.0,0.0,0.0,0.0,0.0,0.0,0.0,0.0,0.0,0.0,0.0,0.0,0.0,0.0,0.0,0.0,0.0,0.0,0.0,0.0,0.0,0.0,0.0,0.0,0.0,0.0,0.0,0.0,0.0,0.0,0.0,0.0,0.0,0.0,0.0,0.0,0.0,0.0,0.0,0.0,0.0,0.0,0.0,0.0,0.0,0.0,0.0,0.0,0.0,0.0,0.0,0.0,0.0,0.0,0.0,0.0,0.0,0.0,0.0,0.0,0.0,0.0,0.0,0.0,0.0,0.0,0.0,0.0,0.0,0.0,0.0,0.0,-1.2263,-1.1977,-1.2148,0.0,-1.1035,0.0,0.0,0.0,0.0,0.0,0.0,0.0,0.0,0.0,0.0,0.0,0.0,0.0,0.0,0.0,0.0,0.0,0.0,0.0,0.0,0.0,0.0,0.0,0.0,0.0,0.0,0.0,0.0,0.0,0.0,0.0,0.0,0.0,0.0,0.0,0.0,0.0,0.0,0.0,0.0,0.0,0.0,0.0,0.0,0.0,0.0,0.0,0.0,0.0,0.0,0.0,0.0,0.0,0.0,0.0,0.0,0.0,0.0,0.0,0.0,0.0,0.0,0.0,0.0,0.0,0.0,0.0,0.0,0.0,0.0,0.0,0.0,0.0,0.0,0.0,0.0,0.0,0.0,0.0,0.0,0.0,0.0,0.0,0.0,0.0,0.0,0.0,0.0,0.0,0.0,0.0,0.0,0.0,0.0,0.0,0.0,0.0,0.0,0.0,0.0,0.0,0.0,0.0,0.0,0.0,0.0,0.0,0.0,0.0,0.0,-1.2555,-1.2724,-1.2454,-1.1971,0.0,0.0,0.0,0.0,0.0,0.0,0.0,0.0,0.0,0.0,0.0,0.0,0.0,0.0,0.0,0.0,0.0,0.0,0.0,0.0,0.0,0.0,0.0,0.0,0.0,0.0,0.0,0.0,0.0,0.0,0.0,0.0,0.0,0.0,0.0,0.0,0.0,0.0,0.0,0.0,0.0,0.0,0.0,0.0,0.0,0.0,0.0,0.0,0.0,0.0,0.0,0.0,0.0,0.0,0.0,0.0,0.0,0.0,0.0,0.0,0.0,0.0,0.0,0.0,0.0,0.0,0.0,0.0,0.0,0.0,0.0,0.0,0.0,0.0,0.0,0.0,0.0,0.0,0.0,0.0,0.0,0.0,0.0,0.0,0.0,0.0,0.0,0.0,0.0,0.0,0.0,0.0,0.0,0.0,0.0,0.0,0.0,0.0,0.0,0.0,0.0,0.0,0.0,0.0,0.0,0.0,0.0,0.0,0.0,0.0,-1.266,0.0,-1.3134,-1.2699,-1.2104,-1.1415,0.0,0.0,0.0,0.0,0.0,0.0,0.0,0.0,0.0,0.0,0.0,0.0,0.0,0.0,0.0,0.0,0.0,0.0,0.0,0.0,0.0,0.0,0.0,0.0,0.0,0.0,0.0,0.0,0.0,0.0,0.0,0.0,0.0,0.0,0.0,0.0,0.0,0.0,0.0,0.0,0.0,0.0,0.0,0.0,0.0,0.0,0.0,0.0,0.0,0.0,0.0,0.0,0.0,0.0,0.0,0.0,0.0,0.0,0.0,0.0,0.0,0.0,0.0,0.0,0.0,0.0,0.0,0.0,0.0,0.0,0.0,0.0,0.0,0.0,0.0,0.0,0.0,0.0,0.0,0.0,0.0,0.0,0.0,0.0,0.0,0.0,0.0,0.0,0.0,0.0,0.0,0.0,0.0,0.0,0.0,0.0,0.0,0.0,0.0,0.0,0.0,0.0,0.0,0.0,0.0,0.0,0.0,0.0,0.0,-1.3039,-1.32,-1.3206,-1.2931,-1.2355,0.0,0.0,0.0,0.0,0.0,0.0,0.0,0.0,0.0,0.0,0.0,0.0,0.0,0.0,0.0,0.0,0.0,0.0,0.0,0.0,0.0,0.0,0.0,0.0,0.0,0.0,0.0,0.0,0.0,0.0,0.0,0.0,0.0,0.0,0.0,0.0,0.0,0.0,0.0,0.0,0.0,0.0,0.0,0.0,0.0,0.0,0.0,0.0,0.0,0.0,0.0,0.0,0.0,0.0,0.0,0.0,0.0,0.0,0.0,0.0,0.0,0.0,0.0,0.0,0.0,0.0,0.0,0.0,0.0,0.0,0.0,0.0,0.0,0.0,0.0,0.0,0.0,0.0,0.0,0.0,0.0,0.0,0.0,0.0,0.0,0.0,0.0,0.0,0.0,0.0,0.0,0.0,0.0,0.0,0.0,0.0,0.0,0.0,0.0,0.0,0.0,0.0,0.0,0.0,0.0,0.0,0.0,0.0,0.0,-1.3039,-1.3527,-1.3594,-1.3227,-1.31,-1.2538,0.0,0.0,0.0,0.0,0.0,0.0,0.0,0.0,0.0,0.0,0.0,0.0,0.0,0.0,0.0,0.0,0.0,0.0,0.0,0.0,0.0,0.0,0.0,0.0,0.0,0.0,0.0,0.0,0.0,0.0,0.0,0.0,0.0,0.0,0.0,0.0,0.0,0.0,0.0,0.0,0.0,0.0,0.0,0.0,0.0,0.0,0.0,0.0,0.0,0.0,0.0,0.0,0.0,0.0,0.0,0.0,0.0,0.0,0.0,0.0,0.0,0.0,0.0,0.0,0.0,0.0,0.0,0.0,0.0,0.0,0.0,0.0,0.0,0.0,0.0,0.0,0.0,0.0,0.0,0.0,0.0,0.0,0.0,0.0,0.0,0.0,0.0,0.0,0.0,0.0,0.0,0.0,0.0,0.0,0.0,0.0,0.0,0.0,0.0,0.0,0.0,0.0,0.0,0.0,0.0,0.0,0.0,0.0,0.0,-1.316,0.0,-1.3808,0.0,-1.3206,-1.2645,0.0,0.0,0.0,0.0,0.0,0.0,0.0,0.0,0.0,0.0,0.0,0.0,0.0,0.0,0.0,0.0,0.0,0.0,0.0,0.0,0.0,0.0,0.0,0.0,0.0,0.0,0.0,0.0,0.0,0.0,0.0,0.0,0.0,0.0,0.0,0.0,0.0,0.0,0.0,0.0,0.0,0.0,0.0,0.0,0.0,0.0,0.0,0.0,0.0,0.0,0.0,0.0,0.0,0.0,0.0,0.0,0.0,0.0,0.0,0.0,0.0,0.0,0.0,0.0,0.0,0.0,0.0,0.0,0.0,0.0,0.0,0.0,0.0,0.0,0.0,0.0,0.0,0.0,0.0,0.0,0.0,0.0,0.0,0.0,0.0,0.0,0.0,0.0,0.0,0.0,0.0,0.0,0.0,0.0,0.0,0.0,0.0,0.0,0.0,0.0,0.0,0.0,0.0,0.0,0.0,0.0,0.0,0.0,-1.2612,-1.3206,-1.3788,-1.3814,-1.324,-1.3213,-1.2652,0.0,0.0,0.0,0.0,0.0,0.0,0.0,0.0,0.0,0.0,0.0,0.0,0.0,0.0,0.0,0.0,0.0,0.0,0.0,0.0,0.0,0.0,0.0,0.0,0.0,0.0,0.0,0.0,0.0,0.0,0.0,0.0,0.0,0.0,0.0,0.0,0.0,0.0,0.0,0.0,0.0,0.0,0.0,0.0,0.0,0.0,0.0,0.0,0.0,0.0,0.0,0.0,0.0,0.0,0.0,0.0,0.0,0.0,0.0,0.0,0.0,0.0,0.0,0.0,0.0,0.0,0.0,0.0,0.0,0.0,0.0,0.0,0.0,0.0,0.0,0.0,0.0,0.0,0.0,0.0,0.0,0.0,0.0,0.0,0.0,0.0,0.0,0.0,0.0,0.0,0.0,0.0,0.0,0.0,0.0,0.0,0.0,0.0,0.0,0.0,0.0,0.0,0.0,0.0,0.0,0.0,0.0,0.0,0.0,-1.346,-1.3888,-1.3901,-1.3487,-1.3313,-1.2752,0.0,0.0,0.0,0.0,0.0,0.0,0.0,0.0,0.0,0.0,0.0,0.0,0.0,0.0,0.0,0.0,0.0,0.0,0.0,0.0,0.0,0.0,0.0,0.0,0.0,0.0,0.0,0.0,0.0,0.0,0.0,0.0,0.0,0.0,0.0,0.0,0.0,0.0,0.0,0.0,0.0,0.0,0.0,0.0,0.0,0.0,0.0,0.0,0.0,0.0,0.0,0.0,0.0,0.0,0.0,0.0,0.0,0.0,0.0,0.0,0.0,0.0,0.0,0.0,0.0,0.0,0.0,0.0,0.0,0.0,0.0,0.0,0.0,0.0,0.0,0.0,0.0,0.0,0.0,0.0,0.0,0.0,0.0,0.0,0.0,0.0,0.0,0.0,0.0,0.0,0.0,0.0,0.0,0.0,0.0,0.0,0.0,0.0,0.0,0.0,0.0,0.0,0.0,0.0,0.0,0.0,0.0,0.0,0.0,-1.3913,-1.4148,-1.4108,-1.378,-1.348,-1.2946,-1.2107,0.0,0.0,0.0,0.0,0.0,0.0,0.0,0.0,0.0,0.0,0.0,0.0,0.0,0.0,0.0,0.0,0.0,0.0,0.0,0.0,0.0,0.0,0.0,0.0,0.0,0.0,0.0,0.0,0.0,0.0,0.0,0.0,0.0,0.0,0.0,0.0,0.0,0.0,0.0,0.0,0.0,0.0,0.0,0.0,0.0,0.0,0.0,0.0,0.0,0.0,0.0,0.0,0.0,0.0,0.0,0.0,0.0,0.0,0.0,0.0,0.0,0.0,0.0,0.0,0.0,0.0,0.0,0.0,0.0,0.0,0.0,0.0,0.0,0.0,0.0,0.0,0.0,0.0,0.0,0.0,0.0,0.0,0.0,0.0,0.0,0.0,0.0,0.0,0.0,0.0,0.0,0.0,0.0,0.0,0.0,0.0,0.0,0.0,0.0,0.0,0.0,0.0,0.0,0.0,0.0,0.0,0.0,0.0,-1.4529,-1.4563,-1.4422,-1.4122,-1.3808,-1.3187,0.0,0.0,0.0,0.0,0.0,0.0,0.0,0.0,0.0,0.0,0.0,0.0,0.0,0.0,0.0,0.0,0.0,0.0,0.0,0.0,0.0,0.0,0.0,0.0,0.0,0.0,0.0,0.0,0.0,0.0,0.0,0.0,0.0,0.0,0.0,0.0,0.0,0.0,0.0,0.0,0.0,0.0,0.0,0.0,0.0,0.0,0.0,0.0,0.0,0.0,0.0,0.0,0.0,0.0,0.0,0.0,0.0,0.0,0.0,0.0,0.0,0.0,0.0,0.0,0.0,0.0,0.0,0.0,0.0,0.0,0.0,0.0,0.0,0.0,0.0,0.0,0.0,0.0,0.0,0.0,0.0,0.0,0.0,0.0,0.0,0.0,0.0,0.0,0.0,0.0,0.0,0.0,0.0,0.0,0.0,0.0,0.0,0.0,0.0,0.0,0.0,0.0,0.0,0.0,0.0,0.0,0.0,0.0,0.0,-1.481,-1.5057,-1.4923,-1.4416,-1.3866,-1.3287,0.0,0.0,0.0,0.0,0.0,0.0,0.0,0.0,0.0,0.0,0.0,0.0,0.0,0.0,0.0,0.0,0.0,0.0,0.0,0.0,0.0,0.0,0.0,0.0,0.0,0.0,0.0,0.0,0.0,0.0,0.0,0.0,0.0,0.0,0.0,0.0,0.0,0.0,0.0,0.0,0.0,0.0,0.0,0.0,0.0,0.0,0.0,0.0,0.0,0.0,0.0,0.0,0.0,0.0,0.0,0.0,0.0,0.0,0.0,0.0,0.0,0.0,0.0,0.0,0.0,0.0,0.0,0.0,0.0,0.0,0.0,0.0,0.0,0.0,0.0,0.0,0.0,0.0,0.0,0.0,0.0,0.0,0.0,0.0,0.0,0.0,0.0,0.0,0.0,0.0,0.0,0.0,0.0,0.0,0.0,0.0,0.0,0.0,0.0,0.0,0.0,0.0,0.0,0.0,0.0,0.0,0.0,0.0,-1.4202,-1.4995,-1.529,-1.5177,-1.4716,-1.4255,-1.3674,0.0,0.0,0.0,0.0,0.0,0.0,0.0,0.0,0.0,0.0,0.0,0.0,0.0,0.0,0.0,0.0,0.0,0.0,0.0,0.0,0.0,0.0,0.0,0.0,0.0,0.0,0.0,0.0,0.0,0.0,0.0,0.0,0.0,0.0,0.0,0.0,0.0,0.0,0.0,0.0,0.0,0.0,0.0,0.0,0.0,0.0,0.0,0.0,0.0,0.0,0.0,0.0,0.0,0.0,0.0,0.0,0.0,0.0,0.0,0.0,0.0,0.0,0.0,0.0,0.0,0.0,0.0,0.0,0.0,0.0,0.0,0.0,0.0,0.0,0.0,0.0,0.0,0.0,0.0,0.0,0.0,0.0,0.0,0.0,0.0,0.0,0.0,0.0,0.0,0.0,0.0,0.0,0.0,0.0,0.0,0.0,0.0,0.0,0.0,0.0,0.0,0.0,0.0,0.0,0.0,0.0,0.0,0.0,-1.4445,-1.4995,-1.5277,-1.5291,-1.5015,-1.4676,-1.4108,0.0,0.0,0.0,0.0,0.0,0.0,0.0,0.0,0.0,0.0,0.0,0.0,0.0,0.0,0.0,0.0,0.0,0.0,0.0,0.0,0.0,0.0,0.0,0.0,0.0,0.0,0.0,0.0,0.0,0.0,0.0,0.0,0.0,0.0,0.0,0.0,0.0,0.0,0.0,0.0,0.0,0.0,0.0,0.0,0.0,0.0,0.0,0.0,0.0,0.0,0.0,0.0,0.0,0.0,0.0,0.0,0.0,0.0,0.0,0.0,0.0,0.0,0.0,0.0,0.0,0.0,0.0,0.0,0.0,0.0,0.0,0.0,0.0,0.0,0.0,0.0,0.0,0.0,0.0,0.0,0.0,0.0,0.0,0.0,0.0,0.0,0.0,0.0,0.0,0.0,0.0,0.0,0.0,0.0,0.0,0.0,0.0,0.0,0.0,0.0,0.0,0.0,0.0,0.0,0.0,0.0,0.0,0.0,-1.4596,-1.5008,-1.5471,-1.5491,-1.5022,-1.4676,-1.4102,0.0,0.0,0.0,0.0,0.0,0.0,0.0,0.0,0.0,0.0,0.0,0.0,0.0,0.0,0.0,0.0,0.0,0.0,0.0,0.0,0.0,0.0,0.0,0.0,0.0,0.0,0.0,0.0,0.0,0.0,0.0,0.0,0.0,0.0,0.0,0.0,0.0,0.0,0.0,0.0,0.0,0.0,0.0,0.0,0.0,0.0,0.0,0.0,-1.3477,0.0,0.0,0.0,0.0,0.0,0.0,0.0,0.0,0.0,0.0,0.0,0.0,0.0,0.0,0.0,0.0,0.0,0.0,0.0,0.0,0.0,0.0,0.0,0.0,0.0,0.0,0.0,0.0,0.0,0.0,0.0,0.0,0.0,0.0,0.0,0.0,0.0,0.0,0.0,0.0,0.0,0.0,0.0,0.0,0.0,0.0,0.0,0.0,0.0,0.0,0.0,0.0,0.0,0.0,0.0,0.0,0.0,0.0,0.0,-1.481,-1.5022,-1.5531,-1.5558,-1.5035,-1.481,-1.4255,0.0,0.0,0.0,0.0,0.0,0.0,0.0,0.0,0.0,0.0,0.0,0.0,0.0,0.0,0.0,0.0,0.0,0.0,0.0,0.0,0.0,0.0,0.0,0.0,0.0,0.0,0.0,0.0,0.0,0.0,0.0,0.0,0.0,0.0,0.0,0.0,0.0,0.0,0.0,0.0,0.0,0.0,0.0,0.0,0.0,0.0,0.0,0.0,0.0,0.0,0.0,0.0,0.0,0.0,0.0,0.0,0.0,0.0,0.0,0.0,0.0,0.0,0.0,0.0,0.0,0.0,0.0,0.0,0.0,0.0,0.0,0.0,0.0,0.0,0.0,0.0,0.0,0.0,0.0,0.0,0.0,0.0,0.0,0.0,0.0,0.0,0.0,0.0,0.0,0.0,0.0,0.0,0.0,0.0,0.0,0.0,0.0,0.0,0.0,0.0,0.0,0.0,0.0,0.0,0.0,0.0,0.0,-1.4412,-1.5015,-1.5035,-1.5524,-1.5551,-1.5035,-1.5015,-1.4459,-1.326,0.0,0.0,0.0,0.0,0.0,0.0,0.0,0.0,0.0,0.0,0.0,0.0,0.0,0.0,0.0,0.0,0.0,0.0,0.0,0.0,0.0,0.0,0.0,0.0,0.0,0.0,0.0,0.0,0.0,0.0,0.0,0.0,0.0,0.0,0.0,0.0,0.0,0.0,-1.1337,-1.2387,0.0,0.0,0.0,0.0,0.0,0.0,0.0,0.0,-1.6136,0.0,0.0,0.0,0.0,0.0,0.0,0.0,0.0,0.0,0.0,0.0,0.0,0.0,0.0,0.0,0.0,0.0,0.0,0.0,0.0,0.0,0.0,0.0,0.0,0.0,0.0,0.0,0.0,0.0,0.0,0.0,0.0,0.0,0.0,0.0,0.0,0.0,0.0,0.0,0.0,0.0,0.0,0.0,0.0,0.0,0.0,0.0,0.0,0.0,0.0,0.0,0.0,0.0,0.0,0.0,0.0,-1.3213,-1.4412,-1.5015,-1.5022,-1.5531,-1.5551,-1.5042,-1.5015,-1.4416,-1.3273,0.0,0.0,0.0,0.0,0.0,0.0,0.0,0.0,0.0,0.0,0.0,0.0,0.0,0.0,0.0,0.0,0.0,0.0,0.0,0.0,0.0,0.0,0.0,0.0,0.0,0.0,0.0,0.0,0.0,0.0,0.0,0.0,0.0,0.0,0.0,0.0,0.0,0.0,0.0,-1.3504,-1.4139,0.0,0.0,0.0,0.0,0.0,0.0,0.0,0.0,-1.7203,0.0,0.0,0.0,0.0,0.0,0.0,0.0,0.0,0.0,0.0,0.0,0.0,0.0,0.0,0.0,0.0,0.0,0.0,0.0,0.0,0.0,0.0,0.0,0.0,0.0,0.0,0.0,0.0,0.0,0.0,0.0,0.0,0.0,0.0,0.0,0.0,0.0,0.0,0.0,0.0,0.0,0.0,0.0,0.0,0.0,0.0,0.0,0.0,0.0,0.0,0.0,0.0,0.0,0.0,0.0,-1.3233,-1.4369,-1.5015,-1.5028,-1.5531,-1.5551,-1.5028,-1.4816,-1.4262,0.0,0.0,0.0,0.0,0.0,0.0,0.0,0.0,0.0,0.0,0.0,0.0,0.0,0.0,0.0,0.0,0.0,0.0,0.0,0.0,0.0,0.0,0.0,0.0,0.0,0.0,0.0,0.0,0.0,0.0,0.0,0.0,0.0,0.0,0.0,0.0,0.0,0.0,0.0,0.0,-1.454,-1.5213,-1.5927,0.0,0.0,0.0,0.0,0.0,0.0,-1.8191,-1.8536,0.0,0.0,0.0,0.0,0.0,0.0,0.0,0.0,0.0,0.0,0.0,0.0,0.0,0.0,0.0,0.0,0.0,0.0,0.0,0.0,0.0,0.0,0.0,0.0,0.0,0.0,0.0,0.0,0.0,0.0,0.0,0.0,0.0,0.0,0.0,0.0,0.0,0.0,0.0,0.0,0.0,0.0,0.0,0.0,0.0,0.0,0.0,0.0,0.0,0.0,0.0,0.0,0.0,0.0,0.0,-1.3227,-1.4362,-1.5015,-1.5028,-1.5471,-1.5498,-1.5022,-1.4616,-1.4048,0.0,0.0,0.0,0.0,0.0,0.0,0.0,0.0,0.0,0.0,0.0,0.0,0.0,0.0,0.0,0.0,0.0,0.0,0.0,0.0,0.0,0.0,0.0,0.0,0.0,0.0,0.0,0.0,0.0,0.0,0.0,0.0,0.0,0.0,0.0,0.0,0.0,0.0,0.0,0.0,0.0,-1.6364,-1.7202,-1.7627,0.0,0.0,0.0,0.0,-1.9138,-1.9534,0.0,0.0,0.0,0.0,0.0,0.0,0.0,0.0,0.0,0.0,0.0,0.0,0.0,0.0,0.0,0.0,0.0,0.0,0.0,0.0,0.0,0.0,0.0,0.0,0.0,0.0,0.0,0.0,0.0,0.0,0.0,0.0,0.0,0.0,0.0,0.0,0.0,0.0,0.0,0.0,0.0,0.0,0.0,0.0,0.0,0.0,0.0,0.0,0.0,0.0,0.0,0.0,0.0,0.0,0.0,0.0,-1.3227,-1.4369,-1.5015,-1.5028,-1.5277,-1.5291,-1.5015,-1.4429,-1.3841,0.0,0.0,0.0,0.0,0.0,0.0,0.0,0.0,0.0,0.0,0.0,0.0,0.0,0.0,0.0,0.0,0.0,0.0,0.0,0.0,0.0,0.0,0.0,0.0,0.0,0.0,0.0,0.0,0.0,0.0,0.0,0.0,0.0,0.0,0.0,0.0,0.0,0.0,0.0,0.0,0.0,-1.7624,-1.8637,-1.9104,-1.95,0.0,0.0,-2.0434,-2.0625,-2.0583,0.0,0.0,0.0,0.0,0.0,0.0,0.0,0.0,0.0,0.0,0.0,0.0,0.0,0.0,0.0,0.0,0.0,0.0,0.0,0.0,0.0,0.0,0.0,0.0,0.0,0.0,0.0,0.0,0.0,0.0,0.0,0.0,0.0,0.0,0.0,0.0,0.0,0.0,0.0,0.0,0.0,0.0,0.0,0.0,0.0,0.0,0.0,0.0,0.0,0.0,0.0,0.0,0.0,0.0,0.0,-1.2438,-1.3213,-1.4202,-1.479,-1.5008,-1.529,-1.5257,-1.5022,-1.4235,-1.36,0.0,0.0,0.0,0.0,0.0,0.0,0.0,0.0,0.0,0.0,0.0,0.0,0.0,0.0,0.0,0.0,0.0,0.0,0.0,0.0,0.0,0.0,0.0,0.0,0.0,0.0,0.0,0.0,0.0,0.0,0.0,0.0,0.0,0.0,0.0,0.0,0.0,0.0,0.0,0.0,0.0,0.0,-1.9616,-2.0107,0.0,0.0,0.0,-2.114,-2.1275,0.0,0.0,0.0,0.0,0.0,0.0,0.0,0.0,0.0,0.0,0.0,0.0,0.0,0.0,0.0,0.0,0.0,0.0,0.0,0.0,0.0,0.0,0.0,0.0,0.0,0.0,0.0,0.0,0.0,0.0,0.0,0.0,0.0,0.0,0.0,0.0,0.0,0.0,0.0,0.0,0.0,0.0,0.0,0.0,0.0,0.0,0.0,0.0,0.0,0.0,0.0,0.0,0.0,0.0,0.0,0.0,0.0,-1.3206,-1.4001,-1.4556,-1.4888,-1.507,-1.507,-1.4888,-1.3995,0.0,0.0,0.0,0.0,0.0,0.0,0.0,0.0,0.0,0.0,0.0,0.0,0.0,0.0,0.0,0.0,0.0,0.0,0.0,0.0,0.0,0.0,0.0,0.0,0.0,0.0,0.0,-1.1001,0.0,0.0,0.0,0.0,0.0,0.0,0.0,0.0,0.0,0.0,0.0,0.0,0.0,0.0,-1.9904,-2.0435,-2.0973,-2.1334,0.0,0.0,-2.1864,-2.1968,-2.1702,-2.1483,0.0,0.0,0.0,0.0,0.0,0.0,0.0,0.0,0.0,0.0,0.0,0.0,0.0,0.0,0.0,0.0,0.0,0.0,0.0,0.0,0.0,0.0,0.0,0.0,0.0,0.0,0.0,0.0,0.0,0.0,0.0,0.0,0.0,0.0,0.0,0.0,0.0,0.0,0.0,0.0,0.0,0.0,0.0,0.0,0.0,0.0,0.0,0.0,0.0,0.0,0.0,0.0,0.0,0.0,0.0,-1.3193,-1.3808,-1.4262,-1.4536,-1.4526,-1.4569,-1.4536,-1.3694,-1.3233,0.0,0.0,0.0,0.0,0.0,0.0,0.0,0.0,0.0,0.0,0.0,0.0,0.0,0.0,0.0,0.0,0.0,0.0,0.0,0.0,0.0,0.0,0.0,0.0,0.0,0.0,0.0,0.0,0.0,0.0,0.0,0.0,0.0,0.0,0.0,0.0,0.0,0.0,0.0,0.0,0.0,-2.069,-2.1087,-2.1792,-2.24,0.0,0.0,-2.2761,-2.296,-2.2652,-2.2295,-2.1904,0.0,0.0,0.0,0.0,0.0,0.0,0.0,0.0,0.0,0.0,0.0,0.0,0.0,0.0,0.0,0.0,0.0,0.0,0.0,0.0,0.0,0.0,0.0,0.0,0.0,0.0,0.0,0.0,0.0,0.0,0.0,0.0,0.0,0.0,0.0,0.0,0.0,0.0,0.0,0.0,0.0,0.0,0.0,0.0,0.0,0.0,0.0,0.0,0.0,0.0,0.0,0.0,0.0,-1.2131,-1.3193,-1.3607,-1.4048,-1.4452,-1.4516,-1.4516,-1.4516,-1.3667,-1.3206,0.0,0.0,0.0,0.0,0.0,0.0,0.0,0.0,0.0,0.0,0.0,0.0,0.0,0.0,0.0,0.0,0.0,0.0,0.0,0.0,0.0,0.0,0.0,0.0,0.0,0.0,0.0,0.0,-1.3716,-1.4383,-1.4991,0.0,0.0,0.0,0.0,0.0,0.0,0.0,0.0,0.0,0.0,-2.153,-2.1945,-2.2452,0.0,0.0,-2.2969,-2.3003,-2.3091,-2.275,-2.2418,-2.2305,-2.1914,0.0,0.0,0.0,0.0,0.0,0.0,0.0,0.0,0.0,0.0,0.0,0.0,0.0,0.0,0.0,0.0,0.0,0.0,0.0,0.0,0.0,0.0,0.0,0.0,0.0,0.0,0.0,0.0,0.0,0.0,0.0,0.0,0.0,0.0,0.0,0.0,0.0,0.0,0.0,0.0,0.0,0.0,0.0,0.0,0.0,0.0,0.0,0.0,0.0,0.0,0.0,0.0,-1.2104,-1.3193,-1.3373,-1.3753,-1.4382,-1.4389,-1.4389,-1.4369,-1.3621,-1.3206,0.0,0.0,0.0,0.0,0.0,0.0,0.0,0.0,0.0,0.0,0.0,0.0,0.0,0.0,0.0,0.0,0.0,0.0,0.0,0.0,0.0,0.0,0.0,0.0,0.0,0.0,0.0,0.0,-1.4313,-1.4999,-1.5566,0.0,0.0,0.0,0.0,0.0,0.0,0.0,0.0,0.0,0.0,-2.2178,-2.248,-2.2828,-2.3101,-2.3101,-2.3101,-2.3101,-2.3101,-2.2857,-2.2666,-2.2529,0.0,0.0,0.0,0.0,0.0,0.0,0.0,0.0,0.0,0.0,0.0,0.0,0.0,0.0,0.0,0.0,0.0,0.0,0.0,0.0,0.0,0.0,0.0,0.0,0.0,0.0,0.0,0.0,0.0,0.0,0.0,0.0,0.0,0.0,0.0,0.0,0.0,0.0,0.0,0.0,0.0,0.0,0.0,0.0,0.0,0.0,0.0,0.0,0.0,0.0,0.0,0.0,0.0,-1.2305,-1.3193,-1.3233,-1.352,-1.4082,-1.4095,-1.4102,-1.4088,-1.352,-1.3206,-1.318,0.0,0.0,0.0,0.0,0.0,0.0,0.0,0.0,0.0,0.0,0.0,0.0,0.0,0.0,0.0,0.0,0.0,0.0,0.0,0.0,0.0,0.0,0.0,0.0,0.0,0.0,-1.3782,-1.4517,-1.529,0.0,0.0,0.0,0.0,0.0,0.0,0.0,0.0,0.0,0.0,-2.168,-2.25,-2.2519,-2.2828,-2.3101,-2.311,-2.311,-2.3101,-2.311,-2.3091,-2.2945,0.0,0.0,0.0,0.0,0.0,0.0,0.0,0.0,0.0,0.0,0.0,0.0,0.0,0.0,0.0,0.0,0.0,0.0,0.0,0.0,0.0,0.0,0.0,0.0,0.0,0.0,0.0,-0.6047,-0.5959,0.0,0.0,0.0,0.0,0.0,0.0,0.0,0.0,0.0,0.0,0.0,-0.992,-1.0509,0.0,0.0,0.0,0.0,0.0,0.0,0.0,0.0,0.0,0.0,0.0,0.0,-1.2505,-1.318,-1.336,-1.3687,-1.4075,-1.4088,-1.4088,-1.4124,-1.3514,-1.2933,-1.2338,0.0,0.0,0.0,0.0,0.0,0.0,0.0,0.0,0.0,0.0,0.0,0.0,0.0,0.0,0.0,0.0,0.0,0.0,0.0,0.0,0.0,0.0,0.0,0.0,0.0,-1.3652,0.0,0.0,0.0,0.0,0.0,0.0,0.0,0.0,0.0,0.0,0.0,-2.0928,-2.1748,-2.2236,-2.2617,-2.2847,-2.3003,-2.3188,0.0,0.0,0.0,0.0,0.0,0.0,0.0,0.0,0.0,0.0,0.0,0.0,0.0,0.0,-2.1396,-2.125,-2.1501,-2.1769,-2.1874,0.0,0.0,0.0,0.0,0.0,0.0,0.0,0.0,0.0,0.0,0.0,0.0,0.0,0.0,0.0,0.0,-0.6303,0.0,0.0,0.0,0.0,0.0,0.0,0.0,0.0,-0.8776,-0.9498,-1.0274,-1.0953,-1.1584,0.0,-1.2451,-1.2425,0.0,0.0,0.0,0.0,0.0,0.0,0.0,0.0,-1.2705,-1.32,-1.346,-1.3746,-1.4068,-1.4088,-1.4088,-1.4075,-1.3514,-1.2839,-1.2087,-1.1637,-1.1202,0.0,0.0,0.0,0.0,0.0,0.0,0.0,0.0,0.0,0.0,0.0,0.0,0.0,0.0,0.0,0.0,0.0,0.0,0.0,0.0,0.0,0.0,0.0,-1.4171,0.0,0.0,0.0,0.0,0.0,0.0,0.0,0.0,0.0,-2.0615,-2.0997,-2.1562,-2.2402,-2.2637,-2.2789,-2.3052,0.0,0.0,0.0,0.0,0.0,0.0,0.0,-2.3477,-2.314,-2.3101,-2.3101,-2.3101,-2.2867,-2.2637,-2.2363,0.0,0.0,-2.1934,-2.2246,-2.2564,-2.2737,-2.3224,-2.3777,-2.4353,-2.4865,-2.541,0.0,0.0,0.0,0.0,0.0,0.0,0.0,0.0,-0.7105,-0.7024,0.0,-0.6886,0.0,0.0,0.0,0.0,0.0,0.0,0.0,0.0,-0.9051,-0.9875,-1.0859,-1.1599,-1.218,-1.258,-1.2602,-1.2849,-1.3186,-1.2664,0.0,0.0,0.0,0.0,0.0,0.0,-1.2951,-1.3233,-1.348,-1.3753,-1.4075,-1.4088,-1.4075,-1.4035,-1.3507,-1.2926,-1.2318,-1.175,-1.1309,-1.1015,-1.0468,0.0,0.0,0.0,0.0,0.0,0.0,0.0,0.0,0.0,0.0,0.0,0.0,0.0,0.0,0.0,0.0,0.0,0.0,0.0,0.0,-1.3568,0.0,0.0,0.0,0.0,0.0,0.0,0.0,0.0,0.0,0.0,-2.0723,-2.1719,-2.2519,-2.2539,0.0,0.0,0.0,0.0,-2.3101,-2.313,-2.312,-2.312,-2.313,-2.313,-2.312,-2.3101,0.0,0.0,-2.3101,-2.3091,-2.3081,-2.3091,-2.3052,-2.2891,-2.2141,-2.2335,-2.2613,-2.2644,-2.3318,-2.3951,-2.4436,-2.534,-2.6193,-0.7763,0.0,0.0,0.0,0.0,-0.7411,-0.7431,-0.7468,-0.7465,-0.7383,-0.7244,-0.7244,0.0,0.0,0.0,0.0,0.0,0.0,-0.7757,-0.8421,-0.8892,-0.9543,-1.0431,-1.0939,-1.1548,-1.2213,-1.2687,-1.2917,-1.2826,-1.3159,-1.3074,-1.2667,0.0,0.0,0.0,0.0,-1.3227,-1.3473,-1.3814,-1.4001,-1.4082,-1.4088,-1.3888,-1.3474,-1.33,-1.2926,-1.2325,-1.1973,-1.1603,-1.1309,-1.0942,0.0,0.0,0.0,0.0,0.0,0.0,0.0,0.0,0.0,0.0,0.0,0.0,0.0,0.0,0.0,0.0,0.0,0.0,0.0,-1.3259,-1.4087,-1.5109,0.0,0.0,0.0,0.0,0.0,0.0,0.0,0.0,0.0,-2.1953,-2.2275,-2.2627,0.0,0.0,-2.3101,-2.3101,-2.3101,-2.3208,-2.3564,0.0,0.0,0.0,-2.3603,-2.3506,-2.314,-2.3101,-2.3101,-2.3101,-2.3101,-2.3101,-2.3101,-2.3101,-2.3057,-2.3077,-2.3255,-2.3458,-2.3734,-2.4304,-2.4962,-2.5571,-2.6305,-2.7057,-0.8252,-0.7933,-0.7756,-0.7682,-0.7685,-0.7685,-0.7719,-0.7773,-0.7773,-0.7689,-0.7546,-0.7543,-0.7414,-0.7149,-0.7152,0.0,0.0,0.0,-0.7823,-0.8299,-0.8772,-0.9329,-1.0014,-1.0674,-1.1288,-1.1853,-1.251,-1.282,-1.2783,-1.3342,-1.35,-1.3296,0.0,0.0,-1.3213,-1.3287,-1.3427,-1.3606,-1.3935,-1.4088,-1.4088,-1.4088,-1.3861,-1.336,-1.3273,-1.2979,-1.2529,-1.1971,-1.161,-1.1395,-1.1042,-1.064,0.0,0.0,0.0,0.0,0.0,0.0,0.0,0.0,0.0,0.0,0.0,-0.9757,-1.0254,0.0,0.0,0.0,-1.1952,-1.2798,-1.3935,-1.4698,0.0,0.0,0.0,0.0,0.0,0.0,0.0,-2.1299,-2.2021,-2.2578,-2.2734,-2.2721,-2.2808,-2.3062,-2.3101,-2.3101,-2.3101,0.0,-2.3188,-2.3486,-2.3535,-2.3535,-2.3535,-2.3535,-2.3437,-2.314,-2.3101,-2.3101,-2.3101,-2.3101,-2.3101,-2.3101,-2.3101,-2.3178,-2.346,-2.3677,-2.3894,-2.4239,-2.4786,-2.5401,-2.6071,-2.6775,-2.7551,-0.8638,-0.8465,-0.8055,-0.7872,-0.7848,-0.7834,-0.7909,-0.7985,-0.7988,-0.7911,-0.7834,-0.7828,-0.775,-0.7614,-0.7604,0.0,0.0,-0.7617,-0.7838,-0.8225,-0.8757,-0.9174,-0.9624,-1.0605,-1.1247,-1.158,-1.2108,-1.2567,-1.2982,-1.3331,-1.345,-1.3335,-1.3261,-1.322,-1.3253,-1.3487,-1.3613,-1.364,-1.3955,-1.4088,-1.4088,-1.4088,-1.3935,-1.3573,-1.3313,-1.3053,-1.2782,-1.1904,-1.1415,-1.1375,-1.0895,-1.0492,-1.0174,0.0,0.0,0.0,0.0,0.0,0.0,0.0,0.0,0.0,0.0,0.0,0.0,0.0,0.0,0.0,-1.2705,0.0,-1.4394,-1.5377,0.0,0.0,0.0,-1.963,-2.0322,-2.0905,-2.16,-2.2412,0.0,0.0,0.0,0.0,-2.3101,-2.3101,-2.3101,-2.3101,-2.3101,-2.3101,-2.3101,-2.313,-2.3101,-2.3101,-2.314,-2.313,-2.313,-2.3101,-2.3101,-2.3101,-2.3101,-2.3101,-2.3101,-2.3101,-2.3101,-2.3188,-2.345,-2.3667,-2.397,-2.4454,-2.4914,-2.5401,-2.606,-2.6857,-2.7603,-0.8794,-0.8648,-0.8543,-0.8367,-0.8153,-0.8035,-0.7958,-0.7988,-0.7988,-0.7968,-0.7934,-0.7938,-0.7902,-0.7753,-0.7648,-0.7658,-0.776,-0.776,-0.7938,-0.8326,-0.8477,-0.889,-0.9575,-0.9875,-1.0462,-1.1287,-1.1633,-1.1958,-1.2267,-1.2901,-1.3067,-1.2897,-1.3187,-1.3404,-1.3576,-1.3597,-1.3713,-1.3981,-1.4055,-1.4088,-1.4088,-1.4088,-1.3841,-1.3287,-1.3207,-1.2959,-1.2425,-1.1997,-1.1657,-1.1395,-1.1082,-1.0787,-1.0506,-1.0241,0.0,0.0,0.0,0.0,0.0,0.0,0.0,0.0,0.0,-1.0613,-1.0868,0.0,-1.1492,0.0,-1.314,-1.4217,-1.5073,-1.6168,0.0,0.0,-1.921,-2.0171,-2.1106,-2.1662,-2.2084,-2.2448,-2.275,-2.2984,-2.3091,-2.3101,-2.3101,-2.3101,-2.3101,-2.3101,-2.3101,-2.3101,-2.3101,-2.3101,-2.3101,-2.3101,-2.3101,-2.3101,-2.3101,-2.3101,-2.3101,-2.3101,-2.3101,-2.3101,-2.3101,-2.3101,-2.3101,-2.3276,-2.3624,-2.3797,-2.41,-2.4818,-2.5115,-2.5401,-2.606,-2.6775,-2.747,-0.8834,-0.8804,-0.874,-0.8615,-0.8448,-0.8235,-0.8102,-0.7988,-0.7988,-0.7988,-0.7988,-0.7988,-0.7944,-0.786,-0.7783,-0.7841,-0.786,-0.7913,-0.8006,-0.8233,-0.8333,-0.863,-0.908,-0.9426,-0.992,-1.0511,-1.1002,-1.1332,-1.1515,-1.222,-1.2478,-1.2245,-1.2779,-1.3145,-1.3238,-1.3513,-1.3754,-1.3913,-1.4046,-1.4088,-1.4088,-1.4088,-1.3801,-1.3233,-1.3206,-1.2926,-1.2325,-1.1897,-1.1657,-1.161,-1.1129,-1.0821,-1.0787,-1.0595,-1.0501,0.0,0.0,0.0,0.0,0.0,0.0,0.0,0.0,0.0,0.0,0.0,-1.2074,0.0,-1.3798,0.0,-1.5747,-1.683,-1.7874,-1.8939,-1.9868,-2.0717,-2.1414,-2.2069,-2.25,-2.263,-2.2911,-2.3101,-2.3101,-2.3101,-2.3101,-2.3101,-2.3101,-2.3101,-2.3101,-2.3101,-2.3101,-2.3101,-2.3101,-2.3101,-2.3101,-2.3101,-2.3101,-2.3101,-2.3101,-2.3101,-2.3101,-2.3101,-2.3101,-2.3101,-2.3101,-2.3232,-2.3711,-2.3797,-2.41,-2.4903,-2.52,-2.5496,-2.6249,-2.6816,-2.7389,-0.8937,-0.8868,-0.8798,-0.873,-0.8686,-0.8414,-0.8211,-0.8015,-0.7998,-0.7988,-0.7988,-0.7988,-0.7988,-0.7988,-0.7988,-0.7988,-0.7988,-0.7988,-0.7988,-0.7988,-0.8233,-0.8382,-0.8432,-0.913,-0.948,-0.9579,-1.0265,-1.0609,-1.0703,-1.1438,-1.1739,-1.1597,-1.2251,-1.2604,-1.2632,-1.3287,-1.3649,-1.3688,-1.3955,-1.4088,-1.4088,-1.4088,-1.3808,-1.3247,-1.3206,-1.2926,-1.2325,-1.1777,-1.1603,-1.1859,-1.1136,-1.0814,-1.1035,-1.1049,-1.1049,0.0,-1.1255,0.0,0.0,0.0,0.0,0.0,0.0,0.0,0.0,-1.2405,-1.2889,-1.3847,-1.4593,-1.5435,-1.6412,-1.7377,-1.8337,-1.9402,-2.0425,-2.119,-2.1513,-2.2224,-2.2759,-2.2803,-2.2969,-2.3091,-2.3101,-2.3101,-2.3101,-2.3101,-2.3101,-2.3101,-2.3101,-2.3101,-2.3101,-2.3101,-2.3101,-2.3101,-2.3101,-2.3101,-2.3101,-2.3101,-2.3101,-2.3101,-2.3101,-2.3101,-2.3101,-2.3101,-2.3101,-2.3266,-2.3711,-2.3797,-2.409,-2.4935,-2.5158,-2.5496,-2.6332,-2.691,-2.736,-0.8937,-0.8937,-0.8854,-0.8825,-0.8696,-0.8516,-0.836,-0.8218,-0.8046,-0.7988,-0.7988,-0.7988,-0.7988,-0.7988,-0.7988,-0.7988,-0.7988,-0.7988,-0.7988,-0.7988,-0.8041,-0.8187,-0.8382,-0.8531,-0.8882,-0.9282,-0.9434,-0.9727,-1.0167,-1.0507,-1.0881,-1.1278,-1.1883,-1.2128,0.0,0.0,0.0,0.0,-1.3997,-1.4088,-1.4088,-1.4088,-1.3801,-1.3233,-1.3206,0.0,-1.2325,-1.1971,-1.1846,-1.1886,-1.1483,0.0,0.0,0.0,0.0,0.0,0.0,0.0,0.0,0.0,0.0,0.0,-1.2395,-1.2476,-1.2331,-1.3083,-1.3865,-1.4538,-1.5281,-1.6061,-1.6901,-1.7715,-1.8571,-1.936,-2.0217,-2.0989,-2.1568,-2.2006,-2.2362,-2.275,-2.2803,-2.2925,-2.3057,-2.3101,-2.3101,-2.3101,-2.3101,-2.3101,-2.3101,-2.3101,-2.3101,-2.3101,-2.3101,-2.3101,-2.3101,-2.3101,-2.3101,-2.3101,-2.3101,-2.3101,-2.3101,-2.3101,-2.3101,-2.3101,-2.3101,-2.3266,-2.3721,-2.3797,-2.4046,-2.4775,-2.5084,-2.5496,-2.6426,-2.691,-2.736,-0.8937,0.0,-0.8937,-0.8838,0.0,-0.8659,-0.8509,-0.8412,-0.814,-0.7988,-0.7988,-0.7988,-0.7988,-0.7988,-0.7988,-0.7988,-0.7988,-0.7988,-0.7988,-0.7988,-0.7988,-0.8041,-0.8184,-0.8333,-0.8531,-0.8783,-0.8931,-0.9126,-0.9422,-0.9821,-1.0167,-1.0408,-1.1087,-1.1489,-1.162,-1.2491,-1.3102,-1.3519,-1.3786,-1.3913,-1.3913,-1.4046,-1.3874,-1.34,0.0,0.0,0.0,0.0,0.0,0.0,0.0,0.0,0.0,0.0,0.0,-1.165,-1.1784,-1.1924,-1.2107,-1.2254,-1.2476,-1.2726,-1.316,-1.3387,-1.3186,-1.3951,-1.4613,-1.4986,-1.5665,-1.6307,-1.6952,-1.7847,-1.8694,-1.9417,-2.0082,-2.0789,-2.1428,-2.1741,-2.2052,-2.2397,-2.253,-2.2715,-2.2925,-2.2979,-2.3013,-2.3101,-2.3101,-2.3101,-2.3101,-2.3101,-2.3101,-2.3101,-2.3101,-2.3101,-2.3101,-2.3101,-2.3101,-2.3101,-2.3101,-2.3101,-2.3101,-2.3101,-2.3101,-2.3101,-2.3101,-2.3222,-2.3537,-2.3721,-2.396,-2.4572,-2.4999,-2.5411,-2.6135,-2.6674,-2.7219,-0.8905,-0.8937,-0.8937,-0.8937,-0.8871,-0.8774,-0.8608,-0.8425,0.0,0.0,0.0,-0.7988,-0.7988,-0.7988,-0.7988,-0.7988,-0.7988,-0.7988,-0.7988,-0.7988,-0.7988,-0.7988,-0.7988,-0.8233,-0.8336,-0.8333,-0.8577,-0.8676,-0.8726,-0.9179,-0.9476,-0.9661,-1.0303,-1.0816,-1.1242,-1.2047,-1.2662,-1.3094,-1.3476,-1.3652,-1.3652,-1.387,-1.3816,-1.3525,-1.3333,-1.308,-1.2829,-1.2321,-1.2147,-1.2278,-1.1844,-1.171,-1.2033,-1.206,-1.2087,-1.2111,-1.2331,-1.2565,-1.2844,-1.2864,-1.2998,-1.3267,-1.3881,-1.4215,-1.4168,-1.4703,-1.5172,-1.5359,-1.5951,-1.6441,-1.6945,-1.7819,-1.8727,-1.9409,-1.992,-2.0482,-2.1122,-2.1428,-2.1687,-2.1963,-2.2176,-2.2397,-2.2662,-2.2803,-2.2882,-2.3013,-2.3047,-2.3101,-2.3101,-2.3101,-2.3101,-2.3101,-2.3101,-2.3101,-2.3101,-2.3101,-2.3101,-2.3101,-2.3101,-2.3101,-2.3101,-2.3101,-2.3101,-2.3101,-2.3101,-2.3232,-2.346,-2.3677,-2.3927,-2.4368,-2.4818,-2.5285,-2.5759,-2.6343,-2.6962,-0.9049,-0.8937,-0.8937,-0.8937,-0.8871,-0.8774,-0.8557,-0.8289,-0.8113,-0.7988,-0.7988,-0.7988,-0.7988,-0.7988,-0.7988,-0.7988,-0.7988,-0.7988,-0.7988,0.0,-0.7988,-0.7988,-0.7988,-0.8041,-0.8041,-0.8038,-0.8088,-0.8233,-0.8432,-0.8531,-0.8882,-0.9575,-0.9944,-1.0521,-1.1211,-1.1432,-1.1623,-1.1977,-1.2918,-1.3434,-1.3434,-1.3483,-1.3432,-1.3333,-1.3315,-1.3154,-1.2811,-1.2703,-1.2556,-1.2311,-1.2218,-1.2311,-1.2636,-1.265,-1.2777,-1.2993,-1.306,-1.3106,-1.314,-1.3146,-1.3273,-1.3553,-1.4362,-1.4736,-1.4502,-1.4997,-1.5482,-1.5725,-1.6197,-1.6753,-1.722,-1.777,-1.8357,-1.8874,-1.9517,-2.011,-2.0428,-2.0826,-2.1275,-2.1687,-2.1776,-2.1998,-2.2397,-2.2618,-2.2803,-2.2847,-2.2969,-2.3101,-2.3101,-2.3101,-2.3101,-2.3101,-2.3101,-2.3101,-2.3101,-2.3101,-2.3101,-2.3101,-2.3101,-2.3101,-2.3101,-2.3101,-2.3101,-2.3101,-2.3101,-2.3188,-2.3406,-2.3667,-2.3894,-2.4206,-2.4615,-2.5073,-2.5496,-2.5999,-2.661,-0.8673,-0.866,-0.8709,-0.8768,-0.8868,-0.8689,-0.8513,-0.8364,-0.8086,-0.7988,-0.7988,-0.7988,-0.7988,-0.7988,-0.7988,-0.7988,-0.7988,-0.7988,-0.7988,-0.7988,-0.7988,-0.7988,-0.7988,-0.7988,-0.7988,-0.7988,-0.7988,-0.8091,-0.8187,-0.8336,-0.8581,-0.8973,-0.9522,-1.0157,-1.0662,-1.0985,-1.1112,-1.1111,-1.2277,-1.2881,-1.3003,-1.3179,-1.3292,-1.3333,-1.3226,-1.3114,-1.3081,-1.2916,-1.2816,-1.2799,-1.2799,-1.2859,-1.2986,-1.3032,-1.306,-1.3193,-1.3206,-1.328,-1.34,-1.3594,-1.3741,-1.3895,-1.4549,-1.4955,-1.4776,-1.5291,-1.5685,-1.5779,-1.6142,-1.6548,-1.6911,-1.738,-1.7939,-1.8589,-1.9058,-1.9517,-2.0027,-2.0382,-2.0781,-2.1105,-2.1374,-2.1651,-2.1998,-2.2274,-2.2495,-2.2574,-2.2794,-2.2969,-2.3091,-2.3091,-2.3091,-2.3101,-2.3101,-2.3101,-2.3101,-2.3101,-2.3101,-2.3101,-2.3101,-2.3101,-2.3101,-2.3101,-2.3101,-2.3101,-2.3101,-2.3144,-2.3276,-2.345,-2.3711,-2.398,-2.4368,-2.4828,-2.5285,-2.5957,-2.6798,-0.8307,-0.8374,-0.8374,-0.8546,-0.8796,-0.8505,-0.843,-0.8452,-0.8163,-0.7988,-0.7988,-0.7988,-0.7988,-0.7988,-0.7988,-0.7988,-0.7988,-0.7988,-0.7988,-0.7988,-0.7988,-0.7988,-0.7988,-0.7988,-0.7988,-0.7988,-0.7988,-0.7988,-0.8038,-0.8184,-0.8333,-0.8464,-0.9195,-0.9733,-0.9926,-1.0412,-1.0603,-1.0521,-1.1413,-1.21,-1.2448,-1.2711,-1.2973,-1.3209,-1.3063,-1.3007,-1.3225,-1.3098,-1.3041,-1.3134,-1.3174,-1.32,-1.33,-1.3267,-1.3333,-1.3394,-1.3407,-1.3507,-1.3686,-1.3955,-1.4115,-1.4195,-1.4707,-1.5035,-1.5135,-1.5531,-1.5825,-1.5832,-1.6069,-1.6312,-1.6636,-1.7044,-1.7559,-1.8265,-1.8589,-1.8966,-1.9563,-1.9874,-2.0201,-2.0564,-2.0934,-2.1203,-2.1508,-2.183,-2.2141,-2.2397,-2.2574,-2.2794,-2.296,-2.3003,-2.3047,-2.3091,-2.3101,-2.3101,-2.3101,-2.3101,-2.3101,-2.3101,-2.3101,-2.3101,-2.3101,-2.3101,-2.3101,-2.3101,-2.3101,-2.3101,-2.3135,-2.3319,-2.358,-2.3807,-2.4196,-2.4625,-2.52,-2.5999,-2.6921,-0.8217,-0.8063,-0.8045,-0.8208,-0.8511,-0.8185,-0.8223,-0.8442,-0.8116,-0.7988,-0.7988,-0.7988,-0.7988,-0.7988,-0.7988,-0.7988,-0.7988,-0.7988,-0.7988,-0.7988,-0.7988,-0.7988,-0.7988,-0.7988,-0.7988,-0.7988,-0.7988,-0.7988,-0.7988,-0.8038,-0.8187,-0.8414,-0.9049,-0.9271,-0.9236,-0.9698,-0.9995,-1.0047,-1.0337,-1.0939,-1.1763,-1.1989,-1.2289,-1.2747,-1.2723,-1.2806,-1.301,-1.3205,-1.3157,-1.2962,-1.3108,-1.334,-1.352,-1.3567,-1.3686,-1.3968,-1.3995,-1.4028,-1.4041,-1.4117,-1.4195,-1.4469,-1.4763,-1.5122,-1.5324,-1.5638,-1.5825,-1.5832,-1.6028,-1.6319,-1.6581,-1.6998,-1.738,-1.7761,-1.8172,-1.8643,-1.8874,-1.9142,-1.9554,-2.0292,-2.0391,-2.0555,-2.1051,-2.1454,-2.1909,-2.2264,-2.2397,-2.253,-2.275,-2.2794,-2.2891,-2.3057,-2.3101,-2.3091,-2.3091,-2.3101,-2.3101,-2.3101,-2.3101,-2.3101,-2.3101,-2.3101,-2.3101,-2.3101,-2.3101,-2.3101,-2.3135,-2.3319,-2.3537,-2.3754,-2.4067,-2.4497,-2.5242,-2.5904,-2.658,-0.7546,-0.7546,-0.7712,-0.7934,-0.8173,-0.7867,-0.7908,-0.8141,-0.7917,-0.7842,-0.7988,-0.7988,-0.7988,-0.7988,-0.7988,-0.7988,-0.7988,-0.7988,-0.7988,-0.7988,-0.7988,-0.7988,-0.7988,-0.7988,-0.7988,-0.7988,-0.7988,-0.7988,-0.7988,-0.7988,-0.8137,-0.8379,-0.8656,-0.8844,-0.9013,-0.9258,-0.939,-0.9518,-0.9749,-1.0164,-1.0684,-1.1289,-1.1763,-1.2106,-1.2363,-1.262,-1.2819,-1.3058,-1.3169,-1.3198,-1.3391,-1.3526,-1.368,-1.3824,-1.3961,-1.4075,-1.4088,-1.4088,-1.4088,-1.4088,-1.4208,-1.4496,-1.4796,-1.5129,-1.5378,-1.5665,-1.5825,-1.5825,-1.5872,-1.6069,-1.6359,-1.6541,-1.6878,-1.734,-1.766,-1.7939,-1.8365,-1.8727,-1.9104,-1.9425,-1.9928,-2.0329,-2.0645,-2.1105,-2.1607,-2.1963,-2.2087,-2.2309,-2.2539,-2.2583,-2.2662,-2.2882,-2.2925,-2.2969,-2.3057,-2.3101,-2.3101,-2.3101,-2.3101,-2.3101,-2.3101,-2.3101,-2.3101,-2.3101,-2.3101,-2.3101,-2.3101,-2.3188,-2.3363,-2.3624,-2.411,-2.4583,-2.5211,-2.5717,-2.6302,-0.6804,-0.6951,-0.7215,-0.7529,-0.7697,-0.7585,-0.7623,-0.7822,-0.7595,-0.764,-0.7889,-0.7892,-0.7942,-0.7988,-0.7988,-0.7988,-0.7988,-0.7988,-0.7988,-0.7988,-0.7988,-0.7988,-0.7988,-0.7988,-0.7988,-0.7988,-0.7988,-0.7988,-0.7988,-0.7988,-0.8088,-0.8287,-0.8382,-0.8505,-0.8735,-0.8808,-0.891,-0.9087,-0.9261,-0.9471,-0.9864,-1.0549,-1.1154,-1.1585,-1.1935,-1.2235,-1.2497,-1.2839,-1.3052,-1.3222,-1.3476,-1.3652,-1.3688,-1.3913,-1.4004,-1.4088,-1.4088,-1.4088,-1.4088,-1.4155,-1.4329,-1.4623,-1.4955,-1.5204,-1.5478,-1.5712,-1.5818,-1.5825,-1.5825,-1.5927,-1.617,-1.6224,-1.6501,-1.7005,-1.7192,-1.7426,-1.7846,-1.8265,-1.8596,-1.8827,-1.9425,-2.0011,-2.0283,-2.0744,-2.1159,-2.1463,-2.1678,-2.1909,-2.2132,-2.222,-2.2309,-2.2627,-2.2706,-2.2794,-2.3057,-2.3101,-2.3101,-2.3101,-2.3101,-2.3101,-2.3101,-2.3101,-2.3101,-2.3101,-2.3101,-2.3101,-2.3101,-2.3144,-2.3232,-2.359,-2.4024,-2.454,-2.5031,-2.5464,-2.5937,-0.6228,-0.6398,-0.6659,-0.6822,-0.7037,-0.7121,-0.731,-0.7458,-0.7302,-0.7341,-0.7596,-0.7593,-0.7743,-0.7988,-0.7942,-0.7988,-0.7988,-0.7988,-0.7988,-0.7988,-0.7988,-0.7988,-0.7988,-0.7988,-0.7988,-0.7988,-0.7988,-0.7988,-0.7988,-0.7988,-0.7988,-0.8038,-0.8233,-0.8357,-0.8315,-0.8335,-0.8494,-0.875,-0.8738,-0.8859,-0.9345,-0.9825,-1.0467,-1.1198,-1.1327,-1.1591,-1.1995,-1.2454,-1.2705,-1.2705,-1.3137,-1.3483,-1.3652,-1.3737,-1.387,-1.4046,-1.4088,-1.4088,-1.4122,-1.4329,-1.4609,-1.4955,-1.5177,-1.5484,-1.5725,-1.5798,-1.5825,-1.5825,-1.5825,-1.5927,-1.613,-1.613,-1.6312,-1.6588,-1.6878,-1.7066,-1.7333,-1.7667,-1.804,-1.855,-1.8866,-1.9325,-2.0102,-2.0337,-2.0609,-2.0907,-2.1042,-2.1221,-2.1633,-2.1731,-2.1963,-2.2264,-2.2441,-2.2564,-2.296,-2.3057,-2.3057,-2.3101,-2.3101,-2.3101,-2.3101,-2.3101,-2.3101,-2.3101,-2.3101,-2.3101,-2.3101,-2.3178,-2.3309,-2.358,-2.3894,-2.4368,-2.4775,-2.52,-2.5664,-0.5709,-0.5993,-0.61,-0.6263,-0.6431,-0.6427,-0.6626,-0.6867,-0.674,-0.6939,-0.7288,-0.7338,-0.749,-0.7743,-0.7746,-0.7842,-0.7988,-0.7988,-0.7988,-0.7988,-0.7988,-0.7988,-0.7988,-0.7988,-0.7988,-0.7988,-0.7988,-0.7988,-0.7988,-0.7988,-0.7988,-0.7988,-0.8088,-0.8206,-0.8269,-0.8141,-0.8214,-0.8459,-0.8389,-0.8508,-0.8859,-0.9122,-0.9646,-1.0424,-1.0901,-1.1246,-1.1548,-1.1886,-1.2186,-1.2491,-1.279,-1.3045,-1.3313,-1.3561,-1.3822,-1.4046,-1.4088,-1.4088,-1.4122,-1.4362,-1.4649,-1.4988,-1.5231,-1.5518,-1.5765,-1.5825,-1.5825,-1.5825,-1.5825,-1.5872,-1.592,-1.5927,-1.6069,-1.6305,-1.6454,-1.665,-1.7019,-1.7293,-1.7621,-1.804,-1.8458,-1.9058,-1.9463,-1.9837,-2.0201,-2.051,-2.069,-2.0916,-2.1186,-2.1374,-2.1607,-2.1874,-2.2087,-2.2309,-2.2574,-2.2794,-2.2925,-2.3057,-2.3101,-2.3101,-2.3101,-2.3101,-2.3101,-2.3101,-2.3101,-2.3101,-2.3101,-2.3144,-2.3266,-2.3493,-2.3807,-2.411,-2.4529,-2.4903,-2.5338,-0.503,-0.5382,-0.5487,-0.5636,-0.5791,-0.5827,-0.6031,-0.6253,-0.6171,-0.6437,-0.6886,-0.6936,-0.7141,-0.7441,-0.749,-0.7643,-0.7839,-0.7942,-0.7988,-0.7988,-0.7988,-0.7988,-0.7988,-0.7988,-0.7988,-0.7988,-0.7988,-0.7988,-0.7988,-0.7988,-0.7988,-0.7988,-0.7988,-0.8088,-0.8192,-0.7976,-0.7975,-0.8113,-0.811,-0.817,-0.8476,-0.8688,-0.9038,-0.9602,-1.0168,-1.0679,-1.1068,-1.1413,-1.1714,-1.2063,-1.2406,-1.2753,-1.3094,-1.3398,-1.3695,-1.3955,-1.3955,-1.405,-1.4242,-1.4496,-1.4796,-1.5084,-1.5371,-1.5631,-1.5805,-1.5825,-1.5825,-1.5825,-1.5825,-1.5825,-1.5825,-1.5825,-1.5879,-1.6076,-1.617,-1.6319,-1.6697,-1.6925,-1.7192,-1.7621,-1.8133,-1.8635,-1.8966,-1.9325,-1.9608,-1.9882,-2.0201,-2.0428,-2.0736,-2.0925,-2.1159,-2.1428,-2.1687,-2.1919,-2.2141,-2.2353,-2.2706,-2.2838,-2.3057,-2.3101,-2.3101,-2.3101,-2.3101,-2.3101,-2.3101,-2.3101,-2.3101,-2.3101,-2.3232,-2.345,-2.3624,-2.3841,-2.4229,-2.4572,-2.4999,-0.4207,-0.4536,-0.4761,-0.4947,-0.5075,-0.532,-0.5518,-0.5612,-0.5589,-0.5887,-0.6387,-0.6384,-0.6686,-0.7086,-0.7188,-0.7341,-0.7593,-0.7842,-0.7992,-0.7988,-0.7988,-0.7988,-0.7988,-0.7988,-0.7988,-0.7988,-0.7988,-0.7988,-0.7988,-0.7988,-0.7988,-0.7988,-0.7988,-0.8038,-0.8038,-0.7921,-0.7825,-0.7868,-0.7791,-0.7867,-0.818,-0.842,-0.8684,-0.8955,-0.9213,-0.9777,-1.0598,-1.1025,-1.1284,-1.1408,-1.1972,-1.2577,-1.3009,-1.3264,-1.3483,-1.3652,-1.3695,-1.3959,-1.4396,-1.4719,-1.4998,-1.5278,-1.5591,-1.5792,-1.5771,-1.5825,-1.5825,-1.5825,-1.5825,-1.5825,-1.5825,-1.5825,-1.5825,-1.5825,-1.6021,-1.617,-1.6265,-1.6447,-1.677,-1.7286,-1.7753,-1.8172,-1.845,-1.8681,-1.8966,-1.9242,-1.9479,-1.9762,-2.0147,-2.0337,-2.0555,-2.0916,-2.1239,-2.1472,-2.1696,-2.1919,-2.2318,-2.2671,-2.2935,-2.3057,-2.3101,-2.3101,-2.3101,-2.3101,-2.3101,-2.3101,-2.3101,-2.3101,-2.3188,-2.3373,-2.3493,-2.3624,-2.3927,-2.4272,-2.4572,-0.3251,-0.3586,-0.3866,-0.4066,-0.4266,-0.4523,-0.4796,-0.5041,-0.5035,-0.5386,-0.5837,-0.6039,-0.6339,-0.6639,-0.6842,-0.7042,-0.7341,-0.7593,-0.7793,-0.7939,-0.7988,-0.7988,-0.7988,-0.7988,-0.7988,-0.7988,-0.7988,-0.7988,-0.7988,-0.7988,-0.7988,-0.7988,-0.7988,-0.7988,-0.7982,-0.7889,-0.7791,-0.7691,-0.7717,-0.7697,-0.7738,-0.7984,-0.8292,-0.864,-0.8771,-0.9122,-0.9694,-1.0168,-1.0679,-1.1235,-1.1537,-1.2015,-1.2662,-1.2881,-1.3088,-1.344,-1.3483,-1.3598,-1.4017,-1.4435,-1.4864,-1.514,-1.5524,-1.5758,-1.5825,-1.5825,-1.5825,-1.5825,-1.5825,-1.5825,-1.5825,-1.5825,-1.5825,-1.5825,-1.5879,-1.6021,-1.617,-1.64,-1.6737,-1.7059,-1.738,-1.766,-1.79,-1.8141,-1.8411,-1.8681,-1.892,-1.9204,-1.9517,-1.9837,-2.0155,-2.0464,-2.0753,-2.1077,-2.1293,-2.1607,-2.1909,-2.2362,-2.2671,-2.2925,-2.3013,-2.3057,-2.3057,-2.3101,-2.3101,-2.3101,-2.3101,-2.3144,-2.3188,-2.3285,-2.3363,-2.3537,-2.3721,-2.398,-2.4282,-0.258,-0.2971,-0.3195,-0.3353,-0.3519,-0.3834,-0.412,-0.4345,-0.4483,-0.4784,-0.5286,-0.5489,-0.5789,-0.6087,-0.6389,-0.6639,-0.6939,-0.7191,-0.7444,-0.7739,-0.7939,-0.7988,-0.7988,-0.7988,-0.7988,-0.7988,-0.7988,-0.7988,-0.7988,-0.7988,-0.7988,-0.7988,-0.7988,-0.7988,-0.7982,-0.7943,-0.7807,-0.7617,-0.7641,-0.758,-0.7549,-0.768,-0.7944,-0.8288,-0.8416,-0.864,-0.9038,-0.9388,-0.9994,-1.0722,-1.1111,-1.1628,-1.2277,-1.2412,-1.2668,-1.307,-1.3255,-1.3461,-1.3907,-1.4385,-1.474,-1.5058,-1.5442,-1.5683,-1.5683,-1.5737,-1.5825,-1.5825,-1.5825,-1.5825,-1.5825,-1.5825,-1.5825,-1.5825,-1.5825,-1.5879,-1.6069,-1.6312,-1.6501,-1.669,-1.6871,-1.7145,-1.7394,-1.7675,-1.79,-1.8179,-1.8411,-1.8643,-1.8912,-1.9234,-1.9554,-1.9928,-2.0337,-2.0618,-2.0934,-2.1248,-2.1553,-2.1954,-2.2362,-2.2662,-2.2882,-2.2925,-2.2969,-2.3057,-2.3101,-2.3101,-2.3101,-2.3101,-2.3144,-2.3188,-2.3276,-2.3363,-2.3537,-2.3677,-2.398,-0.2076,-0.2581,-0.2634,-0.2747,-0.2988,-0.3241,-0.3435,-0.3589,-0.383,-0.4234,-0.4634,-0.4834,-0.5085,-0.5536,-0.5839,-0.6139,-0.6387,-0.6689,-0.6942,-0.7291,-0.764,-0.7889,-0.7988,-0.7988,-0.7988,-0.7988,-0.7988,-0.7988,-0.7988,-0.7988,-0.7988,-0.7988,-0.7988,-0.7988,-0.7985,-0.7985,-0.784,-0.7665,-0.76,-0.7586,-0.7505,-0.7462,-0.7595,-0.7896,-0.8072,-0.8288,-0.8592,-0.8907,-0.9301,-1.0038,-1.0814,-1.137,-1.1671,-1.186,-1.216,-1.2637,-1.2877,-1.3383,-1.3974,-1.431,-1.4646,-1.5,-1.5283,-1.5499,-1.5499,-1.5594,-1.5689,-1.573,-1.5778,-1.5778,-1.5784,-1.5825,-1.5825,-1.5825,-1.5825,-1.5832,-1.5832,-1.6069,-1.6218,-1.6265,-1.6447,-1.6683,-1.6979,-1.72,-1.7387,-1.7621,-1.79,-1.8125,-1.8404,-1.8689,-1.8874,-1.9279,-1.9783,-2.0201,-2.0473,-2.0744,-2.1105,-2.1508,-2.1954,-2.2309,-2.2662,-2.2794,-2.2925,-2.3013,-2.3101,-2.3091,-2.3101,-2.3101,-2.3101,-2.3144,-2.3188,-2.3276,-2.3363,-2.3503,-2.3677,-0.1346,-0.168,-0.1882,-0.212,-0.2343,-0.2627,-0.2836,-0.3031,-0.3279,-0.358,-0.393,-0.4334,-0.4636,-0.4987,-0.5288,-0.5639,-0.6039,-0.6389,-0.6642,-0.6942,-0.7241,-0.764,-0.7939,-0.7988,-0.7988,-0.7988,-0.7988,-0.7988,-0.7988,-0.7988,-0.7988,-0.7988,-0.7988,-0.7988,-0.7988,-0.7988,-0.7894,-0.7763,-0.7641,-0.7512,-0.742,-0.7282,-0.7323,-0.7595,-0.768,-0.7896,-0.8288,-0.8688,-0.9257,-0.9951,-1.0554,-1.103,-1.1327,-1.1462,-1.1682,-1.2115,-1.2452,-1.2835,-1.3405,-1.3859,-1.4309,-1.4746,-1.5029,-1.522,-1.5226,-1.5267,-1.5356,-1.5493,-1.5588,-1.5635,-1.573,-1.5784,-1.5778,-1.5825,-1.5825,-1.5825,-1.5825,-1.5832,-1.5981,-1.6177,-1.6272,-1.6407,-1.6643,-1.6777,-1.6918,-1.716,-1.7387,-1.7613,-1.79,-1.8133,-1.8365,-1.8727,-1.9188,-1.9646,-2.0056,-2.0337,-2.0645,-2.1051,-2.1463,-2.1874,-2.2309,-2.2662,-2.2838,-2.3047,-2.3047,-2.3047,-2.3091,-2.3101,-2.3101,-2.3101,-2.3144,-2.3188,-2.3232,-2.3373,-2.3503,-0.0841,-0.112,-0.1322,-0.1462,-0.165,-0.1985,-0.2207,-0.2378,-0.2725,-0.3026,-0.3328,-0.3682,-0.4034,-0.4332,-0.4836,-0.519,-0.5486,-0.5887,-0.6189,-0.6492,-0.6839,-0.7341,-0.7743,-0.7939,-0.7988,-0.7988,-0.7988,-0.7988,-0.7988,-0.7988,-0.7988,-0.7988,-0.7988,-0.7988,-0.7988,-0.7985,-0.7914,-0.7814,-0.7672,-0.7526,-0.7373,-0.7221,-0.7197,-0.7367,-0.7459,-0.768,-0.8069,-0.8508,-0.9078,-0.9646,-1.012,-1.0511,-1.0722,-1.0982,-1.1203,-1.1575,-1.2004,-1.2462,-1.2854,-1.3386,-1.385,-1.4172,-1.455,-1.4736,-1.4838,-1.4933,-1.5172,-1.5309,-1.5309,-1.541,-1.5506,-1.5594,-1.5737,-1.5778,-1.5825,-1.5825,-1.5825,-1.5825,-1.5879,-1.5981,-1.6021,-1.6123,-1.64,-1.6454,-1.6595,-1.6784,-1.6911,-1.7153,-1.734,-1.7621,-1.79,-1.8226,-1.8635,-1.9142,-1.9517,-1.9791,-2.0246,-2.0645,-2.1051,-2.1419,-2.1954,-2.2397,-2.2662,-2.2872,-2.2916,-2.3003,-2.3057,-2.3101,-2.3101,-2.3101,-2.3101,-2.3101,-2.3188,-2.3232,-2.3329,-0.0561,-0.084,-0.0879,-0.0865,-0.1011,-0.1409,-0.1587,-0.167,-0.212,-0.2473,-0.2725,-0.2978,-0.333,-0.3629,-0.4234,-0.4684,-0.4834,-0.5284,-0.5737,-0.6092,-0.6542,-0.7042,-0.7444,-0.7793,-0.7889,-0.7939,-0.7988,-0.7988,-0.7988,-0.7988,-0.7988,-0.7988,-0.7988,-0.7988,-0.7988,-0.7988,-0.7914,-0.7845,-0.7682,-0.755,-0.7407,-0.7248,-0.7146,-0.7187,-0.7415,-0.7595,-0.79,-0.8292,-0.8727,-0.917,-0.965,-0.9951,-1.0038,-1.0381,-1.0715,-1.1063,-1.1595,-1.2083,-1.2428,-1.3028,-1.3426,-1.3588,-1.3962,-1.4202,-1.4304,-1.4592,-1.4892,-1.4981,-1.5035,-1.5083,-1.5178,-1.5356,-1.5499,-1.5642,-1.5689,-1.5778,-1.5784,-1.5784,-1.5825,-1.5825,-1.5825,-1.5927,-1.6076,-1.617,-1.6265,-1.6501,-1.6636,-1.6777,-1.6965,-1.7246,-1.7481,-1.7714,-1.8179,-1.8635,-1.892,-1.9204,-1.9754,-2.0292,-2.0645,-2.1051,-2.1597,-2.2043,-2.2397,-2.2618,-2.275,-2.2882,-2.2969,-2.3013,-2.3057,-2.3101,-2.3101,-2.3101,-2.3101,-2.3144,-2.3232,-0.028,-0.0503,-0.0543,-0.0642,-0.0903,-0.0979,-0.1115,-0.1314,-0.1616,-0.1919,-0.2171,-0.2473,-0.2826,-0.3279,-0.3531,-0.3833,-0.4435,-0.4834,-0.5336,-0.5992,-0.6339,-0.6639,-0.7045,-0.7394,-0.7646,-0.7746,-0.7892,-0.7988,-0.7988,-0.7988,-0.7988,-0.7988,-0.7988,-0.7988,-0.7988,-0.7988,-0.7978,-0.7946,-0.7736,-0.759,-0.7499,-0.7275,-0.7095,-0.7139,-0.7323,-0.7507,-0.7639,-0.79,-0.816,-0.8552,-0.9034,-0.9476,-0.9694,-0.9965,-1.0299,-1.0647,-1.1146,-1.1626,-1.2099,-1.2571,-1.3007,-1.3147,-1.3437,-1.3678,-1.3678,-1.3973,-1.4262,-1.4448,-1.464,-1.479,-1.5035,-1.5131,-1.522,-1.5315,-1.5452,-1.5547,-1.5588,-1.573,-1.5778,-1.5825,-1.5825,-1.5832,-1.5886,-1.5927,-1.6021,-1.6211,-1.6353,-1.64,-1.6636,-1.6871,-1.7106,-1.7301,-1.7714,-1.8172,-1.845,-1.8781,-1.9333,-1.9837,-2.0192,-2.06,-2.1141,-2.1553,-2.1865,-2.2264,-2.2671,-2.2759,-2.2794,-2.3013,-2.3057,-2.3057,-2.3101,-2.3101,-2.3101,-2.3101,-2.3101,-0.0112,-0.0224,-0.0216,-0.032,-0.0477,-0.0565,-0.0707,-0.0859,-0.1111,-0.1364,-0.1617,-0.1918,-0.2271,-0.2676,-0.3029,-0.3482,-0.3934,-0.4535,-0.5035,-0.5489,-0.5834,-0.6139,-0.6439,-0.6842,-0.7144,-0.7391,-0.7537,-0.764,-0.7793,-0.7842,-0.7892,-0.7988,-0.7988,-0.7988,-0.7988,-0.7988,-0.7988,-0.7931,-0.7753,-0.7597,-0.7553,-0.726,-0.7095,-0.7095,-0.7231,-0.7323,-0.7323,-0.7591,-0.7768,-0.7984,-0.838,-0.8867,-0.9288,-0.9566,-0.9897,-1.0102,-1.0616,-1.1073,-1.1487,-1.194,-1.2316,-1.2565,-1.2807,-1.3007,-1.3201,-1.3394,-1.3636,-1.3877,-1.4064,-1.4256,-1.4688,-1.4885,-1.4933,-1.5124,-1.522,-1.5309,-1.5356,-1.5594,-1.5825,-1.5825,-1.5825,-1.5825,-1.5825,-1.5825,-1.5825,-1.6021,-1.6021,-1.6116,-1.6312,-1.6548,-1.669,-1.6925,-1.7293,-1.766,-1.7932,-1.8404,-1.8966,-1.9379,-1.97,-2.0102,-2.0609,-2.097,-2.1239,-2.1776,-2.2264,-2.2485,-2.2574,-2.275,-2.2925,-2.2969,-2.2969,-2.3057,-2.3101,-2.3101,-2.3101,0.0,0.0,0.0,0.0,0.0,-0.0256,-0.0353,-0.0455,-0.0657,-0.0909,-0.1162,-0.1415,-0.1717,-0.2071,-0.2676,-0.3029,-0.343,-0.3982,-0.4535,-0.4836,-0.5286,-0.5589,-0.5889,-0.6189,-0.6489,-0.6936,-0.7188,-0.7341,-0.749,-0.7543,-0.7643,-0.7839,-0.7839,-0.7789,-0.7839,-0.7939,-0.7892,-0.7855,-0.7742,-0.7624,-0.757,-0.7287,-0.7152,-0.7095,-0.7095,-0.7139,-0.7187,-0.7323,-0.7459,-0.7507,-0.7746,-0.8155,-0.8686,-0.9174,-0.9472,-0.9503,-1.0148,-1.0596,-1.0885,-1.1249,-1.1634,-1.1883,-1.2127,-1.2419,-1.2667,-1.2861,-1.3152,-1.3346,-1.3539,-1.3781,-1.4154,-1.4304,-1.4598,-1.479,-1.4939,-1.4987,-1.5124,-1.5452,-1.5642,-1.5737,-1.573,-1.5683,-1.5778,-1.5825,-1.5825,-1.5825,-1.5825,-1.5879,-1.6076,-1.6224,-1.6407,-1.6548,-1.6918,-1.7286,-1.7606,-1.7939,-1.8504,-1.8912,-1.9196,-1.9608,-2.0065,-2.0473,-2.088,-2.1374,-2.182,-2.2043,-2.2309,-2.2485,-2.2662,-2.2759,-2.2794,-2.2838,-2.2925,-2.3057,-2.3038,0.0,0.0,0.0,0.0,0.0,0.0,-0.0202,-0.0353,-0.0455,-0.0606,-0.0859,-0.1162,-0.1364,-0.1718,-0.2021,-0.2526,-0.3079,-0.3531,-0.3883,-0.4336,-0.4736,-0.5037,-0.534,-0.5589,-0.5787,-0.6087,-0.6587,-0.7089,-0.7238,-0.7288,-0.7291,-0.7338,-0.7388,-0.7388,-0.7437,-0.754,-0.7643,-0.7673,-0.7657,-0.762,-0.748,-0.7355,-0.7193,-0.7109,-0.7095,-0.7095,-0.7098,-0.7143,-0.7279,-0.7517,-0.7624,-0.7911,-0.8265,-0.8704,-0.9029,-0.937,-0.9845,-1.0215,-1.0471,-1.0769,-1.1047,-1.1292,-1.1536,-1.1829,-1.2078,-1.2365,-1.2613,-1.291,-1.3201,-1.3491,-1.3588,-1.3727,-1.3829,-1.407,-1.431,-1.4496,-1.4742,-1.4981,-1.5267,-1.5397,-1.5445,-1.5588,-1.5635,-1.5683,-1.573,-1.573,-1.5778,-1.5778,-1.5927,-1.6076,-1.6224,-1.6359,-1.6494,-1.6911,-1.7286,-1.7621,-1.8048,-1.8404,-1.8727,-1.9012,-1.9509,-2.0019,-2.0518,-2.088,-2.1329,-2.1731,-2.1954,-2.222,-2.2397,-2.2485,-2.253,-2.2589,-2.261,-2.2674,-2.2863,0.0,0.0,0.0,0.0,0.0,0.0,-0.005,-0.0202,-0.0202,-0.0353,-0.0556,-0.0758,-0.096,-0.1263,-0.1617,-0.2171,-0.2675,-0.2978,-0.3281,-0.3783,-0.4081,-0.4383,-0.4738,-0.4939,-0.519,-0.5438,-0.5937,-0.6437,-0.6736,-0.6786,-0.6936,-0.7185,-0.7185,-0.7185,-0.7235,-0.7338,-0.7391,-0.7412,-0.7403,-0.7315,-0.7211,-0.7116,-0.7083,-0.7122,-0.7098,-0.7095,-0.7112,-0.7234,-0.7303,-0.7431,-0.759,-0.7745,-0.7991,-0.8273,-0.8659,-0.9008,-0.9397,-0.9718,-1.0002,-1.0216,-1.0511,-1.0752,-1.09,-1.1096,-1.1345,-1.1639,-1.198,-1.2322,-1.2662,-1.3001,-1.3098,-1.3195,-1.3443,-1.3636,-1.3829,-1.3968,-1.4112,-1.4358,-1.4592,-1.4921,-1.507,-1.5213,-1.5404,-1.5452,-1.5588,-1.5683,-1.5737,-1.5778,-1.5778,-1.5927,-1.6076,-1.6123,-1.6258,-1.6541,-1.6958,-1.7246,-1.7535,-1.79,-1.8218,-1.8542,-1.8874,-1.9371,-1.9745,-2.011,-2.0654,-2.1123,-2.1588,-2.1811,-2.1989,-2.2155,-2.2083,-2.21,-2.2197,-2.2337,-2.2423,0.0,0.0,0.0,0.0,0.0,0.0,0.0,0.0,0.0,-0.0101,-0.0303,-0.0404,-0.0556,-0.0808,-0.1263,-0.1768,-0.222,-0.2523,-0.2777,-0.3078,-0.3379,-0.3731,-0.4034,-0.4288,-0.4487,-0.4836,-0.4987,-0.5386,-0.6087,-0.6234,-0.6487,-0.6637,-0.6836,-0.6886,-0.6789,-0.6886,-0.6989,-0.7056,-0.7094,-0.6964,-0.6867,-0.6797,-0.6815,-0.6979,-0.7037,-0.7063,-0.7087,-0.7297,-0.7407,-0.7504,-0.7556,-0.7689,-0.7794,-0.8039,-0.8254,-0.8515,-0.8867,-0.9217,-0.943,-0.9575,-0.9867,-1.0216,-1.0265,-1.0408,-1.0703,-1.1047,-1.134,-1.1688,-1.2078,-1.2322,-1.2516,-1.2716,-1.2953,-1.3195,-1.3298,-1.3394,-1.3539,-1.3732,-1.3973,-1.4256,-1.4598,-1.4885,-1.5029,-1.5274,-1.5363,-1.5452,-1.5547,-1.5635,-1.5683,-1.5778,-1.5927,-1.5927,-1.6069,-1.6265,-1.6588,-1.6871,-1.7153,-1.7387,-1.7707,-1.8032,-1.8357,-1.8727,-1.9096,-1.9438,-1.9788,-2.0276,-2.0828,-2.123,-2.1297,-2.1326,-2.1448,-2.1536,-2.1508,-2.1617,-2.1736,0.0,0.0,0.0,0.0,0.0,0.0,0.0,0.0,0.0,0.0,-0.0101,-0.0303,-0.0404,-0.0606,-0.101,-0.1414,-0.1717,-0.1969,-0.2222,-0.2523,-0.2775,-0.3078,-0.338,-0.3578,-0.3781,-0.4083,-0.4133,-0.4734,-0.5384,-0.5584,-0.5737,-0.5837,-0.5887,-0.5834,-0.5987,-0.6337,-0.6484,-0.6584,-0.6915,-0.6988,-0.6821,-0.6651,-0.6608,-0.6649,-0.6821,-0.6982,-0.7047,-0.73,-0.752,-0.754,-0.7709,-0.779,-0.7828,-0.7943,-0.7997,-0.8212,-0.8474,-0.8829,-0.8928,-0.9023,-0.9221,-0.9624,-0.9673,-0.9974,-1.0314,-1.0654,-1.0855,-1.09,-1.1394,-1.1688,-1.178,-1.1975,-1.2219,-1.2516,-1.271,-1.2905,-1.305,-1.3152,-1.3389,-1.3534,-1.3823,-1.4358,-1.4742,-1.4939,-1.5178,-1.5274,-1.5363,-1.5452,-1.5588,-1.5635,-1.573,-1.5784,-1.5879,-1.6123,-1.6265,-1.6541,-1.673,-1.6925,-1.72,-1.752,-1.7846,-1.821,-1.8503,-1.8816,-1.9093,-1.9265,-1.9631,-1.9983,-2.0288,-2.0458,-2.0537,-2.0625,-2.0697,-2.0857,-2.1016,0.0265,0.0,0.0,0.0,0.0,0.0,0.0,0.0,0.0,0.0,0.0,-0.0101,-0.0252,-0.0455,-0.0707,-0.0859,-0.1162,-0.1465,-0.1717,-0.1969,-0.2222,-0.2474,-0.2725,-0.2875,-0.3077,-0.3278,-0.3379,-0.3679,-0.4331,-0.4784,-0.4987,-0.5188,-0.5288,-0.5438,-0.5338,-0.5737,-0.5934,-0.6066,-0.6267,-0.6434,-0.6469,-0.6493,-0.6534,-0.6618,-0.6771,-0.6889,-0.6973,-0.7259,-0.7477,-0.7555,-0.7712,-0.794,-0.795,-0.7951,-0.7985,-0.8035,-0.8184,-0.8382,-0.8581,-0.8726,-0.8924,-0.9027,-0.9179,-0.9373,-0.9867,-1.0167,-1.0413,-1.0605,-1.0752,-1.0949,-1.1096,-1.1243,-1.1541,-1.1834,-1.2073,-1.2219,-1.2467,-1.271,-1.2856,-1.2953,-1.3098,-1.363,-1.4112,-1.4352,-1.4598,-1.4838,-1.5029,-1.522,-1.5356,-1.5452,-1.5547,-1.5588,-1.5784,-1.5933,-1.6021,-1.6211,-1.6359,-1.6548,-1.6737,-1.7052,-1.738,-1.7692,-1.7972,-1.8156,-1.8316,-1.8471,-1.8537,-1.892,-1.9454,-1.958,-1.9592,-1.9722,-1.9817,-2.0016,-2.0287,0.057,0.0206,0.0103,0.0102,0.0101,0.005,0.0,0.0,0.0,0.0,0.0,0.0,-0.0101,-0.0303,-0.0404,-0.0556,-0.0707,-0.096,-0.1212,-0.1415,-0.1617,-0.1869,-0.212,-0.2221,-0.2423,-0.2675,-0.2774,-0.2975,-0.3327,-0.3729,-0.4083,-0.4585,-0.4736,-0.4836,-0.4939,-0.5138,-0.5336,-0.5582,-0.5676,-0.5868,-0.6004,-0.6128,-0.6258,-0.6475,-0.6632,-0.6703,-0.6816,-0.7163,-0.7332,-0.7407,-0.7563,-0.7717,-0.7829,-0.7832,-0.7942,-0.7939,-0.8088,-0.8137,-0.8287,-0.8432,-0.863,-0.8676,-0.8825,-0.9023,-0.9324,-0.9624,-0.9821,-1.0015,-1.0162,-1.0364,-1.056,-1.0654,-1.0904,-1.1149,-1.1389,-1.1536,-1.1731,-1.2024,-1.2224,-1.2322,-1.2516,-1.2759,-1.319,-1.3624,-1.3962,-1.4358,-1.4646,-1.4892,-1.5077,-1.522,-1.5315,-1.5404,-1.5594,-1.5737,-1.5832,-1.5927,-1.6028,-1.6218,-1.6407,-1.6636,-1.7005,-1.7188,-1.7416,-1.7514,-1.7574,-1.7578,-1.7604,-1.8128,-1.8625,-1.8599,-1.8619,-1.8791,-1.8962,-1.9167,-1.9579,0.0771,0.0759,0.0506,0.0354,0.0353,0.0101,0.0,0.0,0.0,0.0,0.0,0.0,0.0,-0.0101,-0.0252,-0.0404,-0.0455,-0.0707,-0.0859,-0.0859,-0.0909,-0.1263,-0.1515,-0.1717,-0.1869,-0.227,-0.222,-0.2321,-0.2472,-0.2623,-0.3228,-0.3932,-0.4033,-0.4083,-0.4183,-0.4384,-0.4786,-0.5037,-0.5214,-0.5325,-0.5478,-0.5574,-0.5683,-0.587,-0.6152,-0.6449,-0.6694,-0.6993,-0.7198,-0.7201,-0.7322,-0.7437,-0.759,-0.764,-0.769,-0.7789,-0.7839,-0.7889,-0.8038,-0.8141,-0.8187,-0.8432,-0.863,-0.8775,-0.8928,-0.8874,-0.9027,-0.9327,-0.9575,-0.9772,-1.0019,-1.0265,-1.0364,-1.056,-1.0708,-1.0953,-1.1145,-1.1389,-1.1585,-1.1683,-1.1878,-1.2073,-1.2365,-1.2748,-1.3335,-1.3732,-1.4166,-1.4406,-1.4742,-1.4933,-1.5029,-1.5172,-1.5356,-1.5499,-1.5588,-1.5683,-1.5879,-1.6028,-1.617,-1.6353,-1.6636,-1.6753,-1.6804,-1.6797,-1.6833,-1.6746,-1.6733,-1.714,-1.7427,-1.7532,-1.7694,-1.7958,-1.831,-1.8594,-1.9002,0.1677,0.1516,0.1263,0.096,0.0606,0.0353,0.0252,0.0202,0.0,0.0,0.0,0.0,0.0,0.0,0.0,-0.0151,-0.0202,-0.0404,-0.0505,-0.0606,-0.0758,-0.0909,-0.1111,-0.1162,-0.1212,-0.1414,-0.1463,-0.1615,-0.1869,-0.1919,-0.2321,-0.2825,-0.3127,-0.3229,-0.338,-0.3681,-0.4083,-0.4386,-0.4638,-0.4766,-0.4856,-0.5185,-0.5365,-0.5391,-0.5689,-0.5976,-0.6281,-0.6559,-0.6781,-0.6939,-0.7039,-0.7188,-0.7288,-0.7338,-0.7391,-0.754,-0.7537,-0.7637,-0.7789,-0.7892,-0.8038,-0.8137,-0.8382,-0.8581,-0.8581,-0.8676,-0.8829,-0.8977,-0.908,-0.9225,-0.9274,-0.9521,-0.9673,-0.9871,-1.0117,-1.0314,-1.0507,-1.0752,-1.09,-1.0949,-1.1145,-1.134,-1.1634,-1.1878,-1.2565,-1.3152,-1.3534,-1.3919,-1.4262,-1.455,-1.4646,-1.4838,-1.5022,-1.5309,-1.535,-1.554,-1.5683,-1.5832,-1.5933,-1.6116,-1.6285,-1.6158,-1.6183,-1.6128,-1.6058,-1.5973,-1.5995,-1.6099,-1.6353,-1.6762,-1.7057,-1.7286,-1.7644,-1.8,-1.8444,0.2372,0.2121,0.1919,0.1465,0.0909,0.0657,0.0505,0.0455,0.0252,0.005,0.0,0.0,0.0,0.0,0.0,0.0,0.0,-0.0202,-0.0252,-0.0353,-0.0455,-0.0606,-0.0657,-0.0707,-0.0808,-0.0758,-0.0808,-0.1061,-0.1364,-0.1364,-0.1565,-0.1868,-0.212,-0.2271,-0.2774,-0.3025,-0.3377,-0.363,-0.3883,-0.4086,-0.4182,-0.4582,-0.4885,-0.4926,-0.5225,-0.5475,-0.5727,-0.6034,-0.6234,-0.6387,-0.6537,-0.6786,-0.6886,-0.6986,-0.7036,-0.7135,-0.7235,-0.7288,-0.749,-0.7789,-0.7988,-0.8038,-0.8137,-0.8287,-0.8333,-0.8478,-0.8531,-0.8676,-0.8676,-0.8726,-0.8779,-0.9076,-0.9175,-0.9373,-0.9472,-0.962,-0.9817,-1.001,-1.0113,-1.0216,-1.0507,-1.085,-1.1047,-1.1389,-1.1975,-1.2613,-1.3055,-1.3389,-1.3684,-1.3925,-1.416,-1.4358,-1.4646,-1.4927,-1.5213,-1.5309,-1.5404,-1.5635,-1.5737,-1.5879,-1.5947,-1.577,-1.567,-1.5701,-1.5571,-1.529,-1.5268,-1.542,-1.5793,-1.6245,-1.6525,-1.6853,-1.7098,-1.7505,-1.7829,0.2675,0.2422,0.2422,0.1918,0.1263,0.0909,0.0808,0.0808,0.0505,0.0252,0.005,0.0,0.0,0.0,0.0,0.0,0.0,0.0,0.0,0.0,0.0,0.0,-0.0353,-0.0455,-0.0505,-0.0758,-0.0707,-0.0707,-0.0859,-0.0909,-0.096,-0.101,-0.1212,-0.1515,-0.2321,-0.2422,-0.2573,-0.2826,-0.3128,-0.3379,-0.3578,-0.3882,-0.4085,-0.4336,-0.4585,-0.4834,-0.5188,-0.5388,-0.5586,-0.5787,-0.5787,-0.6037,-0.6387,-0.6434,-0.6587,-0.6989,-0.7089,-0.7138,-0.7238,-0.769,-0.7892,-0.7939,-0.7988,-0.7988,-0.8038,-0.8088,-0.8184,-0.8382,-0.8382,-0.8531,-0.868,-0.8775,-0.8825,-0.8874,-0.8973,-0.9072,-0.927,-0.9418,-0.9571,-0.9673,-1.0068,-1.0462,-1.0605,-1.09,-1.1487,-1.2078,-1.257,-1.2861,-1.3104,-1.3394,-1.363,-1.3871,-1.416,-1.4496,-1.4736,-1.4981,-1.5124,-1.5356,-1.554,-1.5642,-1.5658,-1.5577,-1.5472,-1.5349,-1.5088,-1.4851,-1.4754,-1.4741,-1.5235,-1.5692,-1.6105,-1.6443,-1.6689,-1.6976,-1.7302,0.3429,0.3176,0.3027,0.2675,0.2221,0.1617,0.1313,0.1263,0.0859,0.0505,0.0303,0.0252,0.0151,0.0,0.0,0.0,0.0,0.0,0.0,0.0,0.0,0.0,0.0,0.0,0.0,0.0,0.0,-0.0404,-0.0556,-0.0556,-0.0657,-0.0758,-0.0758,-0.1162,-0.1667,-0.1919,-0.207,-0.2472,-0.2623,-0.2724,-0.2825,-0.3078,-0.333,-0.3632,-0.388,-0.4232,-0.4587,-0.4786,-0.4987,-0.5238,-0.5288,-0.5489,-0.5787,-0.5834,-0.5984,-0.6187,-0.6287,-0.6592,-0.6892,-0.7291,-0.754,-0.7643,-0.7743,-0.7793,-0.7942,-0.7988,-0.8038,-0.8088,-0.8187,-0.8233,-0.8237,-0.8432,-0.8528,-0.8577,-0.8676,-0.8825,-0.8973,-0.8973,-0.9072,-0.9126,-0.9422,-0.9821,-1.0064,-1.031,-1.085,-1.1296,-1.1736,-1.2273,-1.2565,-1.2861,-1.3098,-1.334,-1.363,-1.3968,-1.4304,-1.4454,-1.479,-1.507,-1.5261,-1.5363,-1.5336,-1.5305,-1.5152,-1.4995,-1.4737,-1.4486,-1.4502,-1.4566,-1.4776,-1.5151,-1.5567,-1.5989,-1.6286,-1.6533,-1.6853,0.4183,0.3882,0.3682,0.343,0.3077,0.2271,0.1768,0.1566,0.1111,0.0808,0.0556,0.0455,0.0303,0.0151,0.0,0.0,0.0,0.0,0.0,0.0,0.0,0.0,0.0,0.0,0.0,0.0,0.0,-0.0101,-0.0252,-0.0252,-0.0353,-0.0455,0.0,-0.0707,-0.1061,-0.1313,-0.1465,-0.1767,-0.1918,-0.2121,-0.2271,-0.2473,-0.2775,-0.2976,-0.3228,-0.353,-0.3883,-0.4135,-0.4336,-0.4638,-0.4839,-0.4937,-0.5087,-0.5188,-0.5286,-0.5438,-0.5739,-0.6042,-0.6339,-0.6592,-0.6842,-0.7089,-0.7294,-0.7593,-0.7793,-0.7842,-0.7942,-0.7992,-0.7988,-0.7988,-0.8038,-0.8233,-0.8283,-0.8333,-0.8382,-0.8531,-0.8531,-0.8581,-0.868,-0.8733,-0.8928,-0.9274,-0.9571,-0.9821,-1.0167,-1.0511,-1.0855,-1.1394,-1.1932,-1.2273,-1.2565,-1.2807,-1.305,-1.3389,-1.3678,-1.3919,-1.4256,-1.4736,-1.4879,-1.4927,-1.5034,-1.5007,-1.4806,-1.4615,-1.4345,-1.4168,-1.432,-1.4447,-1.4566,-1.4734,-1.5026,-1.5409,-1.579,-1.6121,-1.6402,0.4889,0.4489,0.4437,0.4236,0.3882,0.2874,0.217,0.1617,0.1364,0.1061,0.0808,0.0606,0.0455,0.0353,0.0151,0.0,0.0,0.0,0.0,0.0,0.0,0.0,0.0,0.0,0.0,0.0,0.0,0.0,0.0,0.0,0.0,0.0,0.0,0.0,-0.0505,-0.0707,-0.0859,-0.1161,-0.1414,-0.1566,-0.1667,-0.2018,-0.2221,-0.2422,-0.2675,-0.2927,-0.3177,-0.3428,-0.3679,-0.3882,-0.3982,-0.4135,-0.4288,-0.4388,-0.469,-0.509,-0.5388,-0.5489,-0.5689,-0.5942,-0.6139,-0.6437,-0.6786,-0.7188,-0.749,-0.759,-0.7693,-0.7842,-0.7889,-0.7939,-0.8038,-0.8038,-0.8038,-0.8088,-0.8088,-0.8137,-0.8137,-0.8237,-0.8336,-0.8485,-0.868,-0.8928,-0.9072,-0.9324,-0.9624,-0.9772,-1.0113,-1.0511,-1.1047,-1.159,-1.1883,-1.2224,-1.2516,-1.2813,-1.3104,-1.334,-1.363,-1.4112,-1.4298,-1.437,-1.4477,-1.4579,-1.4384,-1.4161,-1.3901,-1.3851,-1.4046,-1.4195,-1.4314,-1.4524,-1.4699,-1.4943,-1.5325,-1.565,-1.594,0.5386,0.5238,0.5039,0.4836,0.4433,0.3629,0.2875,0.217,0.1869,0.1617,0.1364,0.1061,0.0859,0.0657,0.0404,0.0303,0.0202,0.0,0.0,0.0,0.0,0.0,0.0,0.0,0.0,0.0,0.0,0.0,0.0,0.0,0.0,0.0,0.0,0.0,0.0,0.0,-0.0455,-0.0707,-0.096,-0.101,-0.1111,-0.1414,-0.1666,-0.1869,-0.207,-0.2323,-0.2573,-0.2723,-0.2924,-0.3127,-0.3179,-0.333,-0.3781,-0.3831,-0.4033,-0.4537,-0.4738,-0.4889,-0.5238,-0.5388,-0.5539,-0.5737,-0.6034,-0.6587,-0.6989,-0.7288,-0.7391,-0.759,-0.769,-0.7739,-0.7892,-0.7942,-0.7939,-0.7988,-0.7988,-0.7988,-0.8038,-0.8088,-0.8187,-0.8237,-0.8432,-0.8531,-0.8676,-0.8874,-0.9126,-0.9175,-0.9324,-0.9719,-1.0216,-1.0801,-1.1243,-1.159,-1.198,-1.2273,-1.257,-1.2807,-1.3098,-1.3383,-1.3624,-1.3789,-1.3955,-1.3952,-1.3851,-1.373,-1.3546,-1.3583,-1.3786,-1.3899,-1.4019,-1.4195,-1.437,-1.4615,-1.4859,-1.5186,-1.5484,0.5989,0.5887,0.5639,0.529,0.4887,0.4332,0.3729,0.3127,0.2575,0.2171,0.1869,0.1516,0.1263,0.1111,0.0758,0.0556,0.0556,0.0455,0.0,0.0,0.0151,0.0,0.0,0.0,0.0,0.0,0.0,0.0,0.0,0.0,0.0,0.0,0.0,0.0,0.0,0.0,0.0,-0.0404,-0.0556,-0.0606,-0.0758,-0.0909,-0.1111,-0.1263,-0.1465,-0.1717,-0.2019,-0.2069,-0.227,-0.2574,-0.2624,-0.2774,-0.3176,-0.3226,-0.3429,-0.3883,-0.4083,-0.4286,-0.4638,-0.4788,-0.4987,-0.5236,-0.5386,-0.5837,-0.6287,-0.6689,-0.7039,-0.7341,-0.7441,-0.754,-0.7693,-0.7846,-0.7942,-0.7988,-0.7988,-0.7988,-0.7988,-0.7988,-0.8038,-0.8038,-0.8137,-0.8287,-0.8432,-0.8531,-0.868,-0.8779,-0.8878,-0.9171,-0.962,-1.0113,-1.0556,-1.0904,-1.134,-1.1731,-1.2029,-1.2273,-1.2565,-1.2807,-1.3098,-1.3276,-1.3368,-1.3377,-1.3279,-1.3229,-1.3212,-1.3308,-1.3483,-1.3561,-1.3688,-1.3864,-1.4033,-1.4201,-1.4447,-1.4776,-1.5068,0.6689,0.6437,0.6142,0.5741,0.529,0.4987,0.4636,0.4336,0.343,0.2774,0.2422,0.1919,0.1667,0.1566,0.1162,0.096,0.0859,0.0758,0.0606,0.0455,0.0455,0.0303,0.0151,0.0,0.0,0.0,0.0,0.0,0.0,0.0,0.0,0.0,0.0,0.0,0.0,0.0,0.0,-0.0151,-0.0303,-0.0353,-0.0455,-0.0606,-0.0758,-0.0758,-0.0909,-0.1061,-0.1414,-0.1616,-0.1768,-0.2069,-0.227,-0.227,-0.2472,-0.2674,-0.2925,-0.3077,-0.3328,-0.358,-0.3882,-0.4085,-0.4386,-0.4636,-0.4939,-0.5238,-0.5636,-0.6187,-0.6639,-0.6989,-0.7089,-0.7291,-0.7494,-0.7593,-0.764,-0.7789,-0.7839,-0.7939,-0.7988,-0.7988,-0.7988,-0.7988,-0.8038,-0.8137,-0.8187,-0.8333,-0.8382,-0.8432,-0.8581,-0.8775,-0.9023,-0.9521,-0.992,-1.0265,-1.0752,-1.1145,-1.1292,-1.1585,-1.198,-1.2273,-1.25,-1.2618,-1.2681,-1.27,-1.2719,-1.2695,-1.2716,-1.2955,-1.3137,-1.3222,-1.3349,-1.361,-1.3737,-1.3828,-1.4075,-1.4363,-1.465,0.7089,0.6936,0.6487,0.6089,0.5792,0.5539,0.5135,0.4684,0.4483,0.378,0.3027,0.2523,0.2221,0.212,0.1667,0.1415,0.1364,0.1111,0.0808,0.0758,0.0707,0.0556,0.0353,0.0303,0.0202,0.0,0.0,0.0,0.0,0.0,0.0,0.0,0.0,0.0,0.0,0.0,0.0,0.0,0.0,0.0,-0.0202,-0.0353,-0.0505,-0.0556,-0.0657,-0.0808,-0.101,-0.101,-0.1061,-0.1212,-0.1414,-0.1667,-0.207,-0.2321,-0.2471,-0.2623,-0.2665,-0.2858,-0.3158,-0.3407,-0.3656,-0.3919,-0.4173,-0.4531,-0.5035,-0.5689,-0.6189,-0.6489,-0.6789,-0.6992,-0.7191,-0.7291,-0.7391,-0.754,-0.7693,-0.7839,-0.7939,-0.7988,-0.7988,-0.7988,-0.7988,-0.7988,-0.8038,-0.8038,-0.8088,-0.8184,-0.8382,-0.8531,-0.8577,-0.8928,-0.9274,-0.9719,-1.0265,-1.0609,-1.0703,-1.0949,-1.134,-1.157,-1.1768,-1.1857,-1.1992,-1.2001,-1.2014,-1.2131,-1.2252,-1.2454,-1.2668,-1.2796,-1.3009,-1.3264,-1.344,-1.3483,-1.361,-1.3899,-1.4153,0.7388,0.7341,0.6936,0.6589,0.6342,0.6087,0.5737,0.5338,0.5085,0.4585,0.3831,0.3177,0.2775,0.2675,0.2171,0.1969,0.1869,0.1516,0.1364,0.1212,0.101,0.0808,0.0657,0.0606,0.0505,0.0,0.0,0.0,0.0,0.0,0.0,0.0,0.0,0.0,0.0,0.0,0.0,0.0,0.0,0.0,0.0,0.0,0.0,-0.0303,0.0,0.0,-0.0606,-0.0606,-0.0707,-0.0808,-0.101,-0.1111,-0.141,-0.155,-0.1795,-0.1987,-0.2077,-0.2216,-0.2513,-0.2713,-0.2912,-0.321,-0.3482,-0.3871,-0.4235,-0.4835,-0.5486,-0.5839,-0.6242,-0.6492,-0.6792,-0.6889,-0.7138,-0.7341,-0.7441,-0.7537,-0.769,-0.7793,-0.7892,-0.7988,-0.7988,-0.7988,-0.7988,-0.7988,-0.8038,-0.8038,-0.8184,-0.8233,-0.8333,-0.8432,-0.8779,-0.9126,-0.9624,-0.9969,-1.0122,-1.0413,-1.0801,-1.0967,-1.1048,-1.113,-1.1242,-1.1258,-1.1289,-1.151,-1.1682,-1.1897,-1.2063,-1.2277,-1.2619,-1.2918,-1.3052,-1.3143,-1.3264,-1.3392,-1.3688,0.7593,0.7593,0.7341,0.7092,0.6842,0.6589,0.6337,0.5989,0.5589,0.5188,0.4784,0.3883,0.3482,0.313,0.2826,0.2623,0.2423,0.2171,0.1969,0.1717,0.1515,0.1262,0.1061,0.0909,0.0859,0.0707,0.0556,0.0353,0.0,0.0,0.0,0.0,0.005,0.0,0.0,0.0,0.0,0.0,0.0,0.0,0.0,0.0,0.0,0.0,0.0,0.0,-0.0303,-0.0404,-0.0505,-0.0606,-0.0707,-0.0855,-0.0901,-0.1041,-0.1179,-0.1418,-0.1502,-0.1733,-0.2015,-0.2164,-0.235,-0.2592,-0.2912,-0.3229,-0.3535,-0.4011,-0.4648,-0.512,-0.552,-0.5989,-0.6239,-0.6542,-0.6789,-0.7039,-0.7138,-0.7238,-0.7391,-0.7543,-0.769,-0.7839,-0.7889,-0.7889,-0.7939,-0.7939,-0.7939,-0.7939,-0.7988,-0.7988,-0.8038,-0.8184,-0.8432,-0.868,-0.9027,-0.9278,-0.948,-0.9871,-1.031,-1.0303,-1.0405,-1.0473,-1.0529,-1.0622,-1.0727,-1.0939,-1.1111,-1.1327,-1.1548,-1.1763,-1.2149,-1.2491,-1.2625,-1.2674,-1.2845,-1.3015,-1.3179,0.7793,0.7593,0.7543,0.7344,0.7138,0.7086,0.6789,0.6337,0.6239,0.5937,0.5436,0.5037,0.4487,0.3831,0.353,0.3278,0.3027,0.2775,0.2523,0.227,0.2119,0.1817,0.1565,0.1414,0.1162,0.096,0.0808,0.0707,0.0505,0.0556,0.0505,0.0353,0.0303,0.0202,0.0,0.0,0.0,0.0,0.0,0.0,0.0,0.0,0.0,0.0,0.0,0.0,-0.0101,-0.0101,-0.0101,-0.0202,-0.0353,-0.0551,-0.0645,-0.0688,-0.0827,-0.0911,-0.0997,-0.1184,-0.1417,-0.1606,-0.1792,-0.2033,-0.234,-0.2588,-0.2895,-0.3219,-0.3739,-0.4113,-0.4623,-0.532,-0.5682,-0.5989,-0.6242,-0.6587,-0.6736,-0.6986,-0.7188,-0.7238,-0.7288,-0.7388,-0.7437,-0.7537,-0.764,-0.769,-0.7789,-0.7789,-0.7889,-0.7889,-0.7839,-0.7988,-0.8084,-0.8237,-0.8485,-0.868,-0.8924,-0.9373,-0.9739,-0.9728,-0.9763,-0.9824,-0.9912,-1.0055,-1.0164,-1.0337,-1.0593,-1.0852,-1.1068,-1.1246,-1.1542,-1.1843,-1.2032,-1.2166,-1.2375,-1.2546,-1.2759]}]]